Wetterdaten: Donnerstag, 21.09.2023
Datum Zeit Temp. I. Temp. A. Feuchte I. Feuchte A. Luftdruck Regen Wind Richtung Richtung Sonnenschein Solar Taupunkt Windchill Windböen
21.09.2023 00:00 23,7 °C 15,1 °C 61 % 89 % 1007,6 hPa 0,0 l/m² 0,0 km/h (0 Bft) O-NO 62 ° 0 min 0 W/m² 13,3 °C 15,1 °C 0,0 km/h (0 Bft)
21.09.2023 00:02 23,7 °C 15,1 °C 61 % 89 % 1007,5 hPa 0,0 l/m² 0,0 km/h (0 Bft) O-NO 62 ° 0 min 0 W/m² 13,3 °C 15,1 °C 0,0 km/h (0 Bft)
21.09.2023 00:03 23,7 °C 15,1 °C 61 % 89 % 1007,6 hPa 0,0 l/m² 0,0 km/h (0 Bft) O-NO 62 ° 0 min 0 W/m² 13,3 °C 15,1 °C 0,0 km/h (0 Bft)
21.09.2023 00:05 23,7 °C 15,1 °C 61 % 89 % 1007,5 hPa 0,0 l/m² 0,0 km/h (0 Bft) O-NO 62 ° 0 min 0 W/m² 13,3 °C 15,1 °C 0,0 km/h (0 Bft)
21.09.2023 00:07 23,7 °C 15,0 °C 61 % 89 % 1007,6 hPa 0,0 l/m² 0,0 km/h (0 Bft) O-NO 62 ° 0 min 0 W/m² 13,2 °C 15,0 °C 0,0 km/h (0 Bft)
21.09.2023 00:09 23,7 °C 15,0 °C 61 % 89 % 1007,6 hPa 0,0 l/m² 0,0 km/h (0 Bft) O-NO 62 ° 0 min 0 W/m² 13,2 °C 15,0 °C 0,0 km/h (0 Bft)
21.09.2023 00:11 23,7 °C 15,0 °C 61 % 89 % 1007,6 hPa 0,0 l/m² 0,0 km/h (0 Bft) O-NO 62 ° 0 min 0 W/m² 13,2 °C 15,0 °C 0,0 km/h (0 Bft)
21.09.2023 00:12 23,7 °C 14,9 °C 61 % 89 % 1007,6 hPa 0,0 l/m² 0,0 km/h (0 Bft) O-NO 62 ° 0 min 0 W/m² 13,1 °C 14,9 °C 0,0 km/h (0 Bft)
21.09.2023 00:13 23,7 °C 14,9 °C 61 % 89 % 1007,6 hPa 0,0 l/m² 0,0 km/h (0 Bft) O-NO 62 ° 0 min 0 W/m² 13,1 °C 14,9 °C 0,0 km/h (0 Bft)
21.09.2023 00:15 23,7 °C 14,9 °C 61 % 89 % 1007,5 hPa 0,0 l/m² 0,0 km/h (0 Bft) O-NO 62 ° 0 min 0 W/m² 13,1 °C 14,9 °C 0,0 km/h (0 Bft)
21.09.2023 00:17 23,7 °C 15,0 °C 61 % 89 % 1007,6 hPa 0,0 l/m² 1,3 km/h (1 Bft) O-NO 62 ° 0 min 0 W/m² 13,2 °C 15,0 °C 3,2 km/h (1 Bft)
21.09.2023 00:19 23,7 °C 15,1 °C 61 % 89 % 1007,6 hPa 0,0 l/m² 2,2 km/h (1 Bft) O-NO 62 ° 0 min 0 W/m² 13,3 °C 15,1 °C 3,2 km/h (1 Bft)
21.09.2023 00:21 23,7 °C 15,0 °C 61 % 89 % 1007,6 hPa 0,0 l/m² 0,0 km/h (0 Bft) O-NO 62 ° 0 min 0 W/m² 13,2 °C 15,0 °C 0,0 km/h (0 Bft)
21.09.2023 00:22 23,7 °C 15,1 °C 61 % 89 % 1007,6 hPa 0,0 l/m² 1,5 km/h (1 Bft) O-NO 62 ° 0 min 0 W/m² 13,3 °C 15,1 °C 3,2 km/h (1 Bft)
21.09.2023 00:24 23,7 °C 15,1 °C 61 % 88 % 1007,6 hPa 0,0 l/m² 2,2 km/h (1 Bft) O-NO 62 ° 0 min 0 W/m² 13,1 °C 15,1 °C 3,2 km/h (1 Bft)
21.09.2023 00:26 23,7 °C 15,1 °C 61 % 88 % 1007,5 hPa 0,0 l/m² 2,9 km/h (1 Bft) O-NO 62 ° 0 min 0 W/m² 13,1 °C 15,1 °C 3,2 km/h (1 Bft)
21.09.2023 00:28 23,7 °C 15,1 °C 61 % 88 % 1007,5 hPa 0,0 l/m² 0,9 km/h (0 Bft) O-NO 62 ° 0 min 0 W/m² 13,1 °C 15,1 °C 3,2 km/h (1 Bft)
21.09.2023 00:30 23,7 °C 15,1 °C 61 % 87 % 1007,5 hPa 0,0 l/m² 0,0 km/h (0 Bft) O-NO 62 ° 0 min 0 W/m² 13,0 °C 15,1 °C 0,0 km/h (0 Bft)
21.09.2023 00:32 23,6 °C 15,1 °C 61 % 87 % 1007,4 hPa 0,0 l/m² 0,0 km/h (0 Bft) O-NO 62 ° 0 min 0 W/m² 13,0 °C 15,1 °C 0,0 km/h (0 Bft)
21.09.2023 00:33 23,6 °C 15,1 °C 61 % 87 % 1007,4 hPa 0,0 l/m² 0,0 km/h (0 Bft) O-NO 62 ° 0 min 0 W/m² 13,0 °C 15,1 °C 0,0 km/h (0 Bft)
21.09.2023 00:34 23,6 °C 15,1 °C 61 % 87 % 1007,5 hPa 0,0 l/m² 0,0 km/h (0 Bft) O-NO 62 ° 0 min 0 W/m² 13,0 °C 15,1 °C 0,0 km/h (0 Bft)
21.09.2023 00:36 23,6 °C 15,0 °C 61 % 88 % 1007,5 hPa 0,0 l/m² 0,0 km/h (0 Bft) O-NO 62 ° 0 min 0 W/m² 13,0 °C 15,0 °C 0,0 km/h (0 Bft)
21.09.2023 00:38 23,6 °C 14,9 °C 61 % 88 % 1007,5 hPa 0,0 l/m² 0,0 km/h (0 Bft) O-NO 62 ° 0 min 0 W/m² 12,9 °C 14,9 °C 0,0 km/h (0 Bft)
21.09.2023 00:40 23,6 °C 14,9 °C 61 % 88 % 1007,6 hPa 0,0 l/m² 0,0 km/h (0 Bft) O-NO 62 ° 0 min 0 W/m² 12,9 °C 14,9 °C 0,0 km/h (0 Bft)
21.09.2023 00:42 23,6 °C 14,9 °C 61 % 89 % 1007,6 hPa 0,0 l/m² 0,0 km/h (0 Bft) O-NO 62 ° 0 min 0 W/m² 13,1 °C 14,9 °C 0,0 km/h (0 Bft)
21.09.2023 00:43 23,6 °C 14,9 °C 61 % 89 % 1007,6 hPa 0,0 l/m² 0,0 km/h (0 Bft) O-NO 62 ° 0 min 0 W/m² 13,1 °C 14,9 °C 0,0 km/h (0 Bft)
21.09.2023 00:46 23,6 °C 14,8 °C 61 % 89 % 1007,5 hPa 0,0 l/m² 0,0 km/h (0 Bft) O-NO 62 ° 0 min 0 W/m² 13,0 °C 14,8 °C 0,0 km/h (0 Bft)
21.09.2023 00:48 23,6 °C 14,8 °C 61 % 89 % 1007,5 hPa 0,0 l/m² 0,0 km/h (0 Bft) O-NO 62 ° 0 min 0 W/m² 13,0 °C 14,8 °C 0,0 km/h (0 Bft)
21.09.2023 00:50 23,6 °C 14,8 °C 61 % 90 % 1007,4 hPa 0,0 l/m² 0,0 km/h (0 Bft) O-NO 62 ° 0 min 0 W/m² 13,2 °C 14,8 °C 0,0 km/h (0 Bft)
21.09.2023 00:52 23,6 °C 14,8 °C 61 % 90 % 1007,4 hPa 0,0 l/m² 0,0 km/h (0 Bft) O-NO 62 ° 0 min 0 W/m² 13,2 °C 14,8 °C 0,0 km/h (0 Bft)
21.09.2023 00:53 23,6 °C 14,8 °C 61 % 90 % 1007,4 hPa 0,0 l/m² 0,0 km/h (0 Bft) O-NO 62 ° 0 min 0 W/m² 13,2 °C 14,8 °C 0,0 km/h (0 Bft)
21.09.2023 00:54 23,6 °C 14,8 °C 61 % 90 % 1007,4 hPa 0,0 l/m² 0,0 km/h (0 Bft) O-NO 62 ° 0 min 0 W/m² 13,2 °C 14,8 °C 0,0 km/h (0 Bft)
21.09.2023 00:56 23,6 °C 14,7 °C 61 % 90 % 1007,4 hPa 0,0 l/m² 0,0 km/h (0 Bft) O-NO 62 ° 0 min 0 W/m² 13,1 °C 14,7 °C 0,0 km/h (0 Bft)
21.09.2023 00:58 23,6 °C 14,7 °C 61 % 90 % 1007,4 hPa 0,0 l/m² 0,0 km/h (0 Bft) O-NO 62 ° 0 min 0 W/m² 13,1 °C 14,7 °C 0,0 km/h (0 Bft)
21.09.2023 01:00 23,6 °C 14,6 °C 61 % 90 % 1007,3 hPa 0,0 l/m² 0,0 km/h (0 Bft) O-NO 62 ° 0 min 0 W/m² 13,0 °C 14,6 °C 0,0 km/h (0 Bft)
21.09.2023 01:02 23,6 °C 14,6 °C 61 % 90 % 1007,4 hPa 0,0 l/m² 0,0 km/h (0 Bft) O-NO 62 ° 0 min 0 W/m² 13,0 °C 14,6 °C 0,0 km/h (0 Bft)
21.09.2023 01:03 23,6 °C 14,6 °C 61 % 90 % 1007,4 hPa 0,0 l/m² 0,0 km/h (0 Bft) O-NO 62 ° 0 min 0 W/m² 13,0 °C 14,6 °C 0,0 km/h (0 Bft)
21.09.2023 01:04 23,6 °C 14,6 °C 61 % 90 % 1007,4 hPa 0,0 l/m² 0,0 km/h (0 Bft) O-NO 62 ° 0 min 0 W/m² 13,0 °C 14,6 °C 0,0 km/h (0 Bft)
21.09.2023 01:06 23,6 °C 14,5 °C 61 % 91 % 1007,3 hPa 0,0 l/m² 0,0 km/h (0 Bft) O-NO 62 ° 0 min 0 W/m² 13,0 °C 14,5 °C 0,0 km/h (0 Bft)
21.09.2023 01:08 23,6 °C 14,5 °C 61 % 91 % 1007,4 hPa 0,0 l/m² 0,0 km/h (0 Bft) O-NO 62 ° 0 min 0 W/m² 13,0 °C 14,5 °C 0,0 km/h (0 Bft)
21.09.2023 01:10 23,6 °C 14,4 °C 61 % 91 % 1007,3 hPa 0,0 l/m² 0,0 km/h (0 Bft) O-NO 62 ° 0 min 0 W/m² 12,9 °C 14,4 °C 0,0 km/h (0 Bft)
21.09.2023 01:12 23,6 °C 14,4 °C 61 % 91 % 1007,4 hPa 0,0 l/m² 0,0 km/h (0 Bft) O-NO 62 ° 0 min 0 W/m² 12,9 °C 14,4 °C 0,0 km/h (0 Bft)
21.09.2023 01:13 23,6 °C 14,4 °C 61 % 91 % 1007,4 hPa 0,0 l/m² 0,0 km/h (0 Bft) O-NO 62 ° 0 min 0 W/m² 12,9 °C 14,4 °C 0,0 km/h (0 Bft)
21.09.2023 01:14 23,6 °C 14,3 °C 61 % 91 % 1007,4 hPa 0,0 l/m² 0,0 km/h (0 Bft) O-NO 62 ° 0 min 0 W/m² 12,8 °C 14,3 °C 0,0 km/h (0 Bft)
21.09.2023 01:16 23,6 °C 14,3 °C 61 % 91 % 1007,3 hPa 0,0 l/m² 0,0 km/h (0 Bft) O-NO 62 ° 0 min 0 W/m² 12,8 °C 14,3 °C 0,0 km/h (0 Bft)
21.09.2023 01:18 23,6 °C 14,3 °C 61 % 91 % 1007,5 hPa 0,0 l/m² 0,0 km/h (0 Bft) O-NO 62 ° 0 min 0 W/m² 12,8 °C 14,3 °C 0,0 km/h (0 Bft)
21.09.2023 01:20 23,6 °C 14,3 °C 61 % 91 % 1007,3 hPa 0,0 l/m² 0,0 km/h (0 Bft) O-NO 62 ° 0 min 0 W/m² 12,8 °C 14,3 °C 0,0 km/h (0 Bft)
21.09.2023 01:22 23,6 °C 14,2 °C 61 % 91 % 1007,3 hPa 0,0 l/m² 0,0 km/h (0 Bft) O-NO 62 ° 0 min 0 W/m² 12,8 °C 14,2 °C 0,0 km/h (0 Bft)
21.09.2023 01:23 23,6 °C 14,2 °C 61 % 90 % 1007,3 hPa 0,0 l/m² 0,0 km/h (0 Bft) O-NO 62 ° 0 min 0 W/m² 12,6 °C 14,2 °C 0,0 km/h (0 Bft)
21.09.2023 01:24 23,6 °C 14,1 °C 61 % 91 % 1007,3 hPa 0,0 l/m² 0,0 km/h (0 Bft) O-NO 62 ° 0 min 0 W/m² 12,7 °C 14,1 °C 0,0 km/h (0 Bft)
21.09.2023 01:26 23,6 °C 14,1 °C 61 % 91 % 1007,3 hPa 0,0 l/m² 0,0 km/h (0 Bft) O-NO 62 ° 0 min 0 W/m² 12,7 °C 14,1 °C 0,0 km/h (0 Bft)
21.09.2023 01:27 23,6 °C 14,1 °C 61 % 91 % 1007,3 hPa 0,0 l/m² 0,0 km/h (0 Bft) O-NO 62 ° 0 min 0 W/m² 12,7 °C 14,1 °C 0,0 km/h (0 Bft)
21.09.2023 01:29 23,6 °C 13,9 °C 61 % 91 % 1007,3 hPa 0,0 l/m² 0,0 km/h (0 Bft) O-NO 62 ° 0 min 0 W/m² 12,5 °C 13,9 °C 0,0 km/h (0 Bft)
21.09.2023 01:31 23,6 °C 13,9 °C 61 % 90 % 1007,3 hPa 0,0 l/m² 0,0 km/h (0 Bft) O-NO 62 ° 0 min 0 W/m² 12,3 °C 13,9 °C 0,0 km/h (0 Bft)
21.09.2023 01:32 23,6 °C 13,9 °C 61 % 90 % 1007,3 hPa 0,0 l/m² 0,0 km/h (0 Bft) O-NO 62 ° 0 min 0 W/m² 12,3 °C 13,9 °C 0,0 km/h (0 Bft)
21.09.2023 01:34 23,6 °C 13,8 °C 61 % 91 % 1007,3 hPa 0,0 l/m² 0,0 km/h (0 Bft) O-NO 62 ° 0 min 0 W/m² 12,4 °C 13,8 °C 0,0 km/h (0 Bft)
21.09.2023 01:36 23,6 °C 13,8 °C 61 % 91 % 1007,2 hPa 0,0 l/m² 0,0 km/h (0 Bft) O-NO 62 ° 0 min 0 W/m² 12,4 °C 13,8 °C 0,0 km/h (0 Bft)
21.09.2023 01:38 23,6 °C 13,8 °C 61 % 91 % 1007,1 hPa 0,0 l/m² 0,0 km/h (0 Bft) O-NO 62 ° 0 min 0 W/m² 12,4 °C 13,8 °C 0,0 km/h (0 Bft)
21.09.2023 01:40 23,6 °C 13,8 °C 61 % 91 % 1007,1 hPa 0,0 l/m² 0,0 km/h (0 Bft) O-NO 62 ° 0 min 0 W/m² 12,4 °C 13,8 °C 0,0 km/h (0 Bft)
21.09.2023 01:42 23,6 °C 13,8 °C 61 % 90 % 1007,2 hPa 0,0 l/m² 0,7 km/h (0 Bft) O-NO 62 ° 0 min 0 W/m² 12,2 °C 13,8 °C 3,2 km/h (1 Bft)
21.09.2023 01:43 23,6 °C 13,8 °C 61 % 90 % 1007,2 hPa 0,0 l/m² 0,2 km/h (0 Bft) O-NO 62 ° 0 min 0 W/m² 12,2 °C 13,8 °C 1,6 km/h (1 Bft)
21.09.2023 01:44 23,6 °C 13,8 °C 61 % 90 % 1007,2 hPa 0,0 l/m² 0,0 km/h (0 Bft) O-NO 62 ° 0 min 0 W/m² 12,2 °C 13,8 °C 0,0 km/h (0 Bft)
21.09.2023 01:46 23,6 °C 13,8 °C 61 % 90 % 1007,1 hPa 0,0 l/m² 0,0 km/h (0 Bft) O-NO 62 ° 0 min 0 W/m² 12,2 °C 13,8 °C 0,0 km/h (0 Bft)
21.09.2023 01:48 23,6 °C 13,7 °C 61 % 90 % 1007,1 hPa 0,0 l/m² 0,0 km/h (0 Bft) O-NO 62 ° 0 min 0 W/m² 12,1 °C 13,7 °C 0,0 km/h (0 Bft)
21.09.2023 01:50 23,6 °C 13,6 °C 61 % 90 % 1007,1 hPa 0,0 l/m² 0,0 km/h (0 Bft) O-NO 62 ° 0 min 0 W/m² 12,0 °C 13,6 °C 0,0 km/h (0 Bft)
21.09.2023 01:52 23,5 °C 13,6 °C 61 % 90 % 1007,2 hPa 0,0 l/m² 0,0 km/h (0 Bft) O-NO 62 ° 0 min 0 W/m² 12,0 °C 13,6 °C 0,0 km/h (0 Bft)
21.09.2023 01:53 23,5 °C 13,6 °C 61 % 90 % 1007,2 hPa 0,0 l/m² 0,0 km/h (0 Bft) O-NO 62 ° 0 min 0 W/m² 12,0 °C 13,6 °C 0,0 km/h (0 Bft)
21.09.2023 01:54 23,6 °C 13,5 °C 61 % 90 % 1007,2 hPa 0,0 l/m² 0,0 km/h (0 Bft) O-NO 62 ° 0 min 0 W/m² 11,9 °C 13,5 °C 0,0 km/h (0 Bft)
21.09.2023 01:56 23,6 °C 13,4 °C 61 % 90 % 1007,1 hPa 0,0 l/m² 0,0 km/h (0 Bft) O-NO 62 ° 0 min 0 W/m² 11,8 °C 13,4 °C 1,6 km/h (1 Bft)
21.09.2023 01:58 23,6 °C 13,4 °C 61 % 90 % 1007,1 hPa 0,0 l/m² 1,2 km/h (1 Bft) O-NO 62 ° 0 min 0 W/m² 11,8 °C 13,4 °C 1,6 km/h (1 Bft)
21.09.2023 02:00 23,5 °C 13,4 °C 61 % 91 % 1007,1 hPa 0,0 l/m² 1,0 km/h (0 Bft) O-NO 62 ° 0 min 0 W/m² 12,0 °C 13,4 °C 3,2 km/h (1 Bft)
21.09.2023 02:02 23,6 °C 13,3 °C 61 % 91 % 1007,1 hPa 0,0 l/m² 1,1 km/h (1 Bft) O-NO 62 ° 0 min 0 W/m² 11,9 °C 13,3 °C 1,6 km/h (1 Bft)
21.09.2023 02:03 23,6 °C 13,4 °C 61 % 91 % 1007,1 hPa 0,0 l/m² 1,2 km/h (1 Bft) O-NO 62 ° 0 min 0 W/m² 12,0 °C 13,4 °C 3,2 km/h (1 Bft)
21.09.2023 02:04 23,6 °C 13,4 °C 61 % 91 % 1007,1 hPa 0,0 l/m² 0,7 km/h (0 Bft) O-NO 62 ° 0 min 0 W/m² 12,0 °C 13,4 °C 1,6 km/h (1 Bft)
21.09.2023 02:06 23,5 °C 13,4 °C 61 % 91 % 1007,0 hPa 0,0 l/m² 0,4 km/h (0 Bft) O-NO 62 ° 0 min 0 W/m² 12,0 °C 13,4 °C 1,6 km/h (1 Bft)
21.09.2023 02:08 23,5 °C 13,4 °C 61 % 90 % 1007,0 hPa 0,0 l/m² 0,0 km/h (0 Bft) O-NO 62 ° 0 min 0 W/m² 11,8 °C 13,4 °C 0,0 km/h (0 Bft)
21.09.2023 02:10 23,5 °C 13,3 °C 61 % 90 % 1007,0 hPa 0,0 l/m² 0,0 km/h (0 Bft) O-NO 62 ° 0 min 0 W/m² 11,7 °C 13,3 °C 0,0 km/h (0 Bft)
21.09.2023 02:12 23,5 °C 13,2 °C 61 % 90 % 1007,0 hPa 0,0 l/m² 0,0 km/h (0 Bft) O-NO 62 ° 0 min 0 W/m² 11,6 °C 13,2 °C 0,0 km/h (0 Bft)
21.09.2023 02:13 23,5 °C 13,2 °C 61 % 90 % 1007,0 hPa 0,0 l/m² 0,7 km/h (0 Bft) O-NO 62 ° 0 min 0 W/m² 11,6 °C 13,2 °C 1,6 km/h (1 Bft)
21.09.2023 02:14 23,5 °C 13,2 °C 61 % 90 % 1007,0 hPa 0,0 l/m² 1,1 km/h (1 Bft) O-NO 62 ° 0 min 0 W/m² 11,6 °C 13,2 °C 1,6 km/h (1 Bft)
21.09.2023 02:16 23,5 °C 13,2 °C 61 % 91 % 1007,1 hPa 0,0 l/m² 0,4 km/h (0 Bft) O-NO 62 ° 0 min 0 W/m² 11,8 °C 13,2 °C 1,6 km/h (1 Bft)
21.09.2023 02:18 23,6 °C 13,2 °C 61 % 91 % 1007,0 hPa 0,0 l/m² 0,1 km/h (0 Bft) O-NO 62 ° 0 min 0 W/m² 11,8 °C 13,2 °C 1,6 km/h (1 Bft)
21.09.2023 02:20 23,5 °C 13,3 °C 61 % 91 % 1007,0 hPa 0,0 l/m² 0,1 km/h (0 Bft) O-NO 62 ° 0 min 0 W/m² 11,9 °C 13,3 °C 1,6 km/h (1 Bft)
21.09.2023 02:22 23,5 °C 13,3 °C 61 % 90 % 1006,9 hPa 0,0 l/m² 1,1 km/h (1 Bft) O-NO 62 ° 0 min 0 W/m² 11,7 °C 13,3 °C 3,2 km/h (1 Bft)
21.09.2023 02:23 23,5 °C 13,3 °C 61 % 90 % 1006,9 hPa 0,0 l/m² 0,9 km/h (0 Bft) O-NO 62 ° 0 min 0 W/m² 11,7 °C 13,3 °C 1,6 km/h (1 Bft)
21.09.2023 02:24 23,5 °C 13,3 °C 61 % 90 % 1007,0 hPa 0,0 l/m² 0,5 km/h (0 Bft) O-NO 62 ° 0 min 0 W/m² 11,7 °C 13,3 °C 1,6 km/h (1 Bft)
21.09.2023 02:26 23,5 °C 13,3 °C 61 % 90 % 1006,9 hPa 0,0 l/m² 1,3 km/h (1 Bft) O-NO 62 ° 0 min 0 W/m² 11,7 °C 13,3 °C 1,6 km/h (1 Bft)
21.09.2023 02:28 23,5 °C 13,1 °C 61 % 90 % 1006,9 hPa 0,0 l/m² 2,5 km/h (1 Bft) O-NO 62 ° 0 min 0 W/m² 11,5 °C 13,1 °C 4,8 km/h (1 Bft)
21.09.2023 02:30 23,4 °C 13,1 °C 61 % 90 % 1006,9 hPa 0,0 l/m² 2,8 km/h (1 Bft) O-NO 62 ° 0 min 0 W/m² 11,5 °C 13,1 °C 4,8 km/h (1 Bft)
21.09.2023 02:32 23,5 °C 13,1 °C 61 % 90 % 1006,9 hPa 0,0 l/m² 1,9 km/h (1 Bft) O-NO 62 ° 0 min 0 W/m² 11,5 °C 13,1 °C 3,2 km/h (1 Bft)
21.09.2023 02:33 23,5 °C 13,1 °C 61 % 91 % 1006,9 hPa 0,0 l/m² 0,9 km/h (0 Bft) O-NO 62 ° 0 min 0 W/m² 11,7 °C 13,1 °C 1,6 km/h (1 Bft)
21.09.2023 02:34 23,4 °C 13,1 °C 61 % 91 % 1006,8 hPa 0,0 l/m² 1,5 km/h (1 Bft) O-NO 62 ° 0 min 0 W/m² 11,7 °C 13,1 °C 3,2 km/h (1 Bft)
21.09.2023 02:36 23,5 °C 13,1 °C 61 % 91 % 1006,8 hPa 0,0 l/m² 2,5 km/h (1 Bft) O-NO 62 ° 0 min 0 W/m² 11,7 °C 13,1 °C 4,8 km/h (1 Bft)
21.09.2023 02:38 23,5 °C 13,1 °C 61 % 91 % 1006,8 hPa 0,0 l/m² 2,5 km/h (1 Bft) O-NO 62 ° 0 min 0 W/m² 11,7 °C 13,1 °C 4,8 km/h (1 Bft)
21.09.2023 02:40 23,5 °C 13,1 °C 61 % 91 % 1006,8 hPa 0,0 l/m² 3,3 km/h (1 Bft) O-NO 62 ° 0 min 0 W/m² 11,7 °C 13,1 °C 4,8 km/h (1 Bft)
21.09.2023 02:42 23,4 °C 13,2 °C 61 % 91 % 1006,8 hPa 0,0 l/m² 4,5 km/h (1 Bft) O-NO 62 ° 0 min 0 W/m² 11,8 °C 13,2 °C 6,4 km/h (2 Bft)
21.09.2023 02:43 23,4 °C 13,2 °C 61 % 91 % 1006,8 hPa 0,0 l/m² 3,9 km/h (1 Bft) O-NO 62 ° 0 min 0 W/m² 11,8 °C 13,2 °C 4,8 km/h (1 Bft)
21.09.2023 02:44 23,4 °C 13,1 °C 61 % 91 % 1006,8 hPa 0,0 l/m² 3,3 km/h (1 Bft) O-NO 62 ° 0 min 0 W/m² 11,7 °C 13,1 °C 4,8 km/h (1 Bft)
21.09.2023 02:46 23,4 °C 13,1 °C 61 % 91 % 1006,8 hPa 0,0 l/m² 2,2 km/h (1 Bft) O-NO 62 ° 0 min 0 W/m² 11,7 °C 13,1 °C 4,8 km/h (1 Bft)
21.09.2023 02:48 23,5 °C 13,0 °C 61 % 91 % 1006,8 hPa 0,0 l/m² 2,9 km/h (1 Bft) O-NO 62 ° 0 min 0 W/m² 11,6 °C 13,0 °C 4,8 km/h (1 Bft)
21.09.2023 02:50 23,4 °C 12,9 °C 61 % 91 % 1006,7 hPa 0,0 l/m² 3,5 km/h (1 Bft) O-NO 62 ° 0 min 0 W/m² 11,5 °C 12,9 °C 4,8 km/h (1 Bft)
21.09.2023 02:52 23,4 °C 12,9 °C 61 % 91 % 1006,8 hPa 0,0 l/m² 2,7 km/h (1 Bft) O-NO 62 ° 0 min 0 W/m² 11,5 °C 12,9 °C 4,8 km/h (1 Bft)
21.09.2023 02:53 23,4 °C 12,9 °C 61 % 91 % 1006,8 hPa 0,0 l/m² 2,8 km/h (1 Bft) O-NO 62 ° 0 min 0 W/m² 11,5 °C 12,9 °C 3,2 km/h (1 Bft)
21.09.2023 02:54 23,4 °C 12,8 °C 61 % 91 % 1006,8 hPa 0,0 l/m² 3,5 km/h (1 Bft) O-NO 62 ° 0 min 0 W/m² 11,4 °C 12,8 °C 4,8 km/h (1 Bft)
21.09.2023 02:56 23,4 °C 12,8 °C 61 % 91 % 1006,7 hPa 0,0 l/m² 2,5 km/h (1 Bft) O-NO 62 ° 0 min 0 W/m² 11,4 °C 12,8 °C 4,8 km/h (1 Bft)
21.09.2023 02:58 23,4 °C 12,8 °C 61 % 91 % 1006,8 hPa 0,0 l/m² 2,7 km/h (1 Bft) O-NO 62 ° 0 min 0 W/m² 11,4 °C 12,8 °C 3,2 km/h (1 Bft)
21.09.2023 03:00 23,4 °C 12,7 °C 61 % 91 % 1006,7 hPa 0,0 l/m² 2,7 km/h (1 Bft) O-NO 62 ° 0 min 0 W/m² 11,3 °C 12,7 °C 4,8 km/h (1 Bft)
21.09.2023 03:01 23,4 °C 12,7 °C 61 % 91 % 1006,7 hPa 0,0 l/m² 3,2 km/h (1 Bft) O-NO 67 ° 0 min 0 W/m² 11,3 °C 12,7 °C 3,2 km/h (1 Bft)
21.09.2023 03:07 23,4 °C 12,9 °C 61 % 92 % 1006,7 hPa 0,0 l/m² 1,2 km/h (1 Bft) O-NO 62 ° 0 min 0 W/m² 11,6 °C 12,9 °C 3,2 km/h (1 Bft)
21.09.2023 03:08 23,4 °C 12,9 °C 61 % 92 % 1006,7 hPa 0,0 l/m² 1,4 km/h (1 Bft) O-NO 62 ° 0 min 0 W/m² 11,6 °C 12,9 °C 3,2 km/h (1 Bft)
21.09.2023 03:09 23,4 °C 12,9 °C 61 % 92 % 1006,7 hPa 0,0 l/m² 0,4 km/h (0 Bft) O-NO 62 ° 0 min 0 W/m² 11,6 °C 12,9 °C 1,6 km/h (1 Bft)
21.09.2023 03:10 23,4 °C 12,9 °C 61 % 91 % 1006,7 hPa 0,0 l/m² 1,7 km/h (1 Bft) O-NO 62 ° 0 min 0 W/m² 11,5 °C 12,9 °C 3,2 km/h (1 Bft)
21.09.2023 03:12 23,4 °C 13,0 °C 61 % 92 % 1006,6 hPa 0,0 l/m² 2,8 km/h (1 Bft) O-NO 62 ° 0 min 0 W/m² 11,7 °C 13,0 °C 3,2 km/h (1 Bft)
21.09.2023 03:13 23,4 °C 13,0 °C 61 % 92 % 1006,6 hPa 0,0 l/m² 3,3 km/h (1 Bft) O-NO 62 ° 0 min 0 W/m² 11,7 °C 13,0 °C 4,8 km/h (1 Bft)
21.09.2023 03:15 23,4 °C 12,9 °C 61 % 91 % 1006,6 hPa 0,0 l/m² 1,9 km/h (1 Bft) O-NO 62 ° 0 min 0 W/m² 11,5 °C 12,9 °C 3,2 km/h (1 Bft)
21.09.2023 03:17 23,4 °C 12,9 °C 61 % 91 % 1006,7 hPa 0,0 l/m² 3,2 km/h (1 Bft) O-NO 62 ° 0 min 0 W/m² 11,5 °C 12,9 °C 4,8 km/h (1 Bft)
21.09.2023 03:19 23,4 °C 12,8 °C 61 % 91 % 1006,6 hPa 0,0 l/m² 1,8 km/h (1 Bft) O-NO 62 ° 0 min 0 W/m² 11,4 °C 12,8 °C 3,2 km/h (1 Bft)
21.09.2023 03:20 23,4 °C 12,8 °C 61 % 91 % 1006,6 hPa 0,0 l/m² 1,4 km/h (1 Bft) O-NO 62 ° 0 min 0 W/m² 11,4 °C 12,8 °C 3,2 km/h (1 Bft)
21.09.2023 03:22 23,4 °C 12,9 °C 61 % 91 % 1006,6 hPa 0,0 l/m² 1,0 km/h (0 Bft) O-NO 62 ° 0 min 0 W/m² 11,5 °C 12,9 °C 4,8 km/h (1 Bft)
21.09.2023 03:23 23,4 °C 12,9 °C 61 % 91 % 1006,6 hPa 0,0 l/m² 0,1 km/h (0 Bft) O-NO 62 ° 0 min 0 W/m² 11,5 °C 12,9 °C 1,6 km/h (1 Bft)
21.09.2023 03:25 23,4 °C 12,9 °C 61 % 91 % 1006,6 hPa 0,0 l/m² 2,0 km/h (1 Bft) O-NO 62 ° 0 min 0 W/m² 11,5 °C 12,9 °C 4,8 km/h (1 Bft)
21.09.2023 03:27 23,4 °C 12,9 °C 61 % 91 % 1006,5 hPa 0,0 l/m² 2,9 km/h (1 Bft) O-NO 62 ° 0 min 0 W/m² 11,5 °C 12,9 °C 4,8 km/h (1 Bft)
21.09.2023 03:29 23,4 °C 12,9 °C 61 % 91 % 1006,6 hPa 0,0 l/m² 0,8 km/h (0 Bft) O-NO 62 ° 0 min 0 W/m² 11,5 °C 12,9 °C 3,2 km/h (1 Bft)
21.09.2023 03:30 23,4 °C 12,9 °C 61 % 91 % 1006,6 hPa 0,0 l/m² 0,0 km/h (0 Bft) O-NO 62 ° 0 min 0 W/m² 11,5 °C 12,9 °C 0,0 km/h (0 Bft)
21.09.2023 03:32 23,4 °C 12,9 °C 61 % 92 % 1006,5 hPa 0,0 l/m² 0,3 km/h (0 Bft) O-NO 62 ° 0 min 0 W/m² 11,6 °C 12,9 °C 3,2 km/h (1 Bft)
21.09.2023 03:33 23,4 °C 12,9 °C 61 % 91 % 1006,5 hPa 0,0 l/m² 0,3 km/h (0 Bft) O-NO 62 ° 0 min 0 W/m² 11,5 °C 12,9 °C 1,6 km/h (1 Bft)
21.09.2023 03:35 23,4 °C 12,9 °C 61 % 91 % 1006,5 hPa 0,0 l/m² 0,2 km/h (0 Bft) O-NO 62 ° 0 min 0 W/m² 11,5 °C 12,9 °C 1,6 km/h (1 Bft)
21.09.2023 03:37 23,4 °C 12,9 °C 61 % 92 % 1006,5 hPa 0,0 l/m² 0,5 km/h (0 Bft) O-NO 62 ° 0 min 0 W/m² 11,6 °C 12,9 °C 3,2 km/h (1 Bft)
21.09.2023 03:39 23,4 °C 12,9 °C 61 % 91 % 1006,4 hPa 0,0 l/m² 1,6 km/h (1 Bft) O-NO 62 ° 0 min 0 W/m² 11,5 °C 12,9 °C 3,2 km/h (1 Bft)
21.09.2023 03:40 23,4 °C 12,9 °C 61 % 91 % 1006,5 hPa 0,0 l/m² 2,1 km/h (1 Bft) O-NO 62 ° 0 min 0 W/m² 11,5 °C 12,9 °C 4,8 km/h (1 Bft)
21.09.2023 03:42 23,4 °C 12,8 °C 61 % 91 % 1006,5 hPa 0,0 l/m² 2,4 km/h (1 Bft) O-NO 62 ° 0 min 0 W/m² 11,4 °C 12,8 °C 4,8 km/h (1 Bft)
21.09.2023 03:43 23,4 °C 12,7 °C 61 % 91 % 1006,4 hPa 0,0 l/m² 2,8 km/h (1 Bft) O-NO 62 ° 0 min 0 W/m² 11,3 °C 12,7 °C 4,8 km/h (1 Bft)
21.09.2023 03:45 23,4 °C 12,7 °C 61 % 91 % 1006,5 hPa 0,0 l/m² 2,1 km/h (1 Bft) O-NO 62 ° 0 min 0 W/m² 11,3 °C 12,7 °C 4,8 km/h (1 Bft)
21.09.2023 03:47 23,4 °C 12,6 °C 61 % 92 % 1006,4 hPa 0,0 l/m² 2,0 km/h (1 Bft) O-NO 62 ° 0 min 0 W/m² 11,3 °C 12,6 °C 4,8 km/h (1 Bft)
21.09.2023 03:48 23,4 °C 12,6 °C 61 % 92 % 1006,4 hPa 0,0 l/m² 2,0 km/h (1 Bft) O-NO 62 ° 0 min 0 W/m² 11,3 °C 12,6 °C 3,2 km/h (1 Bft)
21.09.2023 03:50 23,4 °C 12,6 °C 61 % 91 % 1006,4 hPa 0,0 l/m² 1,9 km/h (1 Bft) O-NO 62 ° 0 min 0 W/m² 11,2 °C 12,6 °C 3,2 km/h (1 Bft)
21.09.2023 03:51 23,4 °C 12,6 °C 61 % 92 % 1006,4 hPa 0,0 l/m² 1,5 km/h (1 Bft) O-NO 62 ° 0 min 0 W/m² 11,3 °C 12,6 °C 3,2 km/h (1 Bft)
21.09.2023 03:52 23,4 °C 12,6 °C 61 % 92 % 1006,4 hPa 0,0 l/m² 2,3 km/h (1 Bft) O-NO 62 ° 0 min 0 W/m² 11,3 °C 12,6 °C 3,2 km/h (1 Bft)
21.09.2023 03:54 23,4 °C 12,6 °C 61 % 92 % 1006,4 hPa 0,0 l/m² 2,0 km/h (1 Bft) O-NO 62 ° 0 min 0 W/m² 11,3 °C 12,6 °C 3,2 km/h (1 Bft)
21.09.2023 03:56 23,4 °C 12,6 °C 61 % 92 % 1006,4 hPa 0,0 l/m² 1,2 km/h (1 Bft) O-NO 62 ° 0 min 0 W/m² 11,3 °C 12,6 °C 3,2 km/h (1 Bft)
21.09.2023 03:58 23,4 °C 12,5 °C 61 % 92 % 1006,4 hPa 0,0 l/m² 2,2 km/h (1 Bft) O-NO 62 ° 0 min 0 W/m² 11,2 °C 12,5 °C 4,8 km/h (1 Bft)
21.09.2023 04:00 23,4 °C 12,4 °C 61 % 92 % 1006,3 hPa 0,0 l/m² 3,6 km/h (1 Bft) O-NO 62 ° 0 min 0 W/m² 11,1 °C 12,4 °C 4,8 km/h (1 Bft)
21.09.2023 04:01 23,4 °C 12,4 °C 61 % 92 % 1006,4 hPa 0,0 l/m² 3,0 km/h (1 Bft) O-NO 62 ° 0 min 0 W/m² 11,1 °C 12,4 °C 6,4 km/h (2 Bft)
21.09.2023 04:02 23,4 °C 12,4 °C 61 % 92 % 1006,3 hPa 0,0 l/m² 3,3 km/h (1 Bft) O-NO 62 ° 0 min 0 W/m² 11,1 °C 12,4 °C 4,8 km/h (1 Bft)
21.09.2023 04:03 23,4 °C 12,4 °C 61 % 92 % 1006,3 hPa 0,0 l/m² 2,5 km/h (1 Bft) O-NO 62 ° 0 min 0 W/m² 11,1 °C 12,4 °C 3,2 km/h (1 Bft)
21.09.2023 04:04 23,4 °C 12,4 °C 61 % 92 % 1006,3 hPa 0,0 l/m² 3,1 km/h (1 Bft) O-NO 62 ° 0 min 0 W/m² 11,1 °C 12,4 °C 4,8 km/h (1 Bft)
21.09.2023 04:05 23,4 °C 12,4 °C 61 % 92 % 1006,3 hPa 0,0 l/m² 3,6 km/h (1 Bft) O-NO 62 ° 0 min 0 W/m² 11,1 °C 12,4 °C 4,8 km/h (1 Bft)
21.09.2023 04:07 23,4 °C 12,4 °C 61 % 92 % 1006,2 hPa 0,0 l/m² 3,1 km/h (1 Bft) O-NO 62 ° 0 min 0 W/m² 11,1 °C 12,4 °C 4,8 km/h (1 Bft)
21.09.2023 04:09 23,4 °C 12,4 °C 61 % 92 % 1006,3 hPa 0,0 l/m² 2,7 km/h (1 Bft) O-NO 62 ° 0 min 0 W/m² 11,1 °C 12,4 °C 4,8 km/h (1 Bft)
21.09.2023 04:10 23,4 °C 12,4 °C 61 % 92 % 1006,3 hPa 0,0 l/m² 2,6 km/h (1 Bft) O-NO 62 ° 0 min 0 W/m² 11,1 °C 12,4 °C 4,8 km/h (1 Bft)
21.09.2023 04:12 23,4 °C 12,4 °C 61 % 92 % 1006,3 hPa 0,0 l/m² 1,5 km/h (1 Bft) O-NO 62 ° 0 min 0 W/m² 11,1 °C 12,4 °C 4,8 km/h (1 Bft)
21.09.2023 04:13 23,4 °C 12,4 °C 61 % 92 % 1006,3 hPa 0,0 l/m² 0,5 km/h (0 Bft) O-NO 62 ° 0 min 0 W/m² 11,1 °C 12,4 °C 3,2 km/h (1 Bft)
21.09.2023 04:15 23,4 °C 12,4 °C 61 % 92 % 1006,2 hPa 0,0 l/m² 0,5 km/h (0 Bft) O-NO 62 ° 0 min 0 W/m² 11,1 °C 12,4 °C 3,2 km/h (1 Bft)
21.09.2023 04:17 23,4 °C 12,5 °C 61 % 92 % 1006,2 hPa 0,0 l/m² 1,1 km/h (1 Bft) O-NO 62 ° 0 min 0 W/m² 11,2 °C 12,5 °C 3,2 km/h (1 Bft)
21.09.2023 04:19 23,4 °C 12,5 °C 61 % 92 % 1006,2 hPa 0,0 l/m² 1,1 km/h (1 Bft) O-NO 62 ° 0 min 0 W/m² 11,2 °C 12,5 °C 3,2 km/h (1 Bft)
21.09.2023 04:21 23,4 °C 12,5 °C 61 % 92 % 1006,2 hPa 0,0 l/m² 3,1 km/h (1 Bft) O-NO 62 ° 0 min 0 W/m² 11,2 °C 12,5 °C 4,8 km/h (1 Bft)
21.09.2023 04:22 23,4 °C 12,5 °C 61 % 92 % 1006,2 hPa 0,0 l/m² 5,0 km/h (1 Bft) O-NO 62 ° 0 min 0 W/m² 11,2 °C 12,5 °C 6,4 km/h (2 Bft)
21.09.2023 04:23 23,4 °C 12,5 °C 61 % 92 % 1006,2 hPa 0,0 l/m² 5,2 km/h (1 Bft) O-NO 72 ° 0 min 0 W/m² 11,2 °C 12,5 °C 6,4 km/h (2 Bft)
21.09.2023 04:25 23,4 °C 12,5 °C 61 % 92 % 1006,1 hPa 0,0 l/m² 4,6 km/h (1 Bft) O-NO 75 ° 0 min 0 W/m² 11,2 °C 12,5 °C 8,0 km/h (2 Bft)
21.09.2023 04:27 23,4 °C 12,6 °C 61 % 92 % 1006,0 hPa 0,0 l/m² 4,4 km/h (1 Bft) O-NO 76 ° 0 min 0 W/m² 11,3 °C 12,6 °C 6,4 km/h (2 Bft)
21.09.2023 04:29 23,4 °C 12,6 °C 61 % 92 % 1006,2 hPa 0,0 l/m² 4,6 km/h (1 Bft) O-NO 76 ° 0 min 0 W/m² 11,3 °C 12,6 °C 6,4 km/h (2 Bft)
21.09.2023 04:31 23,3 °C 12,6 °C 61 % 92 % 1006,1 hPa 0,0 l/m² 3,7 km/h (1 Bft) O-NO 76 ° 0 min 0 W/m² 11,3 °C 12,6 °C 6,4 km/h (2 Bft)
21.09.2023 04:32 23,4 °C 12,6 °C 61 % 92 % 1006,1 hPa 0,0 l/m² 4,9 km/h (1 Bft) O-NO 76 ° 0 min 0 W/m² 11,3 °C 12,6 °C 6,4 km/h (2 Bft)
21.09.2023 04:33 23,4 °C 12,6 °C 61 % 92 % 1006,0 hPa 0,0 l/m² 2,8 km/h (1 Bft) O-NO 76 ° 0 min 0 W/m² 11,3 °C 12,6 °C 4,8 km/h (1 Bft)
21.09.2023 04:35 23,4 °C 12,6 °C 61 % 92 % 1006,1 hPa 0,0 l/m² 4,8 km/h (1 Bft) O-NO 71 ° 0 min 0 W/m² 11,3 °C 12,6 °C 6,4 km/h (2 Bft)
21.09.2023 04:37 23,4 °C 12,6 °C 61 % 92 % 1006,0 hPa 0,0 l/m² 7,2 km/h (2 Bft) O-NO 77 ° 0 min 0 W/m² 11,3 °C 12,1 °C 11,3 km/h (2 Bft)
21.09.2023 04:39 23,3 °C 12,6 °C 61 % 92 % 1006,0 hPa 0,0 l/m² 7,6 km/h (2 Bft) O-NO 78 ° 0 min 0 W/m² 11,3 °C 11,8 °C 11,3 km/h (2 Bft)
21.09.2023 04:41 23,4 °C 12,7 °C 61 % 92 % 1006,0 hPa 0,0 l/m² 7,8 km/h (2 Bft) O-NO 78 ° 0 min 0 W/m² 11,4 °C 11,8 °C 11,3 km/h (2 Bft)
21.09.2023 04:42 23,3 °C 12,7 °C 61 % 92 % 1006,0 hPa 0,0 l/m² 7,0 km/h (2 Bft) O-NO 77 ° 0 min 0 W/m² 11,4 °C 12,3 °C 8,0 km/h (2 Bft)
21.09.2023 04:43 23,3 °C 12,7 °C 61 % 92 % 1006,0 hPa 0,0 l/m² 6,4 km/h (2 Bft) O-NO 77 ° 0 min 0 W/m² 11,4 °C 12,7 °C 8,0 km/h (2 Bft)
21.09.2023 04:45 23,3 °C 12,7 °C 61 % 92 % 1006,0 hPa 0,0 l/m² 5,0 km/h (1 Bft) O-NO 75 ° 0 min 0 W/m² 11,4 °C 12,7 °C 8,0 km/h (2 Bft)
21.09.2023 04:47 23,3 °C 12,7 °C 61 % 93 % 1006,0 hPa 0,0 l/m² 4,5 km/h (1 Bft) O-NO 72 ° 0 min 0 W/m² 11,6 °C 12,7 °C 6,4 km/h (2 Bft)
21.09.2023 04:49 23,3 °C 12,8 °C 61 % 93 % 1006,0 hPa 0,0 l/m² 4,3 km/h (1 Bft) O-NO 71 ° 0 min 0 W/m² 11,7 °C 12,8 °C 8,0 km/h (2 Bft)
21.09.2023 04:51 23,4 °C 12,8 °C 61 % 93 % 1006,1 hPa 0,0 l/m² 6,3 km/h (2 Bft) O-NO 74 ° 0 min 0 W/m² 11,7 °C 12,8 °C 11,3 km/h (2 Bft)
21.09.2023 04:52 23,3 °C 12,8 °C 61 % 92 % 1006,0 hPa 0,0 l/m² 6,4 km/h (2 Bft) O-NO 74 ° 0 min 0 W/m² 11,5 °C 12,8 °C 8,0 km/h (2 Bft)
21.09.2023 04:53 23,3 °C 12,8 °C 61 % 93 % 1006,0 hPa 0,0 l/m² 6,1 km/h (2 Bft) O-NO 75 ° 0 min 0 W/m² 11,7 °C 12,8 °C 8,0 km/h (2 Bft)
21.09.2023 04:55 23,3 °C 12,8 °C 61 % 93 % 1006,0 hPa 0,0 l/m² 4,2 km/h (1 Bft) O-NO 75 ° 0 min 0 W/m² 11,7 °C 12,8 °C 6,4 km/h (2 Bft)
21.09.2023 04:57 23,3 °C 12,7 °C 61 % 92 % 1006,0 hPa 0,0 l/m² 5,2 km/h (1 Bft) O-NO 75 ° 0 min 0 W/m² 11,4 °C 12,7 °C 8,0 km/h (2 Bft)
21.09.2023 04:59 23,4 °C 12,7 °C 61 % 92 % 1005,8 hPa 0,0 l/m² 4,9 km/h (1 Bft) O-NO 75 ° 0 min 0 W/m² 11,4 °C 12,7 °C 8,0 km/h (2 Bft)
21.09.2023 05:01 23,3 °C 12,7 °C 61 % 92 % 1005,8 hPa 0,0 l/m² 5,1 km/h (1 Bft) O-NO 75 ° 0 min 0 W/m² 11,4 °C 12,7 °C 6,4 km/h (2 Bft)
21.09.2023 05:02 23,3 °C 12,7 °C 61 % 92 % 1005,9 hPa 0,0 l/m² 5,5 km/h (2 Bft) O-NO 75 ° 0 min 0 W/m² 11,4 °C 12,7 °C 6,4 km/h (2 Bft)
21.09.2023 05:03 23,3 °C 12,6 °C 61 % 92 % 1005,9 hPa 0,0 l/m² 5,1 km/h (1 Bft) O-NO 75 ° 0 min 0 W/m² 11,3 °C 12,6 °C 6,4 km/h (2 Bft)
21.09.2023 05:04 23,3 °C 12,6 °C 61 % 92 % 1006,0 hPa 0,0 l/m² 4,8 km/h (1 Bft) O-NO 75 ° 0 min 0 W/m² 11,3 °C 12,6 °C 6,4 km/h (2 Bft)
21.09.2023 05:05 23,3 °C 12,6 °C 61 % 92 % 1006,0 hPa 0,0 l/m² 4,7 km/h (1 Bft) O-NO 75 ° 0 min 0 W/m² 11,3 °C 12,6 °C 6,4 km/h (2 Bft)
21.09.2023 05:07 23,3 °C 12,6 °C 61 % 92 % 1006,0 hPa 0,0 l/m² 5,2 km/h (1 Bft) O-NO 75 ° 0 min 0 W/m² 11,3 °C 12,6 °C 6,4 km/h (2 Bft)
21.09.2023 05:09 23,3 °C 12,5 °C 61 % 93 % 1005,9 hPa 0,0 l/m² 4,8 km/h (1 Bft) O-NO 75 ° 0 min 0 W/m² 11,4 °C 12,5 °C 6,4 km/h (2 Bft)
21.09.2023 05:11 23,3 °C 12,5 °C 61 % 93 % 1005,9 hPa 0,0 l/m² 3,6 km/h (1 Bft) O-NO 75 ° 0 min 0 W/m² 11,4 °C 12,5 °C 6,4 km/h (2 Bft)
21.09.2023 05:12 23,3 °C 12,5 °C 61 % 93 % 1005,9 hPa 0,0 l/m² 2,9 km/h (1 Bft) O-NO 75 ° 0 min 0 W/m² 11,4 °C 12,5 °C 4,8 km/h (1 Bft)
21.09.2023 05:13 23,3 °C 12,4 °C 61 % 93 % 1005,9 hPa 0,0 l/m² 2,4 km/h (1 Bft) O-NO 75 ° 0 min 0 W/m² 11,3 °C 12,4 °C 4,8 km/h (1 Bft)
21.09.2023 05:15 23,3 °C 12,4 °C 61 % 93 % 1005,9 hPa 0,0 l/m² 4,9 km/h (1 Bft) O-NO 75 ° 0 min 0 W/m² 11,3 °C 12,4 °C 6,4 km/h (2 Bft)
21.09.2023 05:17 23,3 °C 12,4 °C 61 % 93 % 1005,9 hPa 0,0 l/m² 4,3 km/h (1 Bft) O-NO 75 ° 0 min 0 W/m² 11,3 °C 12,4 °C 6,4 km/h (2 Bft)
21.09.2023 05:19 23,3 °C 12,4 °C 61 % 93 % 1006,0 hPa 0,0 l/m² 1,5 km/h (1 Bft) O-NO 75 ° 0 min 0 W/m² 11,3 °C 12,4 °C 3,2 km/h (1 Bft)
21.09.2023 05:21 23,3 °C 12,4 °C 61 % 93 % 1005,9 hPa 0,0 l/m² 0,3 km/h (0 Bft) O-NO 75 ° 0 min 0 W/m² 11,3 °C 12,4 °C 1,6 km/h (1 Bft)
21.09.2023 05:22 23,3 °C 12,4 °C 61 % 93 % 1005,9 hPa 0,0 l/m² 0,0 km/h (0 Bft) O-NO 75 ° 0 min 0 W/m² 11,3 °C 12,4 °C 0,0 km/h (0 Bft)
21.09.2023 05:23 23,3 °C 12,4 °C 61 % 93 % 1005,9 hPa 0,0 l/m² 0,0 km/h (0 Bft) O-NO 75 ° 0 min 0 W/m² 11,3 °C 12,4 °C 0,0 km/h (0 Bft)
21.09.2023 05:25 23,3 °C 12,4 °C 61 % 93 % 1005,9 hPa 0,0 l/m² 0,0 km/h (0 Bft) O-NO 75 ° 0 min 0 W/m² 11,3 °C 12,4 °C 0,0 km/h (0 Bft)
21.09.2023 05:27 23,3 °C 12,5 °C 61 % 93 % 1005,8 hPa 0,0 l/m² 0,5 km/h (0 Bft) O-NO 75 ° 0 min 0 W/m² 11,4 °C 12,5 °C 4,8 km/h (1 Bft)
21.09.2023 05:29 23,3 °C 12,5 °C 61 % 93 % 1005,8 hPa 0,0 l/m² 2,4 km/h (1 Bft) O-NO 75 ° 0 min 0 W/m² 11,4 °C 12,5 °C 4,8 km/h (1 Bft)
21.09.2023 05:31 23,3 °C 12,4 °C 61 % 93 % 1005,8 hPa 0,0 l/m² 3,4 km/h (1 Bft) O-NO 75 ° 0 min 0 W/m² 11,3 °C 12,4 °C 4,8 km/h (1 Bft)
21.09.2023 05:32 23,3 °C 12,4 °C 61 % 93 % 1005,8 hPa 0,0 l/m² 3,2 km/h (1 Bft) O-NO 75 ° 0 min 0 W/m² 11,3 °C 12,4 °C 4,8 km/h (1 Bft)
21.09.2023 05:33 23,3 °C 12,4 °C 61 % 93 % 1005,8 hPa 0,0 l/m² 2,7 km/h (1 Bft) O-NO 75 ° 0 min 0 W/m² 11,3 °C 12,4 °C 3,2 km/h (1 Bft)
21.09.2023 05:35 23,3 °C 12,3 °C 61 % 93 % 1005,7 hPa 0,0 l/m² 3,9 km/h (1 Bft) O-NO 75 ° 0 min 0 W/m² 11,2 °C 12,3 °C 4,8 km/h (1 Bft)
21.09.2023 05:36 23,3 °C 12,3 °C 61 % 93 % 1005,8 hPa 0,0 l/m² 3,4 km/h (1 Bft) O-NO 75 ° 0 min 0 W/m² 11,2 °C 12,3 °C 4,8 km/h (1 Bft)
21.09.2023 05:37 23,3 °C 12,2 °C 61 % 93 % 1005,7 hPa 0,0 l/m² 2,6 km/h (1 Bft) O-NO 75 ° 0 min 0 W/m² 11,1 °C 12,2 °C 3,2 km/h (1 Bft)
21.09.2023 05:38 23,3 °C 12,2 °C 61 % 93 % 1005,7 hPa 0,0 l/m² 2,8 km/h (1 Bft) O-NO 75 ° 0 min 0 W/m² 11,1 °C 12,2 °C 4,8 km/h (1 Bft)
21.09.2023 05:39 23,3 °C 12,2 °C 61 % 93 % 1005,8 hPa 0,0 l/m² 0,8 km/h (0 Bft) O-NO 75 ° 0 min 0 W/m² 11,1 °C 12,2 °C 1,6 km/h (1 Bft)
21.09.2023 05:40 23,3 °C 12,1 °C 61 % 93 % 1005,8 hPa 0,0 l/m² 1,5 km/h (1 Bft) O-NO 75 ° 0 min 0 W/m² 11,0 °C 12,1 °C 3,2 km/h (1 Bft)
21.09.2023 05:41 23,3 °C 12,1 °C 61 % 93 % 1005,7 hPa 0,0 l/m² 1,5 km/h (1 Bft) O-NO 75 ° 0 min 0 W/m² 11,0 °C 12,1 °C 3,2 km/h (1 Bft)
21.09.2023 05:43 23,3 °C 12,1 °C 61 % 93 % 1005,7 hPa 0,0 l/m² 1,8 km/h (1 Bft) O-NO 75 ° 0 min 0 W/m² 11,0 °C 12,1 °C 3,2 km/h (1 Bft)
21.09.2023 05:44 23,3 °C 12,1 °C 61 % 93 % 1005,7 hPa 0,0 l/m² 2,3 km/h (1 Bft) O-NO 75 ° 0 min 0 W/m² 11,0 °C 12,1 °C 4,8 km/h (1 Bft)
21.09.2023 05:45 23,3 °C 12,1 °C 61 % 93 % 1005,7 hPa 0,0 l/m² 3,4 km/h (1 Bft) O-NO 75 ° 0 min 0 W/m² 11,0 °C 12,1 °C 4,8 km/h (1 Bft)
21.09.2023 05:46 23,3 °C 12,1 °C 61 % 93 % 1005,7 hPa 0,0 l/m² 3,8 km/h (1 Bft) O-NO 75 ° 0 min 0 W/m² 11,0 °C 12,1 °C 4,8 km/h (1 Bft)
21.09.2023 05:47 23,3 °C 12,1 °C 61 % 93 % 1005,6 hPa 0,0 l/m² 4,3 km/h (1 Bft) O-NO 75 ° 0 min 0 W/m² 11,0 °C 12,1 °C 4,8 km/h (1 Bft)
21.09.2023 05:48 23,3 °C 12,1 °C 61 % 93 % 1005,6 hPa 0,0 l/m² 4,2 km/h (1 Bft) O-NO 75 ° 0 min 0 W/m² 11,0 °C 12,1 °C 4,8 km/h (1 Bft)
21.09.2023 05:49 23,3 °C 12,1 °C 61 % 93 % 1005,6 hPa 0,0 l/m² 4,3 km/h (1 Bft) O-NO 75 ° 0 min 0 W/m² 11,0 °C 12,1 °C 4,8 km/h (1 Bft)
21.09.2023 05:50 23,3 °C 12,1 °C 61 % 93 % 1005,6 hPa 0,0 l/m² 3,7 km/h (1 Bft) O-NO 75 ° 0 min 0 W/m² 11,0 °C 12,1 °C 4,8 km/h (1 Bft)
21.09.2023 05:51 23,3 °C 12,1 °C 61 % 93 % 1005,6 hPa 0,0 l/m² 4,4 km/h (1 Bft) O-NO 75 ° 0 min 0 W/m² 11,0 °C 12,1 °C 4,8 km/h (1 Bft)
21.09.2023 05:53 23,3 °C 12,0 °C 61 % 93 % 1005,6 hPa 0,0 l/m² 3,3 km/h (1 Bft) O-NO 75 ° 0 min 0 W/m² 10,9 °C 12,0 °C 4,8 km/h (1 Bft)
21.09.2023 05:54 23,3 °C 12,0 °C 61 % 93 % 1005,5 hPa 0,0 l/m² 3,7 km/h (1 Bft) O-NO 75 ° 0 min 0 W/m² 10,9 °C 12,0 °C 4,8 km/h (1 Bft)
21.09.2023 05:55 23,3 °C 11,9 °C 61 % 93 % 1005,5 hPa 0,0 l/m² 3,8 km/h (1 Bft) O-NO 75 ° 0 min 0 W/m² 10,8 °C 11,9 °C 4,8 km/h (1 Bft)
21.09.2023 05:56 23,3 °C 11,9 °C 61 % 93 % 1005,5 hPa 0,0 l/m² 4,1 km/h (1 Bft) O-NO 75 ° 0 min 0 W/m² 10,8 °C 11,9 °C 4,8 km/h (1 Bft)
21.09.2023 05:57 23,3 °C 11,9 °C 61 % 93 % 1005,5 hPa 0,0 l/m² 4,5 km/h (1 Bft) O-NO 75 ° 0 min 0 W/m² 10,8 °C 11,9 °C 6,4 km/h (2 Bft)
21.09.2023 05:58 23,3 °C 11,9 °C 61 % 93 % 1005,5 hPa 0,0 l/m² 4,0 km/h (1 Bft) O-NO 75 ° 0 min 0 W/m² 10,8 °C 11,9 °C 4,8 km/h (1 Bft)
21.09.2023 05:59 23,3 °C 11,9 °C 61 % 93 % 1005,5 hPa 0,0 l/m² 4,1 km/h (1 Bft) O-NO 75 ° 0 min 0 W/m² 10,8 °C 11,9 °C 4,8 km/h (1 Bft)
21.09.2023 06:00 23,3 °C 11,9 °C 61 % 93 % 1005,5 hPa 0,0 l/m² 4,7 km/h (1 Bft) O-NO 75 ° 0 min 0 W/m² 10,8 °C 11,9 °C 6,4 km/h (2 Bft)
21.09.2023 06:01 23,3 °C 11,9 °C 61 % 93 % 1005,4 hPa 0,0 l/m² 4,1 km/h (1 Bft) O-NO 75 ° 0 min 0 W/m² 10,8 °C 11,9 °C 4,8 km/h (1 Bft)
21.09.2023 06:02 23,3 °C 11,9 °C 61 % 93 % 1005,5 hPa 0,0 l/m² 3,4 km/h (1 Bft) O-NO 75 ° 0 min 0 W/m² 10,8 °C 11,9 °C 4,8 km/h (1 Bft)
21.09.2023 06:03 23,3 °C 11,9 °C 61 % 93 % 1005,5 hPa 0,0 l/m² 3,6 km/h (1 Bft) O-NO 75 ° 0 min 0 W/m² 10,8 °C 11,9 °C 4,8 km/h (1 Bft)
21.09.2023 06:04 23,3 °C 11,9 °C 61 % 93 % 1005,5 hPa 0,0 l/m² 3,1 km/h (1 Bft) O-NO 75 ° 0 min 0 W/m² 10,8 °C 11,9 °C 3,2 km/h (1 Bft)
21.09.2023 06:05 23,3 °C 11,8 °C 61 % 93 % 1005,5 hPa 0,0 l/m² 2,4 km/h (1 Bft) O-NO 75 ° 0 min 0 W/m² 10,7 °C 11,8 °C 3,2 km/h (1 Bft)
21.09.2023 06:06 23,3 °C 11,8 °C 61 % 93 % 1005,5 hPa 0,0 l/m² 1,8 km/h (1 Bft) O-NO 75 ° 0 min 0 W/m² 10,7 °C 11,8 °C 3,2 km/h (1 Bft)
21.09.2023 06:07 23,3 °C 11,8 °C 61 % 93 % 1005,5 hPa 0,0 l/m² 0,7 km/h (0 Bft) O-NO 75 ° 0 min 0 W/m² 10,7 °C 11,8 °C 1,6 km/h (1 Bft)
21.09.2023 06:08 23,3 °C 11,8 °C 61 % 93 % 1005,4 hPa 0,0 l/m² 0,0 km/h (0 Bft) O-NO 75 ° 0 min 0 W/m² 10,7 °C 11,8 °C 0,0 km/h (0 Bft)
21.09.2023 06:09 23,3 °C 11,8 °C 61 % 93 % 1005,4 hPa 0,0 l/m² 0,0 km/h (0 Bft) O-NO 75 ° 0 min 0 W/m² 10,7 °C 11,8 °C 0,0 km/h (0 Bft)
21.09.2023 06:10 23,3 °C 11,8 °C 61 % 94 % 1005,4 hPa 0,0 l/m² 0,0 km/h (0 Bft) O-NO 75 ° 0 min 0 W/m² 10,9 °C 11,8 °C 0,0 km/h (0 Bft)
21.09.2023 06:11 23,3 °C 11,8 °C 61 % 94 % 1005,4 hPa 0,0 l/m² 0,0 km/h (0 Bft) O-NO 75 ° 0 min 0 W/m² 10,9 °C 11,8 °C 0,0 km/h (0 Bft)
21.09.2023 06:12 23,3 °C 11,9 °C 61 % 94 % 1005,4 hPa 0,0 l/m² 0,0 km/h (0 Bft) O-NO 75 ° 0 min 0 W/m² 11,0 °C 11,9 °C 0,0 km/h (0 Bft)
21.09.2023 06:13 23,3 °C 11,9 °C 61 % 94 % 1005,4 hPa 0,0 l/m² 0,0 km/h (0 Bft) O-NO 75 ° 0 min 0 W/m² 11,0 °C 11,9 °C 0,0 km/h (0 Bft)
21.09.2023 06:14 23,3 °C 11,9 °C 61 % 94 % 1005,4 hPa 0,0 l/m² 0,0 km/h (0 Bft) O-NO 75 ° 0 min 0 W/m² 11,0 °C 11,9 °C 0,0 km/h (0 Bft)
21.09.2023 06:15 23,3 °C 11,9 °C 61 % 94 % 1005,4 hPa 0,0 l/m² 0,0 km/h (0 Bft) O-NO 75 ° 0 min 0 W/m² 11,0 °C 11,9 °C 0,0 km/h (0 Bft)
21.09.2023 06:16 23,3 °C 11,9 °C 61 % 94 % 1005,4 hPa 0,0 l/m² 0,0 km/h (0 Bft) O-NO 75 ° 0 min 0 W/m² 11,0 °C 11,9 °C 0,0 km/h (0 Bft)
21.09.2023 06:17 23,3 °C 11,9 °C 61 % 94 % 1005,5 hPa 0,0 l/m² 0,0 km/h (0 Bft) O-NO 75 ° 0 min 0 W/m² 11,0 °C 11,9 °C 0,0 km/h (0 Bft)
21.09.2023 06:18 23,3 °C 11,9 °C 61 % 94 % 1005,4 hPa 0,0 l/m² 0,0 km/h (0 Bft) O-NO 75 ° 0 min 0 W/m² 11,0 °C 11,9 °C 0,0 km/h (0 Bft)
21.09.2023 06:19 23,3 °C 11,9 °C 61 % 94 % 1005,4 hPa 0,0 l/m² 0,0 km/h (0 Bft) O-NO 75 ° 0 min 0 W/m² 11,0 °C 11,9 °C 0,0 km/h (0 Bft)
21.09.2023 06:20 23,3 °C 11,9 °C 61 % 94 % 1005,4 hPa 0,0 l/m² 0,0 km/h (0 Bft) O-NO 75 ° 0 min 0 W/m² 11,0 °C 11,9 °C 0,0 km/h (0 Bft)
21.09.2023 06:21 23,3 °C 11,9 °C 61 % 94 % 1005,4 hPa 0,0 l/m² 0,0 km/h (0 Bft) O-NO 75 ° 0 min 0 W/m² 11,0 °C 11,9 °C 0,0 km/h (0 Bft)
21.09.2023 06:22 23,3 °C 11,9 °C 61 % 94 % 1005,5 hPa 0,0 l/m² 0,0 km/h (0 Bft) O-NO 75 ° 0 min 0 W/m² 11,0 °C 11,9 °C 0,0 km/h (0 Bft)
21.09.2023 06:23 23,3 °C 11,9 °C 61 % 94 % 1005,5 hPa 0,0 l/m² 0,0 km/h (0 Bft) O-NO 75 ° 0 min 0 W/m² 11,0 °C 11,9 °C 0,0 km/h (0 Bft)
21.09.2023 06:24 23,3 °C 11,9 °C 61 % 94 % 1005,4 hPa 0,0 l/m² 0,0 km/h (0 Bft) O-NO 75 ° 0 min 0 W/m² 11,0 °C 11,9 °C 0,0 km/h (0 Bft)
21.09.2023 06:25 23,3 °C 11,9 °C 61 % 94 % 1005,4 hPa 0,0 l/m² 0,0 km/h (0 Bft) O-NO 75 ° 0 min 0 W/m² 11,0 °C 11,9 °C 0,0 km/h (0 Bft)
21.09.2023 06:26 23,3 °C 11,9 °C 61 % 94 % 1005,4 hPa 0,0 l/m² 0,0 km/h (0 Bft) O-NO 75 ° 0 min 0 W/m² 11,0 °C 11,9 °C 0,0 km/h (0 Bft)
21.09.2023 06:27 23,3 °C 11,8 °C 61 % 94 % 1005,4 hPa 0,0 l/m² 0,0 km/h (0 Bft) O-NO 75 ° 0 min 0 W/m² 10,9 °C 11,8 °C 0,0 km/h (0 Bft)
21.09.2023 06:28 23,3 °C 11,8 °C 61 % 94 % 1005,4 hPa 0,0 l/m² 0,0 km/h (0 Bft) O-NO 75 ° 0 min 0 W/m² 10,9 °C 11,8 °C 0,0 km/h (0 Bft)
21.09.2023 06:29 23,3 °C 11,8 °C 61 % 94 % 1005,4 hPa 0,0 l/m² 0,0 km/h (0 Bft) O-NO 75 ° 0 min 0 W/m² 10,9 °C 11,8 °C 0,0 km/h (0 Bft)
21.09.2023 06:30 23,3 °C 11,8 °C 61 % 94 % 1005,3 hPa 0,0 l/m² 0,0 km/h (0 Bft) O-NO 75 ° 0 min 0 W/m² 10,9 °C 11,8 °C 0,0 km/h (0 Bft)
21.09.2023 06:31 23,3 °C 11,8 °C 61 % 94 % 1005,4 hPa 0,0 l/m² 0,0 km/h (0 Bft) O-NO 75 ° 0 min 0 W/m² 10,9 °C 11,8 °C 0,0 km/h (0 Bft)
21.09.2023 06:32 23,3 °C 11,8 °C 61 % 94 % 1005,4 hPa 0,0 l/m² 0,0 km/h (0 Bft) O-NO 75 ° 0 min 0 W/m² 10,9 °C 11,8 °C 0,0 km/h (0 Bft)
21.09.2023 06:33 23,3 °C 11,8 °C 61 % 94 % 1005,4 hPa 0,0 l/m² 0,0 km/h (0 Bft) O-NO 75 ° 0 min 0 W/m² 10,9 °C 11,8 °C 0,0 km/h (0 Bft)
21.09.2023 06:34 23,3 °C 11,8 °C 61 % 94 % 1005,4 hPa 0,0 l/m² 0,0 km/h (0 Bft) O-NO 75 ° 0 min 0 W/m² 10,9 °C 11,8 °C 0,0 km/h (0 Bft)
21.09.2023 06:35 23,3 °C 11,8 °C 61 % 94 % 1005,4 hPa 0,0 l/m² 0,0 km/h (0 Bft) O-NO 75 ° 0 min 0 W/m² 10,9 °C 11,8 °C 0,0 km/h (0 Bft)
21.09.2023 06:36 23,3 °C 11,8 °C 61 % 94 % 1005,3 hPa 0,0 l/m² 0,0 km/h (0 Bft) O-NO 75 ° 0 min 0 W/m² 10,9 °C 11,8 °C 0,0 km/h (0 Bft)
21.09.2023 06:37 23,3 °C 11,8 °C 61 % 94 % 1005,3 hPa 0,0 l/m² 0,0 km/h (0 Bft) O-NO 75 ° 0 min 0 W/m² 10,9 °C 11,8 °C 0,0 km/h (0 Bft)
21.09.2023 06:38 23,3 °C 11,8 °C 61 % 94 % 1005,3 hPa 0,0 l/m² 0,0 km/h (0 Bft) O-NO 75 ° 0 min 0 W/m² 10,9 °C 11,8 °C 0,0 km/h (0 Bft)
21.09.2023 06:39 23,3 °C 11,8 °C 61 % 94 % 1005,2 hPa 0,0 l/m² 0,0 km/h (0 Bft) O-NO 75 ° 0 min 0 W/m² 10,9 °C 11,8 °C 0,0 km/h (0 Bft)
21.09.2023 06:40 23,3 °C 11,7 °C 61 % 94 % 1005,2 hPa 0,0 l/m² 0,0 km/h (0 Bft) O-NO 75 ° 0 min 0 W/m² 10,8 °C 11,7 °C 0,0 km/h (0 Bft)
21.09.2023 06:41 23,2 °C 11,7 °C 60 % 94 % 1005,3 hPa 0,0 l/m² 0,0 km/h (0 Bft) O-NO 75 ° 0 min 0 W/m² 10,8 °C 11,7 °C 0,0 km/h (0 Bft)
21.09.2023 06:42 23,3 °C 11,6 °C 60 % 93 % 1005,3 hPa 0,0 l/m² 0,0 km/h (0 Bft) O-NO 75 ° 0 min 0 W/m² 10,5 °C 11,6 °C 0,0 km/h (0 Bft)
21.09.2023 06:43 23,3 °C 11,5 °C 60 % 94 % 1005,3 hPa 0,0 l/m² 0,0 km/h (0 Bft) O-NO 75 ° 0 min 0 W/m² 10,6 °C 11,5 °C 0,0 km/h (0 Bft)
21.09.2023 06:44 23,2 °C 11,5 °C 60 % 94 % 1005,2 hPa 0,0 l/m² 0,0 km/h (0 Bft) O-NO 75 ° 0 min 0 W/m² 10,6 °C 11,5 °C 0,0 km/h (0 Bft)
21.09.2023 06:46 23,2 °C 11,4 °C 60 % 94 % 1005,3 hPa 0,0 l/m² 0,0 km/h (0 Bft) O-NO 75 ° 0 min 0 W/m² 10,5 °C 11,4 °C 0,0 km/h (0 Bft)
21.09.2023 06:47 23,2 °C 11,4 °C 60 % 94 % 1005,3 hPa 0,0 l/m² 0,0 km/h (0 Bft) O-NO 75 ° 0 min 0 W/m² 10,5 °C 11,4 °C 0,0 km/h (0 Bft)
21.09.2023 06:48 23,2 °C 11,4 °C 60 % 94 % 1005,3 hPa 0,0 l/m² 0,0 km/h (0 Bft) O-NO 75 ° 0 min 0 W/m² 10,5 °C 11,4 °C 0,0 km/h (0 Bft)
21.09.2023 06:49 23,2 °C 11,4 °C 60 % 94 % 1005,3 hPa 0,0 l/m² 0,0 km/h (0 Bft) O-NO 75 ° 0 min 0 W/m² 10,5 °C 11,4 °C 0,0 km/h (0 Bft)
21.09.2023 06:50 23,2 °C 11,4 °C 60 % 94 % 1005,2 hPa 0,0 l/m² 0,0 km/h (0 Bft) O-NO 75 ° 0 min 0 W/m² 10,5 °C 11,4 °C 0,0 km/h (0 Bft)
21.09.2023 06:51 23,3 °C 11,4 °C 60 % 94 % 1005,3 hPa 0,0 l/m² 0,0 km/h (0 Bft) O-NO 75 ° 0 min 0 W/m² 10,5 °C 11,4 °C 0,0 km/h (0 Bft)
21.09.2023 06:52 23,2 °C 11,4 °C 60 % 94 % 1005,3 hPa 0,0 l/m² 0,0 km/h (0 Bft) O-NO 75 ° 0 min 0 W/m² 10,5 °C 11,4 °C 0,0 km/h (0 Bft)
21.09.2023 06:53 23,2 °C 11,4 °C 60 % 94 % 1005,2 hPa 0,0 l/m² 0,0 km/h (0 Bft) O-NO 75 ° 0 min 0 W/m² 10,5 °C 11,4 °C 0,0 km/h (0 Bft)
21.09.2023 06:54 23,2 °C 11,4 °C 60 % 94 % 1005,2 hPa 0,0 l/m² 0,0 km/h (0 Bft) O-NO 75 ° 0 min 0 W/m² 10,5 °C 11,4 °C 0,0 km/h (0 Bft)
21.09.2023 06:55 23,2 °C 11,5 °C 60 % 94 % 1005,3 hPa 0,0 l/m² 0,0 km/h (0 Bft) O-NO 75 ° 0 min 0 W/m² 10,6 °C 11,5 °C 0,0 km/h (0 Bft)
21.09.2023 06:56 23,2 °C 11,5 °C 60 % 94 % 1005,4 hPa 0,0 l/m² 0,0 km/h (0 Bft) O-NO 75 ° 0 min 0 W/m² 10,6 °C 11,5 °C 0,0 km/h (0 Bft)
21.09.2023 06:58 23,2 °C 11,4 °C 60 % 94 % 1005,3 hPa 0,0 l/m² 2,6 km/h (1 Bft) O-NO 75 ° 0 min 0 W/m² 10,5 °C 11,4 °C 4,8 km/h (1 Bft)
21.09.2023 06:59 23,2 °C 11,4 °C 60 % 94 % 1005,3 hPa 0,0 l/m² 3,0 km/h (1 Bft) O-NO 75 ° 0 min 5 W/m² 10,5 °C 11,4 °C 4,8 km/h (1 Bft)
21.09.2023 07:00 23,2 °C 11,4 °C 60 % 94 % 1005,4 hPa 0,0 l/m² 2,7 km/h (1 Bft) O-NO 75 ° 0 min 5 W/m² 10,5 °C 11,4 °C 3,2 km/h (1 Bft)
21.09.2023 07:02 23,2 °C 11,4 °C 60 % 94 % 1005,3 hPa 0,0 l/m² 0,6 km/h (0 Bft) O-NO 75 ° 0 min 5 W/m² 10,5 °C 11,4 °C 3,2 km/h (1 Bft)
21.09.2023 07:03 23,2 °C 11,4 °C 60 % 94 % 1005,3 hPa 0,0 l/m² 0,0 km/h (0 Bft) O-NO 75 ° 0 min 5 W/m² 10,5 °C 11,4 °C 0,0 km/h (0 Bft)
21.09.2023 07:04 23,2 °C 11,5 °C 59 % 94 % 1005,2 hPa 0,0 l/m² 0,0 km/h (0 Bft) O-NO 75 ° 0 min 5 W/m² 10,6 °C 11,5 °C 0,0 km/h (0 Bft)
21.09.2023 07:05 23,2 °C 11,5 °C 59 % 94 % 1005,3 hPa 0,0 l/m² 0,0 km/h (0 Bft) O-NO 75 ° 0 min 5 W/m² 10,6 °C 11,5 °C 0,0 km/h (0 Bft)
21.09.2023 07:07 23,2 °C 11,6 °C 59 % 94 % 1005,2 hPa 0,0 l/m² 0,0 km/h (0 Bft) O-NO 75 ° 0 min 5 W/m² 10,7 °C 11,6 °C 0,0 km/h (0 Bft)
21.09.2023 07:08 23,2 °C 11,6 °C 59 % 94 % 1005,2 hPa 0,0 l/m² 0,0 km/h (0 Bft) O-NO 75 ° 0 min 5 W/m² 10,7 °C 11,6 °C 0,0 km/h (0 Bft)
21.09.2023 07:09 23,2 °C 11,6 °C 59 % 94 % 1005,3 hPa 0,0 l/m² 0,0 km/h (0 Bft) O-NO 75 ° 0 min 5 W/m² 10,7 °C 11,6 °C 0,0 km/h (0 Bft)
21.09.2023 07:10 23,2 °C 11,6 °C 59 % 94 % 1005,3 hPa 0,0 l/m² 0,0 km/h (0 Bft) O-NO 75 ° 0 min 7 W/m² 10,7 °C 11,6 °C 0,0 km/h (0 Bft)
21.09.2023 07:11 23,2 °C 11,6 °C 59 % 94 % 1005,3 hPa 0,0 l/m² 0,1 km/h (0 Bft) O-NO 75 ° 0 min 7 W/m² 10,7 °C 11,6 °C 1,6 km/h (1 Bft)
21.09.2023 07:12 23,2 °C 11,6 °C 59 % 94 % 1005,3 hPa 0,0 l/m² 0,0 km/h (0 Bft) O-NO 75 ° 0 min 7 W/m² 10,7 °C 11,6 °C 0,0 km/h (0 Bft)
21.09.2023 07:13 23,2 °C 11,6 °C 59 % 94 % 1005,2 hPa 0,0 l/m² 0,0 km/h (0 Bft) O-NO 75 ° 0 min 7 W/m² 10,7 °C 11,6 °C 0,0 km/h (0 Bft)
21.09.2023 07:14 23,2 °C 11,6 °C 59 % 94 % 1005,3 hPa 0,0 l/m² 0,0 km/h (0 Bft) O-NO 75 ° 0 min 9 W/m² 10,7 °C 11,6 °C 0,0 km/h (0 Bft)
21.09.2023 07:15 23,2 °C 11,7 °C 59 % 94 % 1005,2 hPa 0,0 l/m² 0,0 km/h (0 Bft) O-NO 75 ° 0 min 9 W/m² 10,8 °C 11,7 °C 0,0 km/h (0 Bft)
21.09.2023 07:16 23,2 °C 11,7 °C 59 % 94 % 1005,2 hPa 0,0 l/m² 0,0 km/h (0 Bft) O-NO 75 ° 0 min 9 W/m² 10,8 °C 11,7 °C 0,0 km/h (0 Bft)
21.09.2023 07:17 23,2 °C 11,7 °C 59 % 95 % 1005,2 hPa 0,0 l/m² 0,0 km/h (0 Bft) O-NO 75 ° 0 min 11 W/m² 10,9 °C 11,7 °C 0,0 km/h (0 Bft)
21.09.2023 07:18 23,2 °C 11,7 °C 59 % 95 % 1005,1 hPa 0,0 l/m² 0,0 km/h (0 Bft) O-NO 75 ° 0 min 11 W/m² 10,9 °C 11,7 °C 0,0 km/h (0 Bft)
21.09.2023 07:19 23,2 °C 11,7 °C 59 % 95 % 1005,2 hPa 0,0 l/m² 0,0 km/h (0 Bft) O-NO 75 ° 0 min 12 W/m² 10,9 °C 11,7 °C 0,0 km/h (0 Bft)
21.09.2023 07:20 23,2 °C 11,8 °C 59 % 95 % 1005,3 hPa 0,0 l/m² 0,0 km/h (0 Bft) O-NO 75 ° 0 min 14 W/m² 11,0 °C 11,8 °C 0,0 km/h (0 Bft)
21.09.2023 07:21 23,2 °C 11,8 °C 59 % 95 % 1005,2 hPa 0,0 l/m² 0,0 km/h (0 Bft) O-NO 75 ° 0 min 16 W/m² 11,0 °C 11,8 °C 0,0 km/h (0 Bft)
21.09.2023 07:22 23,2 °C 11,8 °C 59 % 95 % 1005,2 hPa 0,0 l/m² 0,0 km/h (0 Bft) O-NO 75 ° 0 min 16 W/m² 11,0 °C 11,8 °C 0,0 km/h (0 Bft)
21.09.2023 07:23 23,2 °C 11,8 °C 59 % 95 % 1005,2 hPa 0,0 l/m² 0,0 km/h (0 Bft) O-NO 75 ° 0 min 18 W/m² 11,0 °C 11,8 °C 0,0 km/h (0 Bft)
21.09.2023 07:24 23,2 °C 11,8 °C 59 % 95 % 1005,2 hPa 0,0 l/m² 0,0 km/h (0 Bft) O-NO 75 ° 0 min 19 W/m² 11,0 °C 11,8 °C 0,0 km/h (0 Bft)
21.09.2023 07:25 23,2 °C 11,8 °C 59 % 95 % 1005,2 hPa 0,0 l/m² 0,0 km/h (0 Bft) O-NO 75 ° 0 min 19 W/m² 11,0 °C 11,8 °C 0,0 km/h (0 Bft)
21.09.2023 07:26 23,2 °C 11,8 °C 59 % 94 % 1005,2 hPa 0,0 l/m² 0,0 km/h (0 Bft) O-NO 75 ° 0 min 21 W/m² 10,9 °C 11,8 °C 0,0 km/h (0 Bft)
21.09.2023 07:27 23,2 °C 11,8 °C 59 % 94 % 1005,1 hPa 0,0 l/m² 0,0 km/h (0 Bft) O-NO 75 ° 0 min 21 W/m² 10,9 °C 11,8 °C 0,0 km/h (0 Bft)
21.09.2023 07:28 23,2 °C 11,8 °C 59 % 94 % 1005,3 hPa 0,0 l/m² 0,0 km/h (0 Bft) O-NO 75 ° 0 min 23 W/m² 10,9 °C 11,8 °C 0,0 km/h (0 Bft)
21.09.2023 07:29 23,2 °C 11,8 °C 59 % 94 % 1005,1 hPa 0,0 l/m² 0,0 km/h (0 Bft) O-NO 75 ° 0 min 26 W/m² 10,9 °C 11,8 °C 0,0 km/h (0 Bft)
21.09.2023 07:30 23,2 °C 11,8 °C 59 % 94 % 1005,2 hPa 0,0 l/m² 0,0 km/h (0 Bft) O-NO 75 ° 0 min 26 W/m² 10,9 °C 11,8 °C 0,0 km/h (0 Bft)
21.09.2023 07:31 23,2 °C 11,8 °C 59 % 95 % 1005,2 hPa 0,0 l/m² 0,0 km/h (0 Bft) O-NO 75 ° 0 min 28 W/m² 11,0 °C 11,8 °C 0,0 km/h (0 Bft)
21.09.2023 07:32 23,2 °C 11,8 °C 59 % 95 % 1005,2 hPa 0,0 l/m² 0,0 km/h (0 Bft) O-NO 75 ° 0 min 30 W/m² 11,0 °C 11,8 °C 0,0 km/h (0 Bft)
21.09.2023 07:33 23,2 °C 11,8 °C 59 % 95 % 1005,2 hPa 0,0 l/m² 0,0 km/h (0 Bft) O-NO 75 ° 0 min 32 W/m² 11,0 °C 11,8 °C 0,0 km/h (0 Bft)
21.09.2023 07:34 23,2 °C 11,8 °C 59 % 94 % 1005,1 hPa 0,0 l/m² 0,0 km/h (0 Bft) O-NO 75 ° 0 min 33 W/m² 10,9 °C 11,8 °C 0,0 km/h (0 Bft)
21.09.2023 07:35 23,2 °C 11,8 °C 59 % 94 % 1005,1 hPa 0,0 l/m² 0,0 km/h (0 Bft) O-NO 75 ° 0 min 39 W/m² 10,9 °C 11,8 °C 0,0 km/h (0 Bft)
21.09.2023 07:36 23,2 °C 11,8 °C 59 % 94 % 1005,1 hPa 0,0 l/m² 0,0 km/h (0 Bft) O-NO 75 ° 0 min 40 W/m² 10,9 °C 11,8 °C 0,0 km/h (0 Bft)
21.09.2023 07:37 23,2 °C 11,8 °C 59 % 95 % 1005,1 hPa 0,0 l/m² 0,0 km/h (0 Bft) O-NO 75 ° 0 min 42 W/m² 11,0 °C 11,8 °C 0,0 km/h (0 Bft)
21.09.2023 07:38 23,2 °C 11,8 °C 59 % 95 % 1005,1 hPa 0,0 l/m² 0,0 km/h (0 Bft) O-NO 75 ° 0 min 44 W/m² 11,0 °C 11,8 °C 0,0 km/h (0 Bft)
21.09.2023 07:39 23,2 °C 11,8 °C 59 % 95 % 1005,1 hPa 0,0 l/m² 0,0 km/h (0 Bft) O-NO 75 ° 0 min 46 W/m² 11,0 °C 11,8 °C 0,0 km/h (0 Bft)
21.09.2023 07:40 23,2 °C 11,8 °C 59 % 94 % 1005,1 hPa 0,0 l/m² 0,0 km/h (0 Bft) O-NO 75 ° 0 min 49 W/m² 10,9 °C 11,8 °C 0,0 km/h (0 Bft)
21.09.2023 07:41 23,2 °C 11,8 °C 59 % 94 % 1005,2 hPa 0,0 l/m² 0,0 km/h (0 Bft) O-NO 75 ° 1 min 53 W/m² 10,9 °C 11,8 °C 0,0 km/h (0 Bft)
21.09.2023 07:42 23,2 °C 11,8 °C 59 % 94 % 1005,1 hPa 0,0 l/m² 0,0 km/h (0 Bft) O-NO 75 ° 1 min 54 W/m² 10,9 °C 11,8 °C 0,0 km/h (0 Bft)
21.09.2023 07:43 23,2 °C 11,8 °C 59 % 94 % 1005,1 hPa 0,0 l/m² 0,0 km/h (0 Bft) O-NO 75 ° 1 min 56 W/m² 10,9 °C 11,8 °C 0,0 km/h (0 Bft)
21.09.2023 07:44 23,2 °C 11,9 °C 59 % 94 % 1005,2 hPa 0,0 l/m² 0,0 km/h (0 Bft) O-NO 75 ° 1 min 58 W/m² 11,0 °C 11,9 °C 0,0 km/h (0 Bft)
21.09.2023 07:45 23,2 °C 11,9 °C 59 % 95 % 1005,2 hPa 0,0 l/m² 0,0 km/h (0 Bft) O-NO 75 ° 1 min 62 W/m² 11,1 °C 11,9 °C 0,0 km/h (0 Bft)
21.09.2023 07:46 23,2 °C 11,9 °C 59 % 95 % 1005,1 hPa 0,0 l/m² 0,0 km/h (0 Bft) O-NO 75 ° 1 min 63 W/m² 11,1 °C 11,9 °C 0,0 km/h (0 Bft)
21.09.2023 07:47 23,2 °C 12,1 °C 59 % 95 % 1005,1 hPa 0,0 l/m² 0,0 km/h (0 Bft) O-NO 75 ° 1 min 67 W/m² 11,3 °C 12,1 °C 0,0 km/h (0 Bft)
21.09.2023 07:48 23,2 °C 12,1 °C 59 % 95 % 1005,1 hPa 0,0 l/m² 0,0 km/h (0 Bft) O-NO 75 ° 1 min 69 W/m² 11,3 °C 12,1 °C 0,0 km/h (0 Bft)
21.09.2023 07:49 23,2 °C 12,2 °C 59 % 95 % 1005,1 hPa 0,0 l/m² 0,0 km/h (0 Bft) O-NO 75 ° 1 min 70 W/m² 11,4 °C 12,2 °C 0,0 km/h (0 Bft)
21.09.2023 07:50 23,2 °C 12,2 °C 59 % 95 % 1005,1 hPa 0,0 l/m² 0,0 km/h (0 Bft) O-NO 75 ° 1 min 72 W/m² 11,4 °C 12,2 °C 0,0 km/h (0 Bft)
21.09.2023 07:52 23,2 °C 12,4 °C 59 % 95 % 1005,1 hPa 0,0 l/m² 0,0 km/h (0 Bft) O-NO 75 ° 2 min 77 W/m² 11,6 °C 12,4 °C 0,0 km/h (0 Bft)
21.09.2023 07:53 23,2 °C 12,4 °C 59 % 95 % 1005,1 hPa 0,0 l/m² 0,0 km/h (0 Bft) O-NO 75 ° 1 min 81 W/m² 11,6 °C 12,4 °C 0,0 km/h (0 Bft)
21.09.2023 07:54 23,2 °C 12,5 °C 59 % 95 % 1005,0 hPa 0,0 l/m² 0,0 km/h (0 Bft) O-NO 75 ° 1 min 83 W/m² 11,7 °C 12,5 °C 0,0 km/h (0 Bft)
21.09.2023 07:55 23,2 °C 12,5 °C 59 % 95 % 1005,1 hPa 0,0 l/m² 0,0 km/h (0 Bft) O-NO 75 ° 1 min 84 W/m² 11,7 °C 12,5 °C 0,0 km/h (0 Bft)
21.09.2023 07:56 23,2 °C 12,6 °C 59 % 95 % 1005,1 hPa 0,0 l/m² 0,0 km/h (0 Bft) O-NO 75 ° 1 min 86 W/m² 11,8 °C 12,6 °C 0,0 km/h (0 Bft)
21.09.2023 07:57 23,2 °C 12,6 °C 59 % 95 % 1005,1 hPa 0,0 l/m² 0,0 km/h (0 Bft) O-NO 75 ° 1 min 90 W/m² 11,8 °C 12,6 °C 0,0 km/h (0 Bft)
21.09.2023 07:58 23,2 °C 12,7 °C 59 % 95 % 1005,0 hPa 0,0 l/m² 0,0 km/h (0 Bft) O-NO 75 ° 1 min 93 W/m² 11,9 °C 12,7 °C 0,0 km/h (0 Bft)
21.09.2023 07:59 23,2 °C 12,8 °C 59 % 95 % 1005,1 hPa 0,0 l/m² 0,0 km/h (0 Bft) O-NO 75 ° 1 min 97 W/m² 12,0 °C 12,8 °C 0,0 km/h (0 Bft)
21.09.2023 08:00 23,2 °C 12,8 °C 59 % 95 % 1005,0 hPa 0,0 l/m² 0,0 km/h (0 Bft) O-NO 75 ° 1 min 98 W/m² 12,0 °C 12,8 °C 0,0 km/h (0 Bft)
21.09.2023 08:01 23,2 °C 12,9 °C 60 % 95 % 1005,0 hPa 0,0 l/m² 0,0 km/h (0 Bft) O-NO 75 ° 1 min 100 W/m² 12,1 °C 12,9 °C 0,0 km/h (0 Bft)
21.09.2023 08:02 23,2 °C 12,9 °C 60 % 94 % 1005,0 hPa 0,0 l/m² 0,1 km/h (0 Bft) O-NO 75 ° 1 min 104 W/m² 12,0 °C 12,9 °C 1,6 km/h (1 Bft)
21.09.2023 08:03 23,2 °C 12,9 °C 59 % 94 % 1005,0 hPa 0,0 l/m² 1,9 km/h (1 Bft) O-NO 75 ° 1 min 105 W/m² 12,0 °C 12,9 °C 3,2 km/h (1 Bft)
21.09.2023 08:04 23,2 °C 13,1 °C 60 % 94 % 1004,9 hPa 0,0 l/m² 0,6 km/h (0 Bft) O-NO 75 ° 1 min 109 W/m² 12,2 °C 13,1 °C 3,2 km/h (1 Bft)
21.09.2023 08:05 23,2 °C 13,1 °C 60 % 94 % 1005,0 hPa 0,0 l/m² 0,3 km/h (0 Bft) O-NO 75 ° 1 min 113 W/m² 12,2 °C 13,1 °C 1,6 km/h (1 Bft)
21.09.2023 08:06 23,2 °C 13,2 °C 60 % 94 % 1005,0 hPa 0,0 l/m² 1,8 km/h (1 Bft) O-NO 75 ° 1 min 114 W/m² 12,3 °C 13,2 °C 3,2 km/h (1 Bft)
21.09.2023 08:07 23,2 °C 13,3 °C 60 % 94 % 1004,9 hPa 0,0 l/m² 1,8 km/h (1 Bft) O-NO 75 ° 1 min 116 W/m² 12,4 °C 13,3 °C 3,2 km/h (1 Bft)
21.09.2023 08:08 23,2 °C 13,4 °C 60 % 94 % 1005,0 hPa 0,0 l/m² 2,0 km/h (1 Bft) O-NO 75 ° 1 min 120 W/m² 12,5 °C 13,4 °C 3,2 km/h (1 Bft)
21.09.2023 08:09 23,2 °C 13,5 °C 60 % 94 % 1005,0 hPa 0,0 l/m² 3,1 km/h (1 Bft) O-NO 75 ° 1 min 121 W/m² 12,6 °C 13,5 °C 6,4 km/h (2 Bft)
21.09.2023 08:10 23,2 °C 13,6 °C 60 % 94 % 1004,9 hPa 0,0 l/m² 3,2 km/h (1 Bft) O-NO 75 ° 1 min 127 W/m² 12,7 °C 13,6 °C 4,8 km/h (1 Bft)
21.09.2023 08:11 23,2 °C 13,6 °C 60 % 94 % 1005,0 hPa 0,0 l/m² 2,2 km/h (1 Bft) O-NO 75 ° 1 min 130 W/m² 12,7 °C 13,6 °C 4,8 km/h (1 Bft)
21.09.2023 08:12 23,2 °C 13,6 °C 60 % 94 % 1005,0 hPa 0,0 l/m² 3,1 km/h (1 Bft) O-NO 75 ° 1 min 132 W/m² 12,7 °C 13,6 °C 3,2 km/h (1 Bft)
21.09.2023 08:13 23,2 °C 13,7 °C 60 % 94 % 1005,0 hPa 0,0 l/m² 3,2 km/h (1 Bft) O-NO 75 ° 1 min 134 W/m² 12,8 °C 13,7 °C 4,8 km/h (1 Bft)
21.09.2023 08:14 23,2 °C 13,7 °C 60 % 94 % 1004,9 hPa 0,0 l/m² 2,5 km/h (1 Bft) O-NO 75 ° 1 min 137 W/m² 12,8 °C 13,7 °C 3,2 km/h (1 Bft)
21.09.2023 08:15 23,2 °C 13,7 °C 60 % 94 % 1005,0 hPa 0,0 l/m² 2,1 km/h (1 Bft) O-NO 75 ° 1 min 139 W/m² 12,8 °C 13,7 °C 3,2 km/h (1 Bft)
21.09.2023 08:16 23,2 °C 13,8 °C 60 % 94 % 1004,9 hPa 0,0 l/m² 2,1 km/h (1 Bft) O-NO 75 ° 1 min 144 W/m² 12,9 °C 13,8 °C 4,8 km/h (1 Bft)
21.09.2023 08:17 23,2 °C 13,8 °C 60 % 93 % 1005,0 hPa 0,0 l/m² 0,1 km/h (0 Bft) O-NO 75 ° 1 min 148 W/m² 12,7 °C 13,8 °C 1,6 km/h (1 Bft)
21.09.2023 08:18 23,2 °C 13,8 °C 60 % 93 % 1005,0 hPa 0,0 l/m² 1,9 km/h (1 Bft) O-NO 75 ° 1 min 149 W/m² 12,7 °C 13,8 °C 3,2 km/h (1 Bft)
21.09.2023 08:19 23,2 °C 13,9 °C 60 % 93 % 1004,9 hPa 0,0 l/m² 0,1 km/h (0 Bft) O-NO 75 ° 1 min 151 W/m² 12,8 °C 13,9 °C 1,6 km/h (1 Bft)
21.09.2023 08:20 23,2 °C 13,9 °C 60 % 94 % 1004,9 hPa 0,0 l/m² 1,7 km/h (1 Bft) O-NO 75 ° 1 min 155 W/m² 12,9 °C 13,9 °C 3,2 km/h (1 Bft)
21.09.2023 08:21 23,2 °C 14,0 °C 60 % 93 % 1004,9 hPa 0,0 l/m² 3,2 km/h (1 Bft) O-NO 75 ° 1 min 156 W/m² 12,9 °C 14,0 °C 4,8 km/h (1 Bft)
21.09.2023 08:22 23,2 °C 14,1 °C 60 % 93 % 1004,9 hPa 0,0 l/m² 2,7 km/h (1 Bft) O-NO 75 ° 1 min 163 W/m² 13,0 °C 14,1 °C 3,2 km/h (1 Bft)
21.09.2023 08:23 23,2 °C 14,2 °C 60 % 93 % 1004,8 hPa 0,0 l/m² 2,5 km/h (1 Bft) O-NO 75 ° 1 min 167 W/m² 13,1 °C 14,2 °C 3,2 km/h (1 Bft)
21.09.2023 08:24 23,2 °C 14,2 °C 60 % 93 % 1004,9 hPa 0,0 l/m² 1,9 km/h (1 Bft) O-NO 75 ° 1 min 169 W/m² 13,1 °C 14,2 °C 3,2 km/h (1 Bft)
21.09.2023 08:25 23,2 °C 14,3 °C 60 % 93 % 1004,8 hPa 0,0 l/m² 2,0 km/h (1 Bft) O-NO 75 ° 1 min 172 W/m² 13,2 °C 14,3 °C 4,8 km/h (1 Bft)
21.09.2023 08:26 23,2 °C 14,4 °C 60 % 93 % 1004,8 hPa 0,0 l/m² 3,7 km/h (1 Bft) O-NO 75 ° 1 min 174 W/m² 13,3 °C 14,4 °C 4,8 km/h (1 Bft)
21.09.2023 08:27 23,2 °C 14,6 °C 60 % 93 % 1004,8 hPa 0,0 l/m² 4,3 km/h (1 Bft) O-NO 75 ° 1 min 178 W/m² 13,5 °C 14,6 °C 6,4 km/h (2 Bft)
21.09.2023 08:28 23,2 °C 14,7 °C 60 % 93 % 1004,8 hPa 0,0 l/m² 4,2 km/h (1 Bft) O-NO 75 ° 1 min 183 W/m² 13,6 °C 14,7 °C 6,4 km/h (2 Bft)
21.09.2023 08:29 23,2 °C 14,8 °C 60 % 92 % 1004,8 hPa 0,0 l/m² 4,4 km/h (1 Bft) O-NO 75 ° 1 min 185 W/m² 13,5 °C 14,8 °C 6,4 km/h (2 Bft)
21.09.2023 08:30 23,2 °C 14,9 °C 60 % 92 % 1004,7 hPa 0,0 l/m² 5,0 km/h (1 Bft) O-NO 75 ° 1 min 188 W/m² 13,6 °C 14,9 °C 6,4 km/h (2 Bft)
21.09.2023 08:31 23,2 °C 14,9 °C 60 % 92 % 1004,7 hPa 0,0 l/m² 4,6 km/h (1 Bft) O-NO 75 ° 1 min 192 W/m² 13,6 °C 14,9 °C 6,4 km/h (2 Bft)
21.09.2023 08:32 23,2 °C 15,0 °C 60 % 92 % 1004,7 hPa 0,0 l/m² 5,0 km/h (1 Bft) O-NO 75 ° 1 min 193 W/m² 13,7 °C 15,0 °C 6,4 km/h (2 Bft)
21.09.2023 08:33 23,2 °C 15,1 °C 60 % 91 % 1004,8 hPa 0,0 l/m² 5,1 km/h (1 Bft) O-NO 75 ° 1 min 197 W/m² 13,6 °C 15,1 °C 6,4 km/h (2 Bft)
21.09.2023 08:34 23,2 °C 15,1 °C 60 % 91 % 1004,6 hPa 0,0 l/m² 4,9 km/h (1 Bft) O 85 ° 1 min 204 W/m² 13,6 °C 15,1 °C 6,4 km/h (2 Bft)
21.09.2023 08:35 23,2 °C 15,1 °C 60 % 91 % 1004,6 hPa 0,0 l/m² 5,4 km/h (2 Bft) O 84 ° 1 min 207 W/m² 13,6 °C 15,1 °C 6,4 km/h (2 Bft)
21.09.2023 08:36 23,2 °C 15,2 °C 60 % 91 % 1004,6 hPa 0,0 l/m² 3,6 km/h (1 Bft) O 84 ° 1 min 209 W/m² 13,7 °C 15,2 °C 4,8 km/h (1 Bft)
21.09.2023 08:37 23,2 °C 15,3 °C 60 % 91 % 1004,6 hPa 0,0 l/m² 3,8 km/h (1 Bft) O 84 ° 1 min 213 W/m² 13,8 °C 15,3 °C 4,8 km/h (1 Bft)
21.09.2023 08:38 23,2 °C 15,3 °C 60 % 91 % 1004,6 hPa 0,0 l/m² 4,1 km/h (1 Bft) O 84 ° 1 min 216 W/m² 13,8 °C 15,3 °C 6,4 km/h (2 Bft)
21.09.2023 08:39 23,2 °C 15,4 °C 60 % 91 % 1004,6 hPa 0,0 l/m² 3,9 km/h (1 Bft) O 83 ° 1 min 218 W/m² 13,9 °C 15,4 °C 6,4 km/h (2 Bft)
21.09.2023 08:40 23,2 °C 15,4 °C 60 % 90 % 1004,5 hPa 0,0 l/m² 4,8 km/h (1 Bft) O-NO 76 ° 1 min 223 W/m² 13,8 °C 15,4 °C 8,0 km/h (2 Bft)
21.09.2023 08:41 23,2 °C 15,4 °C 60 % 90 % 1004,6 hPa 0,0 l/m² 4,4 km/h (1 Bft) O-NO 70 ° 1 min 227 W/m² 13,8 °C 15,4 °C 8,0 km/h (2 Bft)
21.09.2023 08:42 23,2 °C 15,5 °C 60 % 90 % 1004,6 hPa 0,0 l/m² 4,2 km/h (1 Bft) O-NO 69 ° 1 min 229 W/m² 13,9 °C 15,5 °C 6,4 km/h (2 Bft)
21.09.2023 08:43 23,2 °C 15,6 °C 60 % 90 % 1004,7 hPa 0,0 l/m² 4,0 km/h (1 Bft) O-NO 70 ° 1 min 232 W/m² 14,0 °C 15,6 °C 4,8 km/h (1 Bft)
21.09.2023 08:44 23,2 °C 15,7 °C 60 % 90 % 1004,7 hPa 0,0 l/m² 4,6 km/h (1 Bft) O-NO 73 ° 1 min 234 W/m² 14,1 °C 15,7 °C 6,4 km/h (2 Bft)
21.09.2023 08:45 23,2 °C 15,7 °C 60 % 89 % 1004,6 hPa 0,0 l/m² 2,8 km/h (1 Bft) O-NO 73 ° 1 min 237 W/m² 13,9 °C 15,7 °C 3,2 km/h (1 Bft)
21.09.2023 08:46 23,2 °C 15,8 °C 60 % 89 % 1004,6 hPa 0,0 l/m² 3,0 km/h (1 Bft) O-NO 74 ° 1 min 243 W/m² 14,0 °C 15,8 °C 4,8 km/h (1 Bft)
21.09.2023 08:47 23,2 °C 15,8 °C 60 % 90 % 1004,6 hPa 0,0 l/m² 4,2 km/h (1 Bft) O-NO 74 ° 1 min 244 W/m² 14,2 °C 15,8 °C 6,4 km/h (2 Bft)
21.09.2023 08:48 23,2 °C 15,9 °C 60 % 89 % 1004,7 hPa 0,0 l/m² 4,4 km/h (1 Bft) O-NO 74 ° 1 min 248 W/m² 14,1 °C 15,9 °C 6,4 km/h (2 Bft)
21.09.2023 08:49 23,2 °C 15,9 °C 60 % 89 % 1004,7 hPa 0,0 l/m² 3,9 km/h (1 Bft) O-NO 74 ° 1 min 250 W/m² 14,1 °C 15,9 °C 4,8 km/h (1 Bft)
21.09.2023 08:50 23,2 °C 15,9 °C 60 % 88 % 1004,6 hPa 0,0 l/m² 4,6 km/h (1 Bft) O-NO 76 ° 1 min 251 W/m² 13,9 °C 15,9 °C 6,4 km/h (2 Bft)
21.09.2023 08:51 23,2 °C 15,9 °C 60 % 88 % 1004,6 hPa 0,0 l/m² 5,6 km/h (2 Bft) O 82 ° 1 min 257 W/m² 13,9 °C 15,9 °C 6,4 km/h (2 Bft)
21.09.2023 08:52 23,2 °C 16,0 °C 60 % 88 % 1004,6 hPa 0,0 l/m² 5,1 km/h (1 Bft) O 81 ° 1 min 258 W/m² 14,0 °C 16,0 °C 6,4 km/h (2 Bft)
21.09.2023 08:53 23,2 °C 16,1 °C 60 % 89 % 1004,6 hPa 0,0 l/m² 5,9 km/h (2 Bft) O 81 ° 1 min 260 W/m² 14,3 °C 16,1 °C 8,0 km/h (2 Bft)
21.09.2023 08:54 23,2 °C 16,1 °C 60 % 88 % 1004,5 hPa 0,0 l/m² 5,3 km/h (1 Bft) O 81 ° 1 min 264 W/m² 14,1 °C 16,1 °C 6,4 km/h (2 Bft)
21.09.2023 08:55 23,2 °C 16,1 °C 60 % 88 % 1004,6 hPa 0,0 l/m² 5,1 km/h (1 Bft) O 81 ° 1 min 265 W/m² 14,1 °C 16,1 °C 6,4 km/h (2 Bft)
21.09.2023 08:56 23,2 °C 16,2 °C 60 % 89 % 1004,6 hPa 0,0 l/m² 4,9 km/h (1 Bft) O 81 ° 1 min 267 W/m² 14,4 °C 16,2 °C 6,4 km/h (2 Bft)
21.09.2023 08:57 23,2 °C 16,2 °C 59 % 88 % 1004,5 hPa 0,0 l/m² 5,8 km/h (2 Bft) O 82 ° 1 min 272 W/m² 14,2 °C 16,2 °C 6,4 km/h (2 Bft)
21.09.2023 08:58 23,2 °C 16,3 °C 59 % 88 % 1004,5 hPa 0,0 l/m² 4,8 km/h (1 Bft) O 82 ° 1 min 274 W/m² 14,3 °C 16,3 °C 6,4 km/h (2 Bft)
21.09.2023 08:59 23,2 °C 16,4 °C 59 % 89 % 1004,5 hPa 0,0 l/m² 4,5 km/h (1 Bft) O 81 ° 1 min 278 W/m² 14,6 °C 16,4 °C 6,4 km/h (2 Bft)
21.09.2023 09:00 23,3 °C 16,4 °C 59 % 88 % 1004,4 hPa 0,0 l/m² 5,5 km/h (2 Bft) O 82 ° 1 min 278 W/m² 14,4 °C 16,4 °C 6,4 km/h (2 Bft)
21.09.2023 09:01 23,3 °C 16,4 °C 60 % 89 % 1004,5 hPa 0,0 l/m² 5,8 km/h (2 Bft) O 82 ° 1 min 281 W/m² 14,6 °C 16,4 °C 8,0 km/h (2 Bft)
21.09.2023 09:02 23,3 °C 16,6 °C 59 % 88 % 1004,5 hPa 0,0 l/m² 5,6 km/h (2 Bft) O 82 ° 1 min 285 W/m² 14,6 °C 16,6 °C 6,4 km/h (2 Bft)
21.09.2023 09:03 23,3 °C 16,6 °C 60 % 88 % 1004,4 hPa 0,0 l/m² 5,4 km/h (2 Bft) O 82 ° 1 min 288 W/m² 14,6 °C 16,6 °C 6,4 km/h (2 Bft)
21.09.2023 09:04 23,3 °C 16,7 °C 59 % 88 % 1004,5 hPa 0,0 l/m² 4,9 km/h (1 Bft) O 82 ° 1 min 290 W/m² 14,7 °C 16,7 °C 6,4 km/h (2 Bft)
21.09.2023 09:05 23,3 °C 16,7 °C 59 % 87 % 1004,4 hPa 0,0 l/m² 4,6 km/h (1 Bft) O 82 ° 1 min 294 W/m² 14,5 °C 16,7 °C 6,4 km/h (2 Bft)
21.09.2023 09:06 23,3 °C 16,8 °C 59 % 87 % 1004,4 hPa 0,0 l/m² 4,4 km/h (1 Bft) O 82 ° 1 min 295 W/m² 14,6 °C 16,8 °C 6,4 km/h (2 Bft)
21.09.2023 09:07 23,3 °C 16,8 °C 59 % 88 % 1004,4 hPa 0,0 l/m² 4,3 km/h (1 Bft) O 82 ° 1 min 299 W/m² 14,8 °C 16,8 °C 6,4 km/h (2 Bft)
21.09.2023 09:08 23,3 °C 16,9 °C 59 % 87 % 1004,4 hPa 0,0 l/m² 3,8 km/h (1 Bft) O 82 ° 1 min 301 W/m² 14,7 °C 16,9 °C 4,8 km/h (1 Bft)
21.09.2023 09:09 23,3 °C 17,0 °C 59 % 88 % 1004,4 hPa 0,0 l/m² 5,1 km/h (1 Bft) O 82 ° 1 min 302 W/m² 15,0 °C 17,0 °C 6,4 km/h (2 Bft)
21.09.2023 09:10 23,3 °C 17,1 °C 59 % 87 % 1004,4 hPa 0,0 l/m² 5,2 km/h (1 Bft) O 82 ° 1 min 306 W/m² 14,9 °C 17,1 °C 6,4 km/h (2 Bft)
21.09.2023 09:11 23,3 °C 17,1 °C 59 % 87 % 1004,4 hPa 0,0 l/m² 4,5 km/h (1 Bft) O 82 ° 1 min 308 W/m² 14,9 °C 17,1 °C 6,4 km/h (2 Bft)
21.09.2023 09:12 23,3 °C 17,1 °C 59 % 87 % 1004,4 hPa 0,0 l/m² 5,2 km/h (1 Bft) O 82 ° 1 min 309 W/m² 14,9 °C 17,1 °C 6,4 km/h (2 Bft)
21.09.2023 09:13 23,3 °C 17,2 °C 59 % 87 % 1004,4 hPa 0,0 l/m² 5,8 km/h (2 Bft) O 82 ° 1 min 309 W/m² 15,0 °C 17,2 °C 6,4 km/h (2 Bft)
21.09.2023 09:14 23,3 °C 17,3 °C 59 % 86 % 1004,3 hPa 0,0 l/m² 4,8 km/h (1 Bft) O 82 ° 1 min 258 W/m² 14,9 °C 17,3 °C 6,4 km/h (2 Bft)
21.09.2023 09:15 23,3 °C 17,4 °C 59 % 87 % 1004,3 hPa 0,0 l/m² 3,9 km/h (1 Bft) O 82 ° 1 min 206 W/m² 15,2 °C 17,4 °C 4,8 km/h (1 Bft)
21.09.2023 09:16 23,3 °C 17,5 °C 59 % 87 % 1004,3 hPa 0,0 l/m² 5,3 km/h (1 Bft) O 82 ° 1 min 225 W/m² 15,3 °C 17,5 °C 6,4 km/h (2 Bft)
21.09.2023 09:17 23,3 °C 17,6 °C 59 % 87 % 1004,3 hPa 0,0 l/m² 5,9 km/h (2 Bft) O 82 ° 1 min 227 W/m² 15,4 °C 17,6 °C 6,4 km/h (2 Bft)
21.09.2023 09:18 23,4 °C 17,7 °C 59 % 85 % 1004,4 hPa 0,0 l/m² 4,3 km/h (1 Bft) O 82 ° 1 min 250 W/m² 15,1 °C 17,7 °C 6,4 km/h (2 Bft)
21.09.2023 09:19 23,4 °C 17,7 °C 59 % 86 % 1004,3 hPa 0,0 l/m² 5,4 km/h (2 Bft) O 82 ° 1 min 334 W/m² 15,3 °C 17,7 °C 6,4 km/h (2 Bft)
21.09.2023 09:20 23,4 °C 17,7 °C 59 % 85 % 1004,4 hPa 0,0 l/m² 4,2 km/h (1 Bft) O 82 ° 1 min 339 W/m² 15,1 °C 17,7 °C 4,8 km/h (1 Bft)
21.09.2023 09:21 23,4 °C 17,8 °C 59 % 86 % 1004,4 hPa 0,0 l/m² 4,1 km/h (1 Bft) O 82 ° 1 min 343 W/m² 15,4 °C 17,8 °C 4,8 km/h (1 Bft)
21.09.2023 09:22 23,4 °C 17,8 °C 59 % 84 % 1004,3 hPa 0,0 l/m² 3,8 km/h (1 Bft) O 82 ° 1 min 345 W/m² 15,1 °C 17,8 °C 4,8 km/h (1 Bft)
21.09.2023 09:23 23,4 °C 17,8 °C 59 % 85 % 1004,3 hPa 0,0 l/m² 4,9 km/h (1 Bft) O 82 ° 1 min 346 W/m² 15,2 °C 17,8 °C 6,4 km/h (2 Bft)
21.09.2023 09:24 23,4 °C 17,9 °C 59 % 84 % 1004,3 hPa 0,0 l/m² 4,5 km/h (1 Bft) O 82 ° 1 min 350 W/m² 15,2 °C 17,9 °C 6,4 km/h (2 Bft)
21.09.2023 09:25 23,4 °C 17,9 °C 59 % 84 % 1004,4 hPa 0,0 l/m² 5,3 km/h (1 Bft) O 82 ° 1 min 352 W/m² 15,2 °C 17,9 °C 6,4 km/h (2 Bft)
21.09.2023 09:26 23,4 °C 18,0 °C 59 % 84 % 1004,4 hPa 0,0 l/m² 4,7 km/h (1 Bft) O 82 ° 1 min 357 W/m² 15,3 °C 18,0 °C 6,4 km/h (2 Bft)
21.09.2023 09:27 23,4 °C 18,0 °C 59 % 84 % 1004,3 hPa 0,0 l/m² 4,2 km/h (1 Bft) O-SO 107 ° 1 min 359 W/m² 15,3 °C 18,0 °C 6,4 km/h (2 Bft)
21.09.2023 09:28 23,4 °C 18,1 °C 59 % 84 % 1004,4 hPa 0,0 l/m² 3,8 km/h (1 Bft) O-SO 106 ° 1 min 362 W/m² 15,4 °C 18,1 °C 4,8 km/h (1 Bft)
21.09.2023 09:29 23,4 °C 18,2 °C 59 % 85 % 1004,4 hPa 0,0 l/m² 4,7 km/h (1 Bft) O 101 ° 1 min 366 W/m² 15,6 °C 18,2 °C 6,4 km/h (2 Bft)
21.09.2023 09:30 23,4 °C 18,2 °C 59 % 83 % 1004,4 hPa 0,0 l/m² 3,6 km/h (1 Bft) O 101 ° 1 min 367 W/m² 15,3 °C 18,2 °C 4,8 km/h (1 Bft)
21.09.2023 09:31 23,4 °C 18,3 °C 59 % 85 % 1004,4 hPa 0,0 l/m² 2,8 km/h (1 Bft) O 101 ° 1 min 369 W/m² 15,7 °C 18,3 °C 4,8 km/h (1 Bft)
21.09.2023 09:32 23,4 °C 18,4 °C 59 % 83 % 1004,3 hPa 0,0 l/m² 2,7 km/h (1 Bft) O 101 ° 1 min 374 W/m² 15,5 °C 18,4 °C 3,2 km/h (1 Bft)
21.09.2023 09:33 23,5 °C 18,4 °C 59 % 84 % 1004,4 hPa 0,0 l/m² 2,9 km/h (1 Bft) O 101 ° 1 min 376 W/m² 15,6 °C 18,4 °C 4,8 km/h (1 Bft)
21.09.2023 09:34 23,5 °C 18,6 °C 59 % 84 % 1004,4 hPa 0,0 l/m² 4,5 km/h (1 Bft) O 100 ° 1 min 380 W/m² 15,8 °C 18,6 °C 6,4 km/h (2 Bft)
21.09.2023 09:35 23,5 °C 18,6 °C 59 % 83 % 1004,3 hPa 0,0 l/m² 5,2 km/h (1 Bft) O 100 ° 1 min 381 W/m² 15,7 °C 18,6 °C 6,4 km/h (2 Bft)
21.09.2023 09:36 23,6 °C 18,7 °C 59 % 82 % 1004,4 hPa 0,0 l/m² 4,5 km/h (1 Bft) O 100 ° 1 min 385 W/m² 15,6 °C 18,7 °C 4,8 km/h (1 Bft)
21.09.2023 09:37 23,6 °C 18,7 °C 59 % 83 % 1004,4 hPa 0,0 l/m² 4,6 km/h (1 Bft) O 100 ° 1 min 387 W/m² 15,8 °C 18,7 °C 6,4 km/h (2 Bft)
21.09.2023 09:38 23,6 °C 18,7 °C 59 % 81 % 1004,4 hPa 0,0 l/m² 5,6 km/h (2 Bft) O 94 ° 1 min 390 W/m² 15,4 °C 18,7 °C 9,7 km/h (2 Bft)
21.09.2023 09:39 23,6 °C 18,8 °C 59 % 82 % 1004,3 hPa 0,0 l/m² 6,5 km/h (2 Bft) O 91 ° 1 min 394 W/m² 15,7 °C 18,8 °C 9,7 km/h (2 Bft)
21.09.2023 09:40 23,6 °C 18,9 °C 59 % 81 % 1004,4 hPa 0,0 l/m² 4,3 km/h (1 Bft) O 91 ° 1 min 396 W/m² 15,6 °C 18,9 °C 6,4 km/h (2 Bft)
21.09.2023 09:41 23,6 °C 18,9 °C 59 % 83 % 1004,3 hPa 0,0 l/m² 3,8 km/h (1 Bft) O 91 ° 1 min 397 W/m² 15,9 °C 18,9 °C 6,4 km/h (2 Bft)
21.09.2023 09:42 23,6 °C 18,9 °C 59 % 81 % 1004,4 hPa 0,0 l/m² 5,2 km/h (1 Bft) O 91 ° 1 min 399 W/m² 15,6 °C 18,9 °C 6,4 km/h (2 Bft)
21.09.2023 09:43 23,6 °C 19,0 °C 59 % 81 % 1004,4 hPa 0,0 l/m² 3,4 km/h (1 Bft) O 91 ° 1 min 401 W/m² 15,7 °C 19,0 °C 4,8 km/h (1 Bft)
21.09.2023 09:44 23,6 °C 19,1 °C 59 % 83 % 1004,4 hPa 0,0 l/m² 4,0 km/h (1 Bft) O 91 ° 1 min 406 W/m² 16,1 °C 19,1 °C 4,8 km/h (1 Bft)
21.09.2023 09:46 23,6 °C 19,2 °C 59 % 81 % 1004,4 hPa 0,0 l/m² 3,7 km/h (1 Bft) O 91 ° 2 min 410 W/m² 15,9 °C 19,2 °C 6,4 km/h (2 Bft)
21.09.2023 09:47 23,6 °C 19,3 °C 59 % 80 % 1004,3 hPa 0,0 l/m² 4,4 km/h (1 Bft) O 91 ° 1 min 411 W/m² 15,8 °C 19,3 °C 4,8 km/h (1 Bft)
21.09.2023 09:48 23,7 °C 19,3 °C 59 % 79 % 1004,4 hPa 0,0 l/m² 4,5 km/h (1 Bft) O 90 ° 1 min 413 W/m² 15,6 °C 19,3 °C 6,4 km/h (2 Bft)
21.09.2023 09:49 23,7 °C 19,3 °C 59 % 79 % 1004,4 hPa 0,0 l/m² 2,9 km/h (1 Bft) O 91 ° 1 min 415 W/m² 15,6 °C 19,3 °C 6,4 km/h (2 Bft)
21.09.2023 09:50 23,7 °C 19,3 °C 59 % 79 % 1004,4 hPa 0,0 l/m² 4,4 km/h (1 Bft) O 91 ° 1 min 418 W/m² 15,6 °C 19,3 °C 6,4 km/h (2 Bft)
21.09.2023 09:51 23,7 °C 19,3 °C 59 % 79 % 1004,4 hPa 0,0 l/m² 4,4 km/h (1 Bft) O 91 ° 1 min 420 W/m² 15,6 °C 19,3 °C 4,8 km/h (1 Bft)
21.09.2023 09:52 23,7 °C 19,4 °C 59 % 79 % 1004,4 hPa 0,0 l/m² 3,4 km/h (1 Bft) O 91 ° 1 min 422 W/m² 15,7 °C 19,4 °C 4,8 km/h (1 Bft)
21.09.2023 09:53 23,7 °C 19,6 °C 59 % 79 % 1004,4 hPa 0,0 l/m² 3,0 km/h (1 Bft) O 91 ° 1 min 424 W/m² 15,9 °C 19,6 °C 4,8 km/h (1 Bft)
21.09.2023 09:54 23,7 °C 19,6 °C 59 % 79 % 1004,3 hPa 0,0 l/m² 1,6 km/h (1 Bft) O 91 ° 1 min 425 W/m² 15,9 °C 19,6 °C 3,2 km/h (1 Bft)
21.09.2023 09:55 23,7 °C 19,7 °C 59 % 80 % 1004,4 hPa 0,0 l/m² 5,2 km/h (1 Bft) O 91 ° 1 min 427 W/m² 16,1 °C 19,7 °C 9,7 km/h (2 Bft)
21.09.2023 09:56 23,7 °C 19,9 °C 59 % 79 % 1004,3 hPa 0,0 l/m² 1,3 km/h (1 Bft) O 91 ° 1 min 431 W/m² 16,1 °C 19,9 °C 3,2 km/h (1 Bft)
21.09.2023 09:57 23,7 °C 19,9 °C 59 % 78 % 1004,3 hPa 0,0 l/m² 1,0 km/h (0 Bft) O 91 ° 1 min 432 W/m² 15,9 °C 19,9 °C 3,2 km/h (1 Bft)
21.09.2023 09:58 23,7 °C 19,9 °C 59 % 77 % 1004,3 hPa 0,0 l/m² 3,0 km/h (1 Bft) O 91 ° 1 min 434 W/m² 15,7 °C 19,9 °C 4,8 km/h (1 Bft)
21.09.2023 09:59 23,7 °C 19,9 °C 59 % 77 % 1004,3 hPa 0,0 l/m² 6,1 km/h (2 Bft) O 90 ° 1 min 438 W/m² 15,7 °C 19,9 °C 9,7 km/h (2 Bft)
21.09.2023 10:00 23,7 °C 20,1 °C 59 % 77 % 1004,3 hPa 0,0 l/m² 6,1 km/h (2 Bft) O 92 ° 1 min 439 W/m² 15,9 °C 20,1 °C 9,7 km/h (2 Bft)
21.09.2023 10:01 23,7 °C 20,1 °C 59 % 76 % 1004,3 hPa 0,0 l/m² 4,8 km/h (1 Bft) O 92 ° 1 min 441 W/m² 15,7 °C 20,1 °C 6,4 km/h (2 Bft)
21.09.2023 10:02 23,7 °C 20,1 °C 59 % 77 % 1004,3 hPa 0,0 l/m² 2,9 km/h (1 Bft) O 92 ° 1 min 446 W/m² 15,9 °C 20,1 °C 6,4 km/h (2 Bft)
21.09.2023 10:03 23,8 °C 20,1 °C 59 % 78 % 1004,3 hPa 0,0 l/m² 5,2 km/h (1 Bft) O 94 ° 1 min 450 W/m² 16,1 °C 20,1 °C 6,4 km/h (2 Bft)
21.09.2023 10:04 23,7 °C 20,2 °C 59 % 77 % 1004,4 hPa 0,0 l/m² 4,1 km/h (1 Bft) O 94 ° 1 min 450 W/m² 16,0 °C 20,2 °C 6,4 km/h (2 Bft)
21.09.2023 10:05 23,8 °C 20,2 °C 59 % 76 % 1004,4 hPa 0,0 l/m² 5,3 km/h (1 Bft) O 95 ° 1 min 452 W/m² 15,8 °C 20,2 °C 6,4 km/h (2 Bft)
21.09.2023 10:06 23,8 °C 20,1 °C 59 % 76 % 1004,4 hPa 0,0 l/m² 3,3 km/h (1 Bft) O 95 ° 1 min 454 W/m² 15,7 °C 20,1 °C 4,8 km/h (1 Bft)
21.09.2023 10:07 23,8 °C 20,2 °C 59 % 77 % 1004,3 hPa 0,0 l/m² 3,6 km/h (1 Bft) O 95 ° 1 min 455 W/m² 16,0 °C 20,2 °C 4,8 km/h (1 Bft)
21.09.2023 10:08 23,8 °C 20,3 °C 59 % 77 % 1004,3 hPa 0,0 l/m² 2,5 km/h (1 Bft) O 95 ° 1 min 459 W/m² 16,1 °C 20,3 °C 4,8 km/h (1 Bft)
21.09.2023 10:09 23,8 °C 20,5 °C 59 % 75 % 1004,4 hPa 0,0 l/m² 3,4 km/h (1 Bft) O 95 ° 1 min 461 W/m² 15,9 °C 20,5 °C 6,4 km/h (2 Bft)
21.09.2023 10:10 23,8 °C 20,6 °C 59 % 76 % 1004,3 hPa 0,0 l/m² 5,4 km/h (2 Bft) O 95 ° 1 min 462 W/m² 16,2 °C 20,6 °C 9,7 km/h (2 Bft)
21.09.2023 10:12 23,8 °C 20,6 °C 59 % 75 % 1004,2 hPa 0,0 l/m² 1,8 km/h (1 Bft) O 95 ° 2 min 468 W/m² 16,0 °C 20,6 °C 4,8 km/h (1 Bft)
21.09.2023 10:13 23,8 °C 20,7 °C 59 % 76 % 1004,2 hPa 0,0 l/m² 3,1 km/h (1 Bft) O 95 ° 1 min 471 W/m² 16,3 °C 20,7 °C 4,8 km/h (1 Bft)
21.09.2023 10:14 23,8 °C 20,7 °C 59 % 76 % 1004,2 hPa 0,0 l/m² 4,2 km/h (1 Bft) O 95 ° 1 min 475 W/m² 16,3 °C 20,7 °C 6,4 km/h (2 Bft)
21.09.2023 10:15 23,8 °C 20,8 °C 59 % 76 % 1004,2 hPa 0,0 l/m² 4,0 km/h (1 Bft) O-SO 105 ° 1 min 476 W/m² 16,4 °C 20,8 °C 4,8 km/h (1 Bft)
21.09.2023 10:16 23,9 °C 20,7 °C 59 % 74 % 1004,1 hPa 0,0 l/m² 4,9 km/h (1 Bft) O-SO 108 ° 1 min 478 W/m² 15,9 °C 20,7 °C 6,4 km/h (2 Bft)
21.09.2023 10:17 23,9 °C 20,8 °C 59 % 74 % 1004,2 hPa 0,0 l/m² 4,6 km/h (1 Bft) O-SO 122 ° 1 min 480 W/m² 16,0 °C 20,8 °C 8,0 km/h (2 Bft)
21.09.2023 10:18 23,9 °C 20,8 °C 59 % 75 % 1004,1 hPa 0,0 l/m² 6,6 km/h (2 Bft) SO 136 ° 1 min 482 W/m² 16,2 °C 20,7 °C 11,3 km/h (2 Bft)
21.09.2023 10:19 23,9 °C 20,8 °C 59 % 74 % 1004,1 hPa 0,0 l/m² 6,9 km/h (2 Bft) SO 132 ° 1 min 485 W/m² 16,0 °C 20,6 °C 8,0 km/h (2 Bft)
21.09.2023 10:20 23,9 °C 20,8 °C 58 % 74 % 1004,1 hPa 0,0 l/m² 6,6 km/h (2 Bft) SO 131 ° 1 min 489 W/m² 16,0 °C 20,7 °C 11,3 km/h (2 Bft)
21.09.2023 10:21 23,9 °C 20,9 °C 58 % 74 % 1004,2 hPa 0,0 l/m² 3,0 km/h (1 Bft) SO 131 ° 1 min 489 W/m² 16,1 °C 20,9 °C 4,8 km/h (1 Bft)
21.09.2023 10:22 23,9 °C 20,9 °C 58 % 75 % 1004,1 hPa 0,0 l/m² 6,0 km/h (2 Bft) SO 130 ° 1 min 492 W/m² 16,3 °C 20,9 °C 8,0 km/h (2 Bft)
21.09.2023 10:23 23,9 °C 20,9 °C 58 % 75 % 1004,0 hPa 0,0 l/m² 6,7 km/h (2 Bft) SO 134 ° 1 min 494 W/m² 16,3 °C 20,8 °C 11,3 km/h (2 Bft)
21.09.2023 10:24 23,9 °C 21,1 °C 58 % 75 % 1004,1 hPa 0,0 l/m² 5,5 km/h (2 Bft) O-SO 115 ° 1 min 496 W/m² 16,5 °C 21,1 °C 9,7 km/h (2 Bft)
21.09.2023 10:25 23,9 °C 21,1 °C 58 % 77 % 1004,1 hPa 0,0 l/m² 8,1 km/h (2 Bft) O-SO 116 ° 1 min 499 W/m² 16,9 °C 20,5 °C 11,3 km/h (2 Bft)
21.09.2023 10:26 23,9 °C 21,1 °C 58 % 73 % 1004,1 hPa 0,0 l/m² 6,2 km/h (2 Bft) SO 132 ° 1 min 501 W/m² 16,1 °C 21,1 °C 8,0 km/h (2 Bft)
21.09.2023 10:27 23,9 °C 21,1 °C 58 % 75 % 1004,1 hPa 0,0 l/m² 5,2 km/h (1 Bft) SO 132 ° 1 min 503 W/m² 16,5 °C 21,1 °C 6,4 km/h (2 Bft)
21.09.2023 10:28 24,0 °C 20,9 °C 58 % 74 % 1004,1 hPa 0,0 l/m² 5,2 km/h (1 Bft) SO 132 ° 1 min 504 W/m² 16,1 °C 20,9 °C 6,4 km/h (2 Bft)
21.09.2023 10:29 24,0 °C 21,1 °C 58 % 74 % 1004,1 hPa 0,0 l/m² 4,6 km/h (1 Bft) SO 132 ° 1 min 506 W/m² 16,3 °C 21,1 °C 6,4 km/h (2 Bft)
21.09.2023 10:30 24,0 °C 21,1 °C 58 % 73 % 1004,1 hPa 0,0 l/m² 3,6 km/h (1 Bft) SO 132 ° 1 min 508 W/m² 16,1 °C 21,1 °C 4,8 km/h (1 Bft)
21.09.2023 10:31 24,0 °C 21,2 °C 58 % 75 % 1004,0 hPa 0,0 l/m² 5,1 km/h (1 Bft) SO 127 ° 1 min 512 W/m² 16,6 °C 21,2 °C 6,4 km/h (2 Bft)
21.09.2023 10:32 24,1 °C 21,3 °C 58 % 76 % 1004,1 hPa 0,0 l/m² 3,2 km/h (1 Bft) SO 127 ° 1 min 513 W/m² 16,9 °C 21,3 °C 4,8 km/h (1 Bft)
21.09.2023 10:33 24,0 °C 21,3 °C 58 % 74 % 1004,1 hPa 0,0 l/m² 5,1 km/h (1 Bft) SO 132 ° 1 min 515 W/m² 16,5 °C 21,3 °C 6,4 km/h (2 Bft)
21.09.2023 10:34 24,1 °C 21,3 °C 58 % 73 % 1004,1 hPa 0,0 l/m² 4,6 km/h (1 Bft) SO 132 ° 1 min 517 W/m² 16,3 °C 21,3 °C 6,4 km/h (2 Bft)
21.09.2023 10:35 24,1 °C 21,4 °C 58 % 74 % 1004,1 hPa 0,0 l/m² 6,2 km/h (2 Bft) O-SO 122 ° 1 min 519 W/m² 16,6 °C 21,4 °C 8,0 km/h (2 Bft)
21.09.2023 10:36 24,1 °C 21,4 °C 58 % 75 % 1004,1 hPa 0,0 l/m² 3,2 km/h (1 Bft) SO 125 ° 1 min 520 W/m² 16,8 °C 21,4 °C 4,8 km/h (1 Bft)
21.09.2023 10:37 24,1 °C 21,6 °C 58 % 75 % 1004,1 hPa 0,0 l/m² 3,2 km/h (1 Bft) SO 124 ° 1 min 524 W/m² 17,0 °C 21,6 °C 6,4 km/h (2 Bft)
21.09.2023 10:38 24,1 °C 21,6 °C 58 % 73 % 1004,0 hPa 0,0 l/m² 9,4 km/h (2 Bft) O-SO 109 ° 1 min 526 W/m² 16,5 °C 20,6 °C 11,3 km/h (2 Bft)
21.09.2023 10:39 24,1 °C 21,5 °C 58 % 72 % 1004,0 hPa 0,0 l/m² 4,4 km/h (1 Bft) O-SO 110 ° 1 min 527 W/m² 16,2 °C 21,5 °C 6,4 km/h (2 Bft)
21.09.2023 10:40 24,1 °C 21,4 °C 58 % 74 % 1004,0 hPa 0,0 l/m² 3,6 km/h (1 Bft) O-SO 108 ° 1 min 529 W/m² 16,6 °C 21,4 °C 4,8 km/h (1 Bft)
21.09.2023 10:41 24,1 °C 21,4 °C 58 % 74 % 1004,0 hPa 0,0 l/m² 3,4 km/h (1 Bft) O-SO 108 ° 1 min 531 W/m² 16,6 °C 21,4 °C 4,8 km/h (1 Bft)
21.09.2023 10:42 24,1 °C 21,5 °C 58 % 74 % 1004,0 hPa 0,0 l/m² 6,1 km/h (2 Bft) O-SO 118 ° 1 min 533 W/m² 16,7 °C 21,5 °C 9,7 km/h (2 Bft)
21.09.2023 10:43 24,1 °C 21,6 °C 58 % 74 % 1004,1 hPa 0,0 l/m² 6,2 km/h (2 Bft) SO 142 ° 1 min 534 W/m² 16,8 °C 21,6 °C 8,0 km/h (2 Bft)
21.09.2023 10:44 24,1 °C 21,6 °C 58 % 73 % 1004,0 hPa 0,0 l/m² 7,2 km/h (2 Bft) SO 138 ° 1 min 536 W/m² 16,5 °C 21,3 °C 11,3 km/h (2 Bft)
21.09.2023 10:45 24,1 °C 21,6 °C 58 % 75 % 1004,0 hPa 0,0 l/m² 8,6 km/h (2 Bft) SO 146 ° 1 min 536 W/m² 17,0 °C 20,8 °C 12,9 km/h (3 Bft)
21.09.2023 10:46 24,1 °C 21,6 °C 58 % 73 % 1004,1 hPa 0,0 l/m² 6,2 km/h (2 Bft) S-SO 152 ° 1 min 540 W/m² 16,5 °C 21,6 °C 8,0 km/h (2 Bft)
21.09.2023 10:47 24,1 °C 21,6 °C 58 % 73 % 1004,1 hPa 0,0 l/m² 5,8 km/h (2 Bft) S-SO 152 ° 1 min 541 W/m² 16,5 °C 21,6 °C 6,4 km/h (2 Bft)
21.09.2023 10:48 24,2 °C 21,6 °C 58 % 72 % 1004,1 hPa 0,0 l/m² 5,6 km/h (2 Bft) S-SO 150 ° 1 min 541 W/m² 16,3 °C 21,6 °C 6,4 km/h (2 Bft)
21.09.2023 10:49 24,2 °C 21,7 °C 58 % 76 % 1004,1 hPa 0,0 l/m² 2,8 km/h (1 Bft) S-SO 153 ° 1 min 543 W/m² 17,3 °C 21,7 °C 4,8 km/h (1 Bft)
21.09.2023 10:50 24,2 °C 21,8 °C 58 % 75 % 1004,1 hPa 0,0 l/m² 3,3 km/h (1 Bft) S-SO 153 ° 1 min 543 W/m² 17,2 °C 21,8 °C 4,8 km/h (1 Bft)
21.09.2023 10:51 24,2 °C 21,8 °C 58 % 74 % 1004,1 hPa 0,0 l/m² 4,7 km/h (1 Bft) S-SO 157 ° 1 min 547 W/m² 17,0 °C 21,8 °C 9,7 km/h (2 Bft)
21.09.2023 10:52 24,2 °C 21,8 °C 58 % 73 % 1004,1 hPa 0,0 l/m² 5,4 km/h (2 Bft) S-SO 153 ° 1 min 547 W/m² 16,7 °C 21,8 °C 9,7 km/h (2 Bft)
21.09.2023 10:53 24,2 °C 21,8 °C 58 % 71 % 1004,1 hPa 0,0 l/m² 4,8 km/h (1 Bft) S-SO 152 ° 1 min 548 W/m² 16,3 °C 21,8 °C 6,4 km/h (2 Bft)
21.09.2023 10:54 24,2 °C 21,8 °C 58 % 72 % 1004,1 hPa 0,0 l/m² 4,8 km/h (1 Bft) S-SO 151 ° 1 min 550 W/m² 16,5 °C 21,8 °C 6,4 km/h (2 Bft)
21.09.2023 10:55 24,2 °C 21,8 °C 58 % 75 % 1004,1 hPa 0,0 l/m² 3,2 km/h (1 Bft) S-SO 151 ° 1 min 554 W/m² 17,2 °C 21,8 °C 4,8 km/h (1 Bft)
21.09.2023 10:56 24,2 °C 21,9 °C 58 % 73 % 1004,0 hPa 0,0 l/m² 3,6 km/h (1 Bft) S-SO 151 ° 1 min 555 W/m² 16,8 °C 21,9 °C 4,8 km/h (1 Bft)
21.09.2023 10:57 24,2 °C 21,9 °C 58 % 72 % 1004,0 hPa 0,0 l/m² 5,4 km/h (2 Bft) S-SO 148 ° 1 min 557 W/m² 16,6 °C 21,9 °C 8,0 km/h (2 Bft)
21.09.2023 10:58 24,2 °C 21,9 °C 58 % 74 % 1004,0 hPa 0,0 l/m² 3,7 km/h (1 Bft) S-SO 153 ° 1 min 559 W/m² 17,0 °C 21,9 °C 6,4 km/h (2 Bft)
21.09.2023 10:59 24,2 °C 21,9 °C 58 % 74 % 1004,0 hPa 0,0 l/m² 3,6 km/h (1 Bft) S-SO 150 ° 1 min 561 W/m² 17,0 °C 21,9 °C 6,4 km/h (2 Bft)
21.09.2023 11:00 24,2 °C 22,1 °C 58 % 73 % 1003,9 hPa 0,0 l/m² 5,6 km/h (2 Bft) SO 146 ° 1 min 563 W/m² 17,0 °C 22,1 °C 8,0 km/h (2 Bft)
21.09.2023 11:01 24,2 °C 22,1 °C 58 % 73 % 1004,0 hPa 0,0 l/m² 3,5 km/h (1 Bft) SO 145 ° 1 min 564 W/m² 17,0 °C 22,1 °C 4,8 km/h (1 Bft)
21.09.2023 11:02 24,3 °C 22,2 °C 58 % 74 % 1003,9 hPa 0,0 l/m² 5,2 km/h (1 Bft) S-SO 149 ° 1 min 566 W/m² 17,3 °C 22,2 °C 8,0 km/h (2 Bft)
21.09.2023 11:03 24,3 °C 22,2 °C 58 % 73 % 1004,0 hPa 0,0 l/m² 3,0 km/h (1 Bft) S-SO 150 ° 1 min 568 W/m² 17,1 °C 22,2 °C 4,8 km/h (1 Bft)
21.09.2023 11:04 24,3 °C 22,3 °C 58 % 72 % 1004,0 hPa 0,0 l/m² 2,2 km/h (1 Bft) S-SO 150 ° 1 min 568 W/m² 17,0 °C 22,3 °C 3,2 km/h (1 Bft)
21.09.2023 11:05 24,3 °C 22,2 °C 58 % 72 % 1003,9 hPa 0,0 l/m² 3,6 km/h (1 Bft) S-SO 150 ° 1 min 570 W/m² 16,9 °C 22,2 °C 4,8 km/h (1 Bft)
21.09.2023 11:06 24,3 °C 22,2 °C 58 % 73 % 1003,9 hPa 0,0 l/m² 4,6 km/h (1 Bft) S-SO 147 ° 1 min 571 W/m² 17,1 °C 22,2 °C 6,4 km/h (2 Bft)
21.09.2023 11:07 24,3 °C 22,3 °C 58 % 74 % 1003,9 hPa 0,0 l/m² 3,2 km/h (1 Bft) S-SO 147 ° 1 min 573 W/m² 17,4 °C 22,3 °C 4,8 km/h (1 Bft)
21.09.2023 11:08 24,3 °C 22,2 °C 58 % 71 % 1003,9 hPa 0,0 l/m² 1,3 km/h (1 Bft) S-SO 147 ° 1 min 575 W/m² 16,7 °C 22,2 °C 3,2 km/h (1 Bft)
21.09.2023 11:09 24,3 °C 22,2 °C 58 % 71 % 1003,9 hPa 0,0 l/m² 2,3 km/h (1 Bft) S-SO 148 ° 1 min 575 W/m² 16,7 °C 22,2 °C 3,2 km/h (1 Bft)
21.09.2023 11:10 24,3 °C 22,2 °C 58 % 73 % 1003,9 hPa 0,0 l/m² 5,3 km/h (1 Bft) S-SO 153 ° 1 min 577 W/m² 17,1 °C 22,2 °C 6,4 km/h (2 Bft)
21.09.2023 11:11 24,3 °C 22,3 °C 58 % 74 % 1003,9 hPa 0,0 l/m² 5,4 km/h (2 Bft) S-SO 153 ° 1 min 578 W/m² 17,4 °C 22,3 °C 8,0 km/h (2 Bft)
21.09.2023 11:12 24,3 °C 22,3 °C 58 % 72 % 1003,9 hPa 0,0 l/m² 5,2 km/h (1 Bft) S-SO 154 ° 1 min 582 W/m² 17,0 °C 22,3 °C 6,4 km/h (2 Bft)
21.09.2023 11:13 24,3 °C 22,3 °C 58 % 72 % 1003,8 hPa 0,0 l/m² 2,4 km/h (1 Bft) S-SO 154 ° 1 min 584 W/m² 17,0 °C 22,3 °C 4,8 km/h (1 Bft)
21.09.2023 11:14 24,4 °C 22,4 °C 58 % 73 % 1003,9 hPa 0,0 l/m² 4,8 km/h (1 Bft) SO 130 ° 1 min 584 W/m² 17,3 °C 22,4 °C 8,0 km/h (2 Bft)
21.09.2023 11:15 24,4 °C 22,4 °C 58 % 70 % 1003,9 hPa 0,0 l/m² 6,4 km/h (2 Bft) SO 130 ° 1 min 585 W/m² 16,7 °C 22,4 °C 11,3 km/h (2 Bft)
21.09.2023 11:16 24,4 °C 22,4 °C 58 % 70 % 1003,9 hPa 0,0 l/m² 9,7 km/h (2 Bft) SO 132 ° 1 min 587 W/m² 16,7 °C 21,4 °C 14,5 km/h (3 Bft)
21.09.2023 11:17 24,4 °C 22,6 °C 58 % 72 % 1003,8 hPa 0,0 l/m² 5,9 km/h (2 Bft) SO 134 ° 1 min 589 W/m² 17,3 °C 22,6 °C 6,4 km/h (2 Bft)
21.09.2023 11:18 24,4 °C 22,6 °C 58 % 69 % 1003,8 hPa 0,0 l/m² 6,6 km/h (2 Bft) S 169 ° 1 min 591 W/m² 16,6 °C 22,5 °C 9,7 km/h (2 Bft)
21.09.2023 11:19 24,4 °C 22,6 °C 58 % 70 % 1003,9 hPa 0,0 l/m² 7,2 km/h (2 Bft) S 180 ° 1 min 592 W/m² 16,8 °C 22,3 °C 9,7 km/h (2 Bft)
21.09.2023 11:20 24,4 °C 22,7 °C 58 % 70 % 1003,8 hPa 0,0 l/m² 6,2 km/h (2 Bft) S 181 ° 1 min 594 W/m² 16,9 °C 22,7 °C 8,0 km/h (2 Bft)
21.09.2023 11:21 24,4 °C 22,7 °C 58 % 69 % 1003,8 hPa 0,0 l/m² 3,6 km/h (1 Bft) S 181 ° 1 min 596 W/m² 16,7 °C 22,7 °C 6,4 km/h (2 Bft)
21.09.2023 11:22 24,4 °C 22,7 °C 58 % 70 % 1003,8 hPa 0,0 l/m² 3,5 km/h (1 Bft) S 178 ° 1 min 596 W/m² 16,9 °C 22,7 °C 4,8 km/h (1 Bft)
21.09.2023 11:23 24,4 °C 22,7 °C 58 % 70 % 1003,8 hPa 0,0 l/m² 1,3 km/h (1 Bft) S 178 ° 1 min 596 W/m² 16,9 °C 22,7 °C 3,2 km/h (1 Bft)
21.09.2023 11:24 24,4 °C 22,8 °C 58 % 72 % 1003,8 hPa 0,0 l/m² 2,9 km/h (1 Bft) S 178 ° 1 min 599 W/m² 17,5 °C 22,8 °C 4,8 km/h (1 Bft)
21.09.2023 11:25 24,4 °C 22,9 °C 58 % 72 % 1003,8 hPa 0,0 l/m² 1,9 km/h (1 Bft) S 178 ° 1 min 599 W/m² 17,6 °C 22,9 °C 4,8 km/h (1 Bft)
21.09.2023 11:26 24,4 °C 23,0 °C 58 % 70 % 1003,7 hPa 0,0 l/m² 3,7 km/h (1 Bft) S 178 ° 1 min 601 W/m² 17,2 °C 23,0 °C 6,4 km/h (2 Bft)
21.09.2023 11:27 24,4 °C 23,0 °C 58 % 71 % 1003,7 hPa 0,0 l/m² 5,0 km/h (1 Bft) S 178 ° 1 min 603 W/m² 17,4 °C 23,0 °C 6,4 km/h (2 Bft)
21.09.2023 11:28 24,4 °C 23,1 °C 58 % 71 % 1003,7 hPa 0,0 l/m² 7,2 km/h (2 Bft) S-SO 155 ° 1 min 605 W/m² 17,5 °C 22,8 °C 11,3 km/h (2 Bft)
21.09.2023 11:29 24,4 °C 23,1 °C 58 % 69 % 1003,7 hPa 0,0 l/m² 8,2 km/h (2 Bft) SO 138 ° 1 min 608 W/m² 17,1 °C 22,5 °C 11,3 km/h (2 Bft)
21.09.2023 11:30 24,4 °C 23,1 °C 58 % 69 % 1003,7 hPa 0,0 l/m² 5,1 km/h (1 Bft) S-SO 158 ° 1 min 610 W/m² 17,1 °C 23,1 °C 8,0 km/h (2 Bft)
21.09.2023 11:31 24,5 °C 23,2 °C 58 % 70 % 1003,7 hPa 0,0 l/m² 6,9 km/h (2 Bft) S-SO 160 ° 1 min 610 W/m² 17,4 °C 23,0 °C 8,0 km/h (2 Bft)
21.09.2023 11:32 24,5 °C 23,2 °C 58 % 71 % 1003,7 hPa 0,0 l/m² 5,5 km/h (2 Bft) S-SO 161 ° 1 min 610 W/m² 17,6 °C 23,2 °C 8,0 km/h (2 Bft)
21.09.2023 11:33 24,5 °C 23,2 °C 58 % 68 % 1003,7 hPa 0,0 l/m² 5,8 km/h (2 Bft) S-SO 162 ° 1 min 612 W/m² 17,0 °C 23,2 °C 9,7 km/h (2 Bft)
21.09.2023 11:34 24,5 °C 23,3 °C 58 % 69 % 1003,6 hPa 0,0 l/m² 7,2 km/h (2 Bft) O-SO 113 ° 1 min 612 W/m² 17,3 °C 23,1 °C 9,7 km/h (2 Bft)
21.09.2023 11:35 24,5 °C 23,3 °C 58 % 69 % 1003,6 hPa 0,0 l/m² 6,9 km/h (2 Bft) SO 131 ° 1 min 613 W/m² 17,3 °C 23,1 °C 11,3 km/h (2 Bft)
21.09.2023 11:36 24,6 °C 23,4 °C 58 % 70 % 1003,6 hPa 0,0 l/m² 8,3 km/h (2 Bft) S-SO 159 ° 1 min 615 W/m² 17,6 °C 22,8 °C 11,3 km/h (2 Bft)
21.09.2023 11:37 24,6 °C 23,4 °C 57 % 69 % 1003,6 hPa 0,0 l/m² 8,9 km/h (2 Bft) O-SO 102 ° 1 min 617 W/m² 17,4 °C 22,7 °C 11,3 km/h (2 Bft)
21.09.2023 11:38 24,6 °C 23,4 °C 57 % 70 % 1003,6 hPa 0,0 l/m² 7,4 km/h (2 Bft) O-SO 116 ° 1 min 617 W/m² 17,6 °C 23,1 °C 11,3 km/h (2 Bft)
21.09.2023 11:39 24,6 °C 23,4 °C 57 % 68 % 1003,6 hPa 0,0 l/m² 4,0 km/h (1 Bft) SO 130 ° 1 min 619 W/m² 17,1 °C 23,4 °C 8,0 km/h (2 Bft)
21.09.2023 11:40 24,6 °C 23,4 °C 58 % 68 % 1003,5 hPa 0,0 l/m² 6,4 km/h (2 Bft) SO 142 ° 1 min 619 W/m² 17,1 °C 23,4 °C 11,3 km/h (2 Bft)
21.09.2023 11:41 24,6 °C 23,5 °C 57 % 70 % 1003,6 hPa 0,0 l/m² 3,4 km/h (1 Bft) SO 140 ° 1 min 622 W/m² 17,7 °C 23,5 °C 4,8 km/h (1 Bft)
21.09.2023 11:42 24,6 °C 23,6 °C 57 % 69 % 1003,6 hPa 0,0 l/m² 6,0 km/h (2 Bft) SO 138 ° 1 min 624 W/m² 17,6 °C 23,6 °C 11,3 km/h (2 Bft)
21.09.2023 11:43 24,6 °C 23,6 °C 57 % 68 % 1003,5 hPa 0,0 l/m² 8,0 km/h (2 Bft) O-SO 114 ° 1 min 626 W/m² 17,3 °C 23,1 °C 9,7 km/h (2 Bft)
21.09.2023 11:44 24,6 °C 23,7 °C 57 % 67 % 1003,6 hPa 0,0 l/m² 5,1 km/h (1 Bft) O-SO 123 ° 1 min 628 W/m² 17,2 °C 23,7 °C 9,7 km/h (2 Bft)
21.09.2023 11:45 24,6 °C 23,8 °C 57 % 69 % 1003,5 hPa 0,0 l/m² 4,6 km/h (1 Bft) O-SO 116 ° 1 min 631 W/m² 17,8 °C 23,8 °C 6,4 km/h (2 Bft)
21.09.2023 11:46 24,6 °C 23,8 °C 57 % 68 % 1003,5 hPa 0,0 l/m² 6,2 km/h (2 Bft) SO 130 ° 1 min 631 W/m² 17,5 °C 23,8 °C 9,7 km/h (2 Bft)
21.09.2023 11:47 24,6 °C 23,9 °C 57 % 69 % 1003,4 hPa 0,0 l/m² 5,6 km/h (2 Bft) S-SO 159 ° 1 min 638 W/m² 17,9 °C 23,9 °C 8,0 km/h (2 Bft)
21.09.2023 11:48 24,6 °C 23,9 °C 57 % 66 % 1003,4 hPa 0,0 l/m² 4,3 km/h (1 Bft) S-SO 159 ° 1 min 638 W/m² 17,1 °C 23,9 °C 8,0 km/h (2 Bft)
21.09.2023 11:49 24,6 °C 24,1 °C 57 % 69 % 1003,4 hPa 0,0 l/m² 6,6 km/h (2 Bft) S-SO 165 ° 1 min 638 W/m² 18,0 °C 24,1 °C 14,5 km/h (3 Bft)
21.09.2023 11:50 24,6 °C 24,1 °C 57 % 68 % 1003,5 hPa 0,0 l/m² 9,3 km/h (2 Bft) SO 133 ° 1 min 608 W/m² 17,8 °C 23,3 °C 14,5 km/h (3 Bft)
21.09.2023 11:51 24,6 °C 24,1 °C 57 % 67 % 1003,5 hPa 0,0 l/m² 5,8 km/h (2 Bft) SO 131 ° 1 min 642 W/m² 17,6 °C 24,1 °C 8,0 km/h (2 Bft)
21.09.2023 11:52 24,7 °C 24,1 °C 57 % 69 % 1003,5 hPa 0,0 l/m² 4,4 km/h (1 Bft) SO 131 ° 1 min 640 W/m² 18,0 °C 24,1 °C 6,4 km/h (2 Bft)
21.09.2023 11:53 24,7 °C 24,2 °C 57 % 68 % 1003,4 hPa 0,0 l/m² 4,4 km/h (1 Bft) O-SO 122 ° 1 min 642 W/m² 17,9 °C 24,2 °C 6,4 km/h (2 Bft)
21.09.2023 11:54 24,6 °C 24,3 °C 57 % 68 % 1003,4 hPa 0,0 l/m² 6,1 km/h (2 Bft) O-SO 116 ° 1 min 642 W/m² 18,0 °C 24,3 °C 9,7 km/h (2 Bft)
21.09.2023 11:55 24,7 °C 24,3 °C 57 % 68 % 1003,4 hPa 0,0 l/m² 8,9 km/h (2 Bft) O-SO 112 ° 1 min 643 W/m² 18,0 °C 23,6 °C 14,5 km/h (3 Bft)
21.09.2023 11:57 24,7 °C 24,2 °C 57 % 68 % 1003,4 hPa 0,0 l/m² 8,0 km/h (2 Bft) SO 124 ° 2 min 647 W/m² 17,9 °C 23,8 °C 12,9 km/h (3 Bft)
21.09.2023 11:58 24,7 °C 24,1 °C 57 % 66 % 1003,4 hPa 0,0 l/m² 5,4 km/h (2 Bft) SO 128 ° 1 min 650 W/m² 17,3 °C 24,1 °C 6,4 km/h (2 Bft)
21.09.2023 11:59 24,7 °C 24,2 °C 57 % 69 % 1003,4 hPa 0,0 l/m² 7,3 km/h (2 Bft) SO 134 ° 1 min 661 W/m² 18,1 °C 23,9 °C 11,3 km/h (2 Bft)
21.09.2023 12:00 24,7 °C 24,1 °C 57 % 66 % 1003,4 hPa 0,0 l/m² 3,2 km/h (1 Bft) SO 134 ° 1 min 666 W/m² 17,3 °C 24,1 °C 6,4 km/h (2 Bft)
21.09.2023 12:01 24,7 °C 24,1 °C 57 % 66 % 1003,4 hPa 0,0 l/m² 1,7 km/h (1 Bft) SO 130 ° 1 min 671 W/m² 17,3 °C 24,1 °C 6,4 km/h (2 Bft)
21.09.2023 12:02 24,7 °C 24,2 °C 57 % 69 % 1003,4 hPa 0,0 l/m² 4,7 km/h (1 Bft) SO 130 ° 1 min 680 W/m² 18,1 °C 24,2 °C 8,0 km/h (2 Bft)
21.09.2023 12:03 24,7 °C 24,2 °C 57 % 66 % 1003,5 hPa 0,0 l/m² 2,0 km/h (1 Bft) SO 130 ° 1 min 693 W/m² 17,4 °C 24,2 °C 3,2 km/h (1 Bft)
21.09.2023 12:04 24,7 °C 24,3 °C 57 % 66 % 1003,4 hPa 0,0 l/m² 1,5 km/h (1 Bft) SO 130 ° 1 min 596 W/m² 17,5 °C 24,3 °C 3,2 km/h (1 Bft)
21.09.2023 12:05 24,7 °C 24,4 °C 57 % 67 % 1003,4 hPa 0,0 l/m² 3,8 km/h (1 Bft) O-SO 121 ° 1 min 513 W/m² 17,9 °C 24,4 °C 6,4 km/h (2 Bft)
21.09.2023 12:06 24,7 °C 24,4 °C 57 % 66 % 1003,4 hPa 0,0 l/m² 8,2 km/h (2 Bft) SO 139 ° 1 min 513 W/m² 17,6 °C 23,9 °C 9,7 km/h (2 Bft)
21.09.2023 12:07 24,7 °C 24,5 °C 57 % 68 % 1003,4 hPa 0,0 l/m² 5,2 km/h (1 Bft) SO 131 ° 1 min 654 W/m² 18,2 °C 24,5 °C 8,0 km/h (2 Bft)
21.09.2023 12:08 24,7 °C 24,6 °C 57 % 66 % 1003,3 hPa 0,0 l/m² 0,3 km/h (0 Bft) SO 131 ° 1 min 703 W/m² 17,8 °C 24,6 °C 1,6 km/h (1 Bft)
21.09.2023 12:09 24,7 °C 24,7 °C 57 % 68 % 1003,3 hPa 0,0 l/m² 0,1 km/h (0 Bft) SO 131 ° 1 min 707 W/m² 18,4 °C 24,7 °C 1,6 km/h (1 Bft)
21.09.2023 12:10 24,7 °C 24,8 °C 57 % 68 % 1003,3 hPa 0,0 l/m² 4,1 km/h (1 Bft) O 81 ° 1 min 633 W/m² 18,5 °C 24,8 °C 6,4 km/h (2 Bft)
21.09.2023 12:11 24,7 °C 24,9 °C 57 % 67 % 1003,4 hPa 0,0 l/m² 5,2 km/h (1 Bft) O-SO 111 ° 1 min 635 W/m² 18,3 °C 24,9 °C 6,4 km/h (2 Bft)
21.09.2023 12:12 24,7 °C 24,8 °C 57 % 65 % 1003,3 hPa 0,0 l/m² 6,4 km/h (2 Bft) SO 128 ° 1 min 538 W/m² 17,8 °C 24,8 °C 8,0 km/h (2 Bft)
21.09.2023 12:13 24,8 °C 24,8 °C 57 % 64 % 1003,3 hPa 0,0 l/m² 6,1 km/h (2 Bft) SO 125 ° 1 min 538 W/m² 17,5 °C 24,8 °C 8,0 km/h (2 Bft)
21.09.2023 12:14 24,7 °C 24,7 °C 57 % 66 % 1003,3 hPa 0,0 l/m² 3,0 km/h (1 Bft) SO 125 ° 1 min 770 W/m² 17,9 °C 24,7 °C 6,4 km/h (2 Bft)
21.09.2023 12:15 24,7 °C 24,8 °C 57 % 67 % 1003,3 hPa 0,0 l/m² 3,1 km/h (1 Bft) SO 124 ° 1 min 770 W/m² 18,2 °C 24,8 °C 4,8 km/h (1 Bft)
21.09.2023 12:16 24,7 °C 24,8 °C 57 % 67 % 1003,3 hPa 0,0 l/m² 4,7 km/h (1 Bft) O 85 ° 1 min 346 W/m² 18,2 °C 24,8 °C 9,7 km/h (2 Bft)
21.09.2023 12:17 24,7 °C 24,9 °C 57 % 65 % 1003,3 hPa 0,0 l/m² 7,1 km/h (2 Bft) O 90 ° 1 min 353 W/m² 17,9 °C 24,7 °C 11,3 km/h (2 Bft)
21.09.2023 12:18 24,7 °C 24,8 °C 57 % 65 % 1003,3 hPa 0,0 l/m² 6,8 km/h (2 Bft) O 94 ° 1 min 392 W/m² 17,8 °C 24,7 °C 9,7 km/h (2 Bft)
21.09.2023 12:19 24,7 °C 24,7 °C 57 % 66 % 1003,3 hPa 0,0 l/m² 2,3 km/h (1 Bft) O 94 ° 1 min 345 W/m² 17,9 °C 24,7 °C 4,8 km/h (1 Bft)
21.09.2023 12:20 24,7 °C 24,6 °C 57 % 63 % 1003,3 hPa 0,0 l/m² 0,0 km/h (0 Bft) O 94 ° 1 min 334 W/m² 17,1 °C 24,6 °C 0,0 km/h (0 Bft)
21.09.2023 12:21 24,7 °C 24,4 °C 57 % 65 % 1003,2 hPa 0,0 l/m² 0,0 km/h (0 Bft) O 94 ° 1 min 366 W/m² 17,4 °C 24,4 °C 0,0 km/h (0 Bft)
21.09.2023 12:22 24,7 °C 24,4 °C 57 % 67 % 1003,2 hPa 0,0 l/m² 0,0 km/h (0 Bft) O 94 ° 1 min 427 W/m² 17,9 °C 24,4 °C 0,0 km/h (0 Bft)
21.09.2023 12:23 24,7 °C 24,4 °C 57 % 66 % 1003,1 hPa 0,0 l/m² 2,5 km/h (1 Bft) O 98 ° 1 min 373 W/m² 17,6 °C 24,4 °C 4,8 km/h (1 Bft)
21.09.2023 12:24 24,7 °C 24,5 °C 57 % 67 % 1003,2 hPa 0,0 l/m² 2,9 km/h (1 Bft) O 98 ° 1 min 364 W/m² 18,0 °C 24,5 °C 4,8 km/h (1 Bft)
21.09.2023 12:25 24,7 °C 24,4 °C 57 % 65 % 1003,1 hPa 0,0 l/m² 2,6 km/h (1 Bft) O 98 ° 1 min 364 W/m² 17,4 °C 24,4 °C 3,2 km/h (1 Bft)
21.09.2023 12:26 24,7 °C 24,5 °C 57 % 65 % 1003,1 hPa 0,0 l/m² 2,6 km/h (1 Bft) O 98 ° 1 min 364 W/m² 17,5 °C 24,5 °C 3,2 km/h (1 Bft)
21.09.2023 12:27 24,7 °C 24,6 °C 57 % 64 % 1003,1 hPa 0,0 l/m² 4,3 km/h (1 Bft) O-SO 102 ° 1 min 492 W/m² 17,3 °C 24,6 °C 4,8 km/h (1 Bft)
21.09.2023 12:28 24,7 °C 24,6 °C 57 % 63 % 1003,1 hPa 0,0 l/m² 2,3 km/h (1 Bft) O-SO 102 ° 1 min 403 W/m² 17,1 °C 24,6 °C 3,2 km/h (1 Bft)
21.09.2023 12:29 24,7 °C 24,7 °C 57 % 64 % 1003,1 hPa 0,0 l/m² 0,6 km/h (0 Bft) O-SO 102 ° 1 min 381 W/m² 17,4 °C 24,7 °C 1,6 km/h (1 Bft)
21.09.2023 12:30 24,7 °C 24,8 °C 57 % 65 % 1003,0 hPa 0,0 l/m² 0,5 km/h (0 Bft) O-SO 102 ° 1 min 371 W/m² 17,8 °C 24,8 °C 3,2 km/h (1 Bft)
21.09.2023 12:31 24,7 °C 24,8 °C 57 % 65 % 1003,0 hPa 0,0 l/m² 3,6 km/h (1 Bft) O-SO 102 ° 1 min 367 W/m² 17,8 °C 24,8 °C 4,8 km/h (1 Bft)
21.09.2023 12:32 24,7 °C 24,8 °C 57 % 65 % 1003,0 hPa 0,0 l/m² 1,3 km/h (1 Bft) O-SO 102 ° 1 min 359 W/m² 17,8 °C 24,8 °C 3,2 km/h (1 Bft)
21.09.2023 12:33 24,7 °C 24,8 °C 57 % 64 % 1003,0 hPa 0,0 l/m² 1,0 km/h (0 Bft) O-SO 102 ° 1 min 352 W/m² 17,5 °C 24,8 °C 3,2 km/h (1 Bft)
21.09.2023 12:34 24,7 °C 24,9 °C 57 % 67 % 1003,0 hPa 0,0 l/m² 5,9 km/h (2 Bft) O 95 ° 1 min 348 W/m² 18,3 °C 24,9 °C 6,4 km/h (2 Bft)
21.09.2023 12:35 24,6 °C 24,9 °C 57 % 64 % 1003,0 hPa 0,0 l/m² 5,1 km/h (1 Bft) O 95 ° 1 min 348 W/m² 17,6 °C 24,9 °C 6,4 km/h (2 Bft)
21.09.2023 12:36 24,6 °C 24,9 °C 57 % 66 % 1003,0 hPa 0,0 l/m² 3,7 km/h (1 Bft) O 96 ° 1 min 353 W/m² 18,1 °C 24,9 °C 6,4 km/h (2 Bft)
21.09.2023 12:37 24,6 °C 24,8 °C 57 % 64 % 1003,1 hPa 0,0 l/m² 3,8 km/h (1 Bft) O 97 ° 1 min 359 W/m² 17,5 °C 24,8 °C 4,8 km/h (1 Bft)
21.09.2023 12:38 24,6 °C 24,8 °C 57 % 66 % 1003,0 hPa 0,0 l/m² 5,9 km/h (2 Bft) O 92 ° 1 min 366 W/m² 18,0 °C 24,8 °C 9,7 km/h (2 Bft)
21.09.2023 12:39 24,6 °C 24,8 °C 57 % 65 % 1003,0 hPa 0,0 l/m² 6,6 km/h (2 Bft) O 92 ° 1 min 371 W/m² 17,8 °C 24,8 °C 9,7 km/h (2 Bft)
21.09.2023 12:40 24,6 °C 24,8 °C 57 % 66 % 1003,0 hPa 0,0 l/m² 4,3 km/h (1 Bft) O 90 ° 1 min 403 W/m² 18,0 °C 24,8 °C 6,4 km/h (2 Bft)
21.09.2023 12:41 24,6 °C 24,8 °C 57 % 67 % 1003,0 hPa 0,0 l/m² 4,4 km/h (1 Bft) O 91 ° 1 min 401 W/m² 18,2 °C 24,8 °C 9,7 km/h (2 Bft)
21.09.2023 12:42 24,6 °C 24,8 °C 57 % 67 % 1002,9 hPa 0,0 l/m² 5,8 km/h (2 Bft) O 98 ° 1 min 429 W/m² 18,2 °C 24,8 °C 9,7 km/h (2 Bft)
21.09.2023 12:43 24,6 °C 24,8 °C 57 % 65 % 1002,9 hPa 0,0 l/m² 7,2 km/h (2 Bft) SO 127 ° 1 min 429 W/m² 17,8 °C 24,6 °C 11,3 km/h (2 Bft)
21.09.2023 12:45 24,5 °C 24,9 °C 58 % 63 % 1002,9 hPa 0,0 l/m² 8,7 km/h (2 Bft) SO 132 ° 2 min 490 W/m² 17,4 °C 24,3 °C 12,9 km/h (3 Bft)
21.09.2023 12:46 24,6 °C 25,0 °C 57 % 65 % 1002,9 hPa 0,0 l/m² 7,4 km/h (2 Bft) O 101 ° 1 min 480 W/m² 17,9 °C 24,7 °C 9,7 km/h (2 Bft)
21.09.2023 12:47 24,5 °C 25,1 °C 58 % 64 % 1003,0 hPa 0,0 l/m² 4,3 km/h (1 Bft) O 101 ° 1 min 682 W/m² 17,8 °C 25,1 °C 9,7 km/h (2 Bft)
21.09.2023 12:48 24,5 °C 25,2 °C 58 % 66 % 1002,9 hPa 0,0 l/m² 6,8 km/h (2 Bft) O 84 ° 1 min 682 W/m² 18,4 °C 25,1 °C 12,9 km/h (3 Bft)
21.09.2023 12:49 24,6 °C 25,3 °C 57 % 64 % 1002,9 hPa 0,0 l/m² 7,9 km/h (2 Bft) O-SO 107 ° 1 min 682 W/m² 18,0 °C 24,9 °C 12,9 km/h (3 Bft)
21.09.2023 12:50 24,5 °C 25,3 °C 58 % 64 % 1002,9 hPa 0,0 l/m² 10,5 km/h (2 Bft) O 93 ° 1 min 608 W/m² 18,0 °C 24,4 °C 14,5 km/h (3 Bft)
21.09.2023 12:51 24,5 °C 25,4 °C 58 % 64 % 1002,8 hPa 0,0 l/m² 10,9 km/h (2 Bft) O 89 ° 1 min 480 W/m² 18,1 °C 24,4 °C 14,5 km/h (3 Bft)
21.09.2023 12:52 24,6 °C 25,4 °C 58 % 65 % 1002,8 hPa 0,0 l/m² 10,0 km/h (2 Bft) O 101 ° 1 min 496 W/m² 18,3 °C 24,6 °C 14,5 km/h (3 Bft)
21.09.2023 12:53 24,6 °C 25,4 °C 58 % 66 % 1002,9 hPa 0,0 l/m² 6,8 km/h (2 Bft) O 95 ° 1 min 496 W/m² 18,6 °C 25,3 °C 11,3 km/h (2 Bft)
21.09.2023 12:54 24,6 °C 25,4 °C 58 % 67 % 1002,9 hPa 0,0 l/m² 6,5 km/h (2 Bft) O 98 ° 1 min 496 W/m² 18,8 °C 25,4 °C 9,7 km/h (2 Bft)
21.09.2023 12:55 24,5 °C 25,5 °C 58 % 64 % 1002,9 hPa 0,0 l/m² 10,8 km/h (2 Bft) O 88 ° 1 min 503 W/m² 18,2 °C 24,6 °C 16,1 km/h (3 Bft)
21.09.2023 12:56 24,5 °C 25,6 °C 58 % 65 % 1002,7 hPa 0,0 l/m² 11,3 km/h (2 Bft) O 97 ° 1 min 529 W/m² 18,5 °C 24,6 °C 16,1 km/h (3 Bft)
21.09.2023 12:57 24,6 °C 25,6 °C 58 % 62 % 1002,8 hPa 0,0 l/m² 12,7 km/h (3 Bft) O-SO 108 ° 1 min 626 W/m² 17,8 °C 24,4 °C 14,5 km/h (3 Bft)
21.09.2023 12:58 24,6 °C 25,6 °C 58 % 61 % 1002,8 hPa 0,0 l/m² 9,3 km/h (2 Bft) O-SO 118 ° 1 min 626 W/m² 17,5 °C 25,0 °C 12,9 km/h (3 Bft)
21.09.2023 12:59 24,6 °C 25,6 °C 58 % 63 % 1002,8 hPa 0,0 l/m² 6,8 km/h (2 Bft) O-SO 113 ° 1 min 626 W/m² 18,0 °C 25,5 °C 9,7 km/h (2 Bft)
21.09.2023 13:00 24,6 °C 25,6 °C 58 % 62 % 1002,7 hPa 0,0 l/m² 6,8 km/h (2 Bft) O-SO 107 ° 1 min 626 W/m² 17,8 °C 25,5 °C 9,7 km/h (2 Bft)
21.09.2023 13:01 24,6 °C 25,7 °C 58 % 63 % 1002,7 hPa 0,0 l/m² 6,2 km/h (2 Bft) O 94 ° 1 min 712 W/m² 18,1 °C 25,7 °C 6,4 km/h (2 Bft)
21.09.2023 13:02 24,6 °C 25,8 °C 58 % 62 % 1002,7 hPa 0,0 l/m² 7,2 km/h (2 Bft) O-SO 113 ° 1 min 712 W/m² 18,0 °C 25,6 °C 9,7 km/h (2 Bft)
21.09.2023 13:03 24,6 °C 25,8 °C 58 % 63 % 1002,8 hPa 0,0 l/m² 6,4 km/h (2 Bft) O-SO 110 ° 1 min 805 W/m² 18,2 °C 25,8 °C 11,3 km/h (2 Bft)
21.09.2023 13:04 24,6 °C 25,9 °C 58 % 62 % 1002,8 hPa 0,0 l/m² 9,2 km/h (2 Bft) O-SO 120 ° 1 min 842 W/m² 18,0 °C 25,3 °C 12,9 km/h (3 Bft)
21.09.2023 13:05 24,6 °C 26,0 °C 58 % 64 % 1002,7 hPa 0,0 l/m² 9,3 km/h (2 Bft) O 88 ° 1 min 874 W/m² 18,6 °C 25,4 °C 12,9 km/h (3 Bft)
21.09.2023 13:06 24,6 °C 26,2 °C 58 % 63 % 1002,7 hPa 0,0 l/m² 7,8 km/h (2 Bft) O 97 ° 1 min 874 W/m² 18,6 °C 25,9 °C 11,3 km/h (2 Bft)
21.09.2023 13:07 24,6 °C 26,3 °C 58 % 63 % 1002,8 hPa 0,0 l/m² 7,9 km/h (2 Bft) O-SO 105 ° 1 min 874 W/m² 18,7 °C 26,0 °C 11,3 km/h (2 Bft)
21.09.2023 13:08 24,7 °C 26,3 °C 58 % 62 % 1002,8 hPa 0,0 l/m² 5,7 km/h (2 Bft) O-SO 120 ° 1 min 874 W/m² 18,4 °C 26,3 °C 9,7 km/h (2 Bft)
21.09.2023 13:09 24,7 °C 26,2 °C 57 % 59 % 1002,7 hPa 0,0 l/m² 6,1 km/h (2 Bft) SO 131 ° 1 min 399 W/m² 17,5 °C 26,2 °C 8,0 km/h (2 Bft)
21.09.2023 13:10 24,7 °C 26,1 °C 57 % 60 % 1002,7 hPa 0,0 l/m² 5,6 km/h (2 Bft) O-SO 102 ° 1 min 399 W/m² 17,7 °C 26,1 °C 6,4 km/h (2 Bft)
21.09.2023 13:11 24,7 °C 26,1 °C 57 % 65 % 1002,8 hPa 0,0 l/m² 6,8 km/h (2 Bft) O-SO 116 ° 1 min 749 W/m² 19,0 °C 26,0 °C 9,7 km/h (2 Bft)
21.09.2023 13:12 24,7 °C 26,2 °C 57 % 61 % 1002,8 hPa 0,0 l/m² 6,3 km/h (2 Bft) O 101 ° 1 min 689 W/m² 18,1 °C 26,2 °C 9,7 km/h (2 Bft)
21.09.2023 13:13 24,7 °C 26,2 °C 57 % 62 % 1002,7 hPa 0,0 l/m² 4,8 km/h (1 Bft) O-SO 107 ° 1 min 710 W/m² 18,3 °C 26,2 °C 11,3 km/h (2 Bft)
21.09.2023 13:14 24,7 °C 26,2 °C 57 % 61 % 1002,7 hPa 0,0 l/m² 8,8 km/h (2 Bft) O-SO 107 ° 1 min 766 W/m² 18,1 °C 25,7 °C 12,9 km/h (3 Bft)
21.09.2023 13:15 24,7 °C 26,2 °C 57 % 61 % 1002,7 hPa 0,0 l/m² 12,3 km/h (2 Bft) SO 126 ° 1 min 886 W/m² 18,1 °C 25,1 °C 14,5 km/h (3 Bft)
21.09.2023 13:16 24,7 °C 26,3 °C 57 % 61 % 1002,7 hPa 0,0 l/m² 7,2 km/h (2 Bft) O-SO 103 ° 1 min 888 W/m² 18,2 °C 26,1 °C 11,3 km/h (2 Bft)
21.09.2023 13:17 24,7 °C 26,4 °C 57 % 62 % 1002,6 hPa 0,0 l/m² 5,1 km/h (1 Bft) O 81 ° 1 min 874 W/m² 18,5 °C 26,4 °C 14,5 km/h (3 Bft)
21.09.2023 13:18 24,7 °C 26,5 °C 57 % 62 % 1002,6 hPa 0,0 l/m² 8,6 km/h (2 Bft) O 99 ° 1 min 789 W/m² 18,6 °C 26,1 °C 14,5 km/h (3 Bft)
21.09.2023 13:19 24,7 °C 26,4 °C 57 % 61 % 1002,6 hPa 0,0 l/m² 10,2 km/h (2 Bft) O 80 ° 1 min 714 W/m² 18,3 °C 25,7 °C 14,5 km/h (3 Bft)
21.09.2023 13:20 24,7 °C 26,4 °C 57 % 62 % 1002,6 hPa 0,0 l/m² 12,8 km/h (3 Bft) O 92 ° 1 min 714 W/m² 18,5 °C 25,3 °C 17,7 km/h (3 Bft)
21.09.2023 13:21 24,7 °C 26,4 °C 57 % 60 % 1002,5 hPa 0,0 l/m² 9,7 km/h (2 Bft) O-NO 74 ° 1 min 714 W/m² 18,0 °C 25,8 °C 12,9 km/h (3 Bft)
21.09.2023 13:22 24,7 °C 26,3 °C 57 % 62 % 1002,5 hPa 0,0 l/m² 11,6 km/h (2 Bft) O 90 ° 1 min 455 W/m² 18,4 °C 25,3 °C 16,1 km/h (3 Bft)
21.09.2023 13:23 24,8 °C 26,2 °C 57 % 61 % 1002,5 hPa 0,0 l/m² 12,3 km/h (2 Bft) O 87 ° 1 min 418 W/m² 18,1 °C 25,1 °C 14,5 km/h (3 Bft)
21.09.2023 13:24 24,8 °C 26,1 °C 57 % 60 % 1002,4 hPa 0,0 l/m² 8,0 km/h (2 Bft) O 101 ° 1 min 401 W/m² 17,7 °C 25,8 °C 12,9 km/h (3 Bft)
21.09.2023 13:25 24,7 °C 26,1 °C 57 % 61 % 1002,4 hPa 0,0 l/m² 7,7 km/h (2 Bft) O 86 ° 1 min 445 W/m² 18,0 °C 25,8 °C 12,9 km/h (3 Bft)
21.09.2023 13:26 24,7 °C 25,9 °C 57 % 61 % 1002,4 hPa 0,0 l/m² 7,5 km/h (2 Bft) O-NO 72 ° 1 min 462 W/m² 17,8 °C 25,7 °C 11,3 km/h (2 Bft)
21.09.2023 13:27 24,7 °C 26,1 °C 57 % 64 % 1002,4 hPa 0,0 l/m² 6,5 km/h (2 Bft) O 86 ° 1 min 455 W/m² 18,7 °C 26,1 °C 9,7 km/h (2 Bft)
21.09.2023 13:28 24,7 °C 26,2 °C 57 % 62 % 1002,4 hPa 0,0 l/m² 9,5 km/h (2 Bft) O 85 ° 1 min 882 W/m² 18,3 °C 25,6 °C 11,3 km/h (2 Bft)
21.09.2023 13:29 24,7 °C 26,3 °C 57 % 61 % 1002,4 hPa 0,0 l/m² 10,1 km/h (2 Bft) O-SO 106 ° 1 min 879 W/m² 18,2 °C 25,6 °C 14,5 km/h (3 Bft)
21.09.2023 13:30 24,7 °C 26,4 °C 57 % 61 % 1002,4 hPa 0,0 l/m² 10,2 km/h (2 Bft) O-SO 109 ° 1 min 865 W/m² 18,3 °C 25,7 °C 12,9 km/h (3 Bft)
21.09.2023 13:31 24,8 °C 26,5 °C 57 % 59 % 1002,3 hPa 0,0 l/m² 10,9 km/h (2 Bft) O 101 ° 1 min 849 W/m² 17,8 °C 25,7 °C 12,9 km/h (3 Bft)
21.09.2023 13:32 24,8 °C 26,5 °C 57 % 60 % 1002,4 hPa 0,0 l/m² 7,1 km/h (2 Bft) O-SO 117 ° 1 min 823 W/m² 18,1 °C 26,4 °C 11,3 km/h (2 Bft)
21.09.2023 13:33 24,8 °C 26,5 °C 57 % 60 % 1002,3 hPa 0,0 l/m² 10,9 km/h (2 Bft) O 92 ° 1 min 807 W/m² 18,1 °C 25,7 °C 14,5 km/h (3 Bft)
21.09.2023 13:34 24,8 °C 26,6 °C 57 % 60 % 1002,2 hPa 0,0 l/m² 7,6 km/h (2 Bft) O-NO 76 ° 1 min 796 W/m² 18,2 °C 26,4 °C 11,3 km/h (2 Bft)
21.09.2023 13:35 24,8 °C 26,7 °C 57 % 62 % 1002,2 hPa 0,0 l/m² 6,8 km/h (2 Bft) O 86 ° 1 min 791 W/m² 18,8 °C 26,6 °C 9,7 km/h (2 Bft)
21.09.2023 13:36 24,8 °C 27,1 °C 57 % 62 % 1002,2 hPa 0,0 l/m² 6,0 km/h (2 Bft) O 90 ° 1 min 780 W/m² 19,2 °C 27,1 °C 8,0 km/h (2 Bft)
21.09.2023 13:37 24,8 °C 27,2 °C 57 % 61 % 1002,1 hPa 0,0 l/m² 8,0 km/h (2 Bft) O-SO 103 ° 1 min 870 W/m² 19,0 °C 26,9 °C 11,3 km/h (2 Bft)
21.09.2023 13:38 24,8 °C 27,2 °C 57 % 59 % 1002,1 hPa 0,0 l/m² 8,1 km/h (2 Bft) O 98 ° 1 min 865 W/m² 18,5 °C 26,9 °C 9,7 km/h (2 Bft)
21.09.2023 13:39 24,8 °C 27,1 °C 57 % 57 % 1002,1 hPa 0,0 l/m² 8,0 km/h (2 Bft) O-SO 103 ° 1 min 865 W/m² 17,8 °C 26,8 °C 11,3 km/h (2 Bft)
21.09.2023 13:40 24,8 °C 27,1 °C 57 % 59 % 1002,0 hPa 0,0 l/m² 10,5 km/h (2 Bft) O-SO 109 ° 1 min 819 W/m² 18,4 °C 26,4 °C 12,9 km/h (3 Bft)
21.09.2023 13:41 24,8 °C 27,1 °C 57 % 57 % 1002,0 hPa 0,0 l/m² 6,1 km/h (2 Bft) O-SO 121 ° 1 min 865 W/m² 17,8 °C 27,1 °C 11,3 km/h (2 Bft)
21.09.2023 13:42 24,8 °C 27,1 °C 57 % 55 % 1002,0 hPa 0,0 l/m² 4,3 km/h (1 Bft) SO 128 ° 1 min 865 W/m² 17,3 °C 27,1 °C 8,0 km/h (2 Bft)
21.09.2023 13:43 24,9 °C 27,0 °C 57 % 59 % 1002,0 hPa 0,0 l/m² 6,9 km/h (2 Bft) SO 129 ° 1 min 522 W/m² 18,3 °C 26,9 °C 8,0 km/h (2 Bft)
21.09.2023 13:44 24,8 °C 27,0 °C 57 % 56 % 1002,0 hPa 0,0 l/m² 7,6 km/h (2 Bft) O 84 ° 1 min 438 W/m² 17,5 °C 26,8 °C 11,3 km/h (2 Bft)
21.09.2023 13:45 24,9 °C 26,9 °C 57 % 60 % 1001,9 hPa 0,0 l/m² 6,6 km/h (2 Bft) O-NO 77 ° 1 min 387 W/m² 18,5 °C 26,9 °C 12,9 km/h (3 Bft)
21.09.2023 13:46 24,8 °C 26,9 °C 57 % 58 % 1002,0 hPa 0,0 l/m² 4,0 km/h (1 Bft) O 85 ° 1 min 390 W/m² 17,9 °C 26,9 °C 6,4 km/h (2 Bft)
21.09.2023 13:47 24,8 °C 26,9 °C 57 % 58 % 1002,0 hPa 0,0 l/m² 3,8 km/h (1 Bft) NO 54 ° 1 min 397 W/m² 17,9 °C 26,9 °C 8,0 km/h (2 Bft)
21.09.2023 13:48 24,8 °C 27,0 °C 57 % 58 % 1001,9 hPa 0,0 l/m² 4,8 km/h (1 Bft) O 84 ° 1 min 376 W/m² 18,0 °C 27,0 °C 11,3 km/h (2 Bft)
21.09.2023 13:49 24,8 °C 26,9 °C 57 % 58 % 1001,9 hPa 0,0 l/m² 7,4 km/h (2 Bft) O 89 ° 1 min 352 W/m² 17,9 °C 26,7 °C 9,7 km/h (2 Bft)
21.09.2023 13:50 24,8 °C 26,8 °C 57 % 61 % 1002,0 hPa 0,0 l/m² 7,2 km/h (2 Bft) O 96 ° 1 min 339 W/m² 18,6 °C 26,6 °C 11,3 km/h (2 Bft)
21.09.2023 13:51 24,8 °C 26,7 °C 57 % 57 % 1001,9 hPa 0,0 l/m² 4,2 km/h (1 Bft) O 96 ° 1 min 348 W/m² 17,5 °C 26,7 °C 4,8 km/h (1 Bft)
21.09.2023 13:52 24,8 °C 26,7 °C 57 % 56 % 1001,9 hPa 0,0 l/m² 3,0 km/h (1 Bft) O 94 ° 1 min 345 W/m² 17,2 °C 26,7 °C 6,4 km/h (2 Bft)
21.09.2023 13:53 24,8 °C 26,6 °C 57 % 57 % 1001,8 hPa 0,0 l/m² 5,8 km/h (2 Bft) O 90 ° 1 min 350 W/m² 17,4 °C 26,6 °C 9,7 km/h (2 Bft)
21.09.2023 13:54 24,8 °C 26,6 °C 57 % 61 % 1001,8 hPa 0,0 l/m² 6,0 km/h (2 Bft) O 88 ° 1 min 346 W/m² 18,4 °C 26,6 °C 6,4 km/h (2 Bft)
21.09.2023 13:55 24,8 °C 26,6 °C 57 % 59 % 1001,8 hPa 0,0 l/m² 5,1 km/h (1 Bft) O 88 ° 1 min 348 W/m² 17,9 °C 26,6 °C 6,4 km/h (2 Bft)
21.09.2023 13:56 24,8 °C 26,6 °C 57 % 57 % 1001,8 hPa 0,0 l/m² 3,1 km/h (1 Bft) O 88 ° 1 min 424 W/m² 17,4 °C 26,6 °C 4,8 km/h (1 Bft)
21.09.2023 13:57 24,8 °C 26,6 °C 57 % 57 % 1001,8 hPa 0,0 l/m² 1,9 km/h (1 Bft) O 88 ° 1 min 492 W/m² 17,4 °C 26,6 °C 3,2 km/h (1 Bft)
21.09.2023 13:58 24,8 °C 26,6 °C 57 % 58 % 1001,8 hPa 0,0 l/m² 5,6 km/h (2 Bft) O 90 ° 1 min 550 W/m² 17,6 °C 26,6 °C 9,7 km/h (2 Bft)
21.09.2023 13:59 24,8 °C 26,6 °C 57 % 57 % 1001,7 hPa 0,0 l/m² 8,0 km/h (2 Bft) O 88 ° 1 min 550 W/m² 17,4 °C 26,3 °C 11,3 km/h (2 Bft)
21.09.2023 14:00 24,8 °C 26,7 °C 57 % 61 % 1001,7 hPa 0,0 l/m² 6,4 km/h (2 Bft) O 84 ° 1 min 570 W/m² 18,5 °C 26,7 °C 8,0 km/h (2 Bft)
21.09.2023 14:01 24,8 °C 26,8 °C 57 % 57 % 1001,6 hPa 0,0 l/m² 6,8 km/h (2 Bft) O 89 ° 1 min 570 W/m² 17,6 °C 26,7 °C 11,3 km/h (2 Bft)
21.09.2023 14:02 24,8 °C 26,9 °C 57 % 57 % 1001,7 hPa 0,0 l/m² 6,4 km/h (2 Bft) O 97 ° 1 min 803 W/m² 17,6 °C 26,9 °C 9,7 km/h (2 Bft)
21.09.2023 14:03 24,8 °C 26,9 °C 57 % 56 % 1001,6 hPa 0,0 l/m² 5,1 km/h (1 Bft) O 99 ° 1 min 803 W/m² 17,4 °C 26,9 °C 6,4 km/h (2 Bft)
21.09.2023 14:04 24,8 °C 27,0 °C 57 % 60 % 1001,6 hPa 0,0 l/m² 5,0 km/h (1 Bft) O 95 ° 1 min 803 W/m² 18,6 °C 27,0 °C 6,4 km/h (2 Bft)
21.09.2023 14:05 24,8 °C 27,1 °C 57 % 60 % 1001,6 hPa 0,0 l/m² 7,3 km/h (2 Bft) O 96 ° 1 min 780 W/m² 18,6 °C 26,9 °C 11,3 km/h (2 Bft)
21.09.2023 14:06 24,8 °C 27,2 °C 57 % 57 % 1001,6 hPa 0,0 l/m² 8,3 km/h (2 Bft) O-NO 78 ° 1 min 780 W/m² 17,9 °C 26,9 °C 11,3 km/h (2 Bft)
21.09.2023 14:07 24,8 °C 27,2 °C 57 % 57 % 1001,6 hPa 0,0 l/m² 5,1 km/h (1 Bft) O-NO 61 ° 1 min 780 W/m² 17,9 °C 27,2 °C 6,4 km/h (2 Bft)
21.09.2023 14:08 24,8 °C 27,4 °C 57 % 58 % 1001,6 hPa 0,0 l/m² 7,8 km/h (2 Bft) O-NO 74 ° 1 min 721 W/m² 18,4 °C 27,2 °C 11,3 km/h (2 Bft)
21.09.2023 14:09 24,8 °C 27,6 °C 57 % 55 % 1001,6 hPa 0,0 l/m² 5,7 km/h (2 Bft) O 82 ° 1 min 721 W/m² 17,7 °C 27,6 °C 8,0 km/h (2 Bft)
21.09.2023 14:10 24,8 °C 27,6 °C 57 % 56 % 1001,6 hPa 0,0 l/m² 6,4 km/h (2 Bft) O-NO 71 ° 1 min 721 W/m² 18,0 °C 27,6 °C 8,0 km/h (2 Bft)
21.09.2023 14:11 24,8 °C 27,6 °C 57 % 54 % 1001,5 hPa 0,0 l/m² 3,6 km/h (1 Bft) O-NO 70 ° 1 min 765 W/m² 17,4 °C 27,6 °C 4,8 km/h (1 Bft)
21.09.2023 14:12 24,8 °C 27,8 °C 57 % 56 % 1001,6 hPa 0,0 l/m² 4,6 km/h (1 Bft) O-NO 63 ° 1 min 788 W/m² 18,2 °C 27,8 °C 6,4 km/h (2 Bft)
21.09.2023 14:13 24,8 °C 27,9 °C 57 % 53 % 1001,5 hPa 0,0 l/m² 6,6 km/h (2 Bft) O-NO 73 ° 1 min 788 W/m² 17,4 °C 27,9 °C 11,3 km/h (2 Bft)
21.09.2023 14:14 24,8 °C 27,8 °C 57 % 52 % 1001,5 hPa 0,0 l/m² 5,1 km/h (1 Bft) O 82 ° 1 min 445 W/m² 17,0 °C 27,8 °C 6,4 km/h (2 Bft)
21.09.2023 14:15 24,8 °C 27,8 °C 57 % 56 % 1001,5 hPa 0,0 l/m² 3,7 km/h (1 Bft) NO 51 ° 1 min 483 W/m² 18,2 °C 27,8 °C 6,4 km/h (2 Bft)
21.09.2023 14:16 24,8 °C 27,8 °C 57 % 56 % 1001,5 hPa 0,0 l/m² 7,7 km/h (2 Bft) O 96 ° 1 min 404 W/m² 18,2 °C 27,6 °C 14,5 km/h (3 Bft)
21.09.2023 14:17 24,8 °C 27,6 °C 57 % 55 % 1001,5 hPa 0,0 l/m² 10,5 km/h (2 Bft) O 87 ° 1 min 380 W/m² 17,7 °C 27,0 °C 12,9 km/h (3 Bft)
21.09.2023 14:18 24,8 °C 27,4 °C 57 % 54 % 1001,5 hPa 0,0 l/m² 11,7 km/h (2 Bft) O 94 ° 1 min 360 W/m² 17,3 °C 26,6 °C 14,5 km/h (3 Bft)
21.09.2023 14:19 24,8 °C 27,2 °C 57 % 56 % 1001,5 hPa 0,0 l/m² 8,9 km/h (2 Bft) O 88 ° 1 min 343 W/m² 17,6 °C 26,8 °C 11,3 km/h (2 Bft)
21.09.2023 14:20 24,8 °C 27,1 °C 57 % 54 % 1001,4 hPa 0,0 l/m² 5,9 km/h (2 Bft) NO 53 ° 1 min 336 W/m² 17,0 °C 27,1 °C 8,0 km/h (2 Bft)
21.09.2023 14:21 24,8 °C 27,1 °C 57 % 56 % 1001,5 hPa 0,0 l/m² 5,6 km/h (2 Bft) NO 45 ° 1 min 325 W/m² 17,5 °C 27,1 °C 11,3 km/h (2 Bft)
21.09.2023 14:22 24,8 °C 27,1 °C 57 % 54 % 1001,4 hPa 0,0 l/m² 4,7 km/h (1 Bft) NO 45 ° 1 min 315 W/m² 17,0 °C 27,1 °C 6,4 km/h (2 Bft)
21.09.2023 14:23 24,8 °C 27,2 °C 57 % 55 % 1001,4 hPa 0,0 l/m² 3,7 km/h (1 Bft) NO 45 ° 1 min 308 W/m² 17,4 °C 27,2 °C 4,8 km/h (1 Bft)
21.09.2023 14:24 24,8 °C 27,2 °C 57 % 52 % 1001,4 hPa 0,0 l/m² 2,4 km/h (1 Bft) NO 45 ° 1 min 301 W/m² 16,5 °C 27,2 °C 3,2 km/h (1 Bft)
21.09.2023 14:25 24,8 °C 27,1 °C 57 % 55 % 1001,3 hPa 0,0 l/m² 5,6 km/h (2 Bft) N-NO 26 ° 1 min 283 W/m² 17,3 °C 27,1 °C 8,0 km/h (2 Bft)
21.09.2023 14:26 24,8 °C 27,1 °C 57 % 53 % 1001,3 hPa 0,0 l/m² 5,2 km/h (1 Bft) N 355 ° 1 min 276 W/m² 16,7 °C 27,1 °C 8,0 km/h (2 Bft)
21.09.2023 14:27 24,8 °C 27,1 °C 57 % 52 % 1001,4 hPa 0,0 l/m² 6,8 km/h (2 Bft) NO 34 ° 1 min 271 W/m² 16,4 °C 27,0 °C 8,0 km/h (2 Bft)
21.09.2023 14:28 24,8 °C 27,1 °C 57 % 54 % 1001,4 hPa 0,0 l/m² 3,4 km/h (1 Bft) N-NO 19 ° 1 min 269 W/m² 17,0 °C 27,1 °C 4,8 km/h (1 Bft)
21.09.2023 14:29 24,8 °C 26,9 °C 57 % 55 % 1001,2 hPa 0,0 l/m² 2,8 km/h (1 Bft) NO 51 ° 1 min 267 W/m² 17,1 °C 26,9 °C 4,8 km/h (1 Bft)
21.09.2023 14:30 24,7 °C 26,8 °C 57 % 55 % 1001,4 hPa 0,0 l/m² 2,6 km/h (1 Bft) SO 133 ° 1 min 265 W/m² 17,0 °C 26,8 °C 4,8 km/h (1 Bft)
21.09.2023 14:31 24,7 °C 26,8 °C 57 % 54 % 1001,3 hPa 0,0 l/m² 8,1 km/h (2 Bft) S-SO 148 ° 1 min 269 W/m² 16,7 °C 26,5 °C 12,9 km/h (3 Bft)
21.09.2023 14:32 24,7 °C 26,9 °C 57 % 51 % 1001,3 hPa 0,0 l/m² 12,0 km/h (2 Bft) SO 142 ° 1 min 272 W/m² 15,9 °C 26,0 °C 14,5 km/h (3 Bft)
21.09.2023 14:33 24,7 °C 26,9 °C 57 % 49 % 1001,3 hPa 0,0 l/m² 9,6 km/h (2 Bft) S-SW 194 ° 1 min 274 W/m² 15,3 °C 26,3 °C 14,5 km/h (3 Bft)
21.09.2023 14:34 24,7 °C 26,9 °C 57 % 50 % 1001,2 hPa 0,0 l/m² 8,1 km/h (2 Bft) S-SO 154 ° 1 min 278 W/m² 15,6 °C 26,6 °C 14,5 km/h (3 Bft)
21.09.2023 14:35 24,7 °C 26,9 °C 58 % 48 % 1001,2 hPa 0,0 l/m² 11,4 km/h (2 Bft) S 174 ° 1 min 281 W/m² 14,9 °C 26,1 °C 14,5 km/h (3 Bft)
21.09.2023 14:36 24,7 °C 26,9 °C 58 % 48 % 1001,3 hPa 0,0 l/m² 9,7 km/h (2 Bft) S 173 ° 1 min 287 W/m² 14,9 °C 26,3 °C 12,9 km/h (3 Bft)
21.09.2023 14:37 24,7 °C 26,9 °C 58 % 52 % 1001,3 hPa 0,0 l/m² 6,8 km/h (2 Bft) S-SO 167 ° 1 min 301 W/m² 16,2 °C 26,8 °C 9,7 km/h (2 Bft)
21.09.2023 14:38 24,7 °C 26,9 °C 58 % 51 % 1001,3 hPa 0,0 l/m² 9,5 km/h (2 Bft) S-SO 150 ° 1 min 306 W/m² 15,9 °C 26,3 °C 16,1 km/h (3 Bft)
21.09.2023 14:39 24,7 °C 26,9 °C 58 % 50 % 1001,3 hPa 0,0 l/m² 5,5 km/h (2 Bft) S-SO 154 ° 1 min 308 W/m² 15,6 °C 26,9 °C 8,0 km/h (2 Bft)
21.09.2023 14:40 24,7 °C 26,9 °C 58 % 50 % 1001,3 hPa 0,0 l/m² 9,7 km/h (2 Bft) S-SO 154 ° 1 min 308 W/m² 15,6 °C 26,3 °C 14,5 km/h (3 Bft)
21.09.2023 14:41 24,7 °C 26,9 °C 58 % 50 % 1001,2 hPa 0,0 l/m² 10,1 km/h (2 Bft) S-SO 165 ° 1 min 309 W/m² 15,6 °C 26,2 °C 14,5 km/h (3 Bft)
21.09.2023 14:42 24,7 °C 27,0 °C 58 % 51 % 1001,2 hPa 0,0 l/m² 7,8 km/h (2 Bft) S-SO 163 ° 1 min 309 W/m² 16,0 °C 26,7 °C 9,7 km/h (2 Bft)
21.09.2023 14:43 24,7 °C 27,0 °C 58 % 49 % 1001,2 hPa 0,0 l/m² 7,6 km/h (2 Bft) S-SO 150 ° 1 min 313 W/m² 15,4 °C 26,8 °C 11,3 km/h (2 Bft)
21.09.2023 14:44 24,7 °C 27,0 °C 58 % 48 % 1001,2 hPa 0,0 l/m² 7,7 km/h (2 Bft) S-SO 165 ° 1 min 318 W/m² 15,0 °C 26,8 °C 11,3 km/h (2 Bft)
21.09.2023 14:45 24,7 °C 27,0 °C 58 % 49 % 1001,2 hPa 0,0 l/m² 5,9 km/h (2 Bft) SO 138 ° 1 min 318 W/m² 15,4 °C 27,0 °C 8,0 km/h (2 Bft)
21.09.2023 14:46 24,6 °C 27,0 °C 58 % 49 % 1001,2 hPa 0,0 l/m² 6,4 km/h (2 Bft) SO 134 ° 1 min 320 W/m² 15,4 °C 27,0 °C 8,0 km/h (2 Bft)
21.09.2023 14:47 24,7 °C 27,0 °C 58 % 49 % 1001,2 hPa 0,0 l/m² 4,3 km/h (1 Bft) S-SO 149 ° 1 min 320 W/m² 15,4 °C 27,0 °C 8,0 km/h (2 Bft)
21.09.2023 14:48 24,7 °C 27,1 °C 58 % 50 % 1001,2 hPa 0,0 l/m² 6,7 km/h (2 Bft) S-SO 159 ° 1 min 327 W/m² 15,8 °C 27,0 °C 8,0 km/h (2 Bft)
21.09.2023 14:49 24,6 °C 27,1 °C 58 % 48 % 1001,2 hPa 0,0 l/m² 6,0 km/h (2 Bft) S-SO 153 ° 1 min 336 W/m² 15,1 °C 27,1 °C 8,0 km/h (2 Bft)
21.09.2023 14:50 24,6 °C 27,1 °C 58 % 49 % 1001,2 hPa 0,0 l/m² 10,1 km/h (2 Bft) SO 139 ° 1 min 334 W/m² 15,4 °C 26,5 °C 14,5 km/h (3 Bft)
21.09.2023 14:51 24,6 °C 27,2 °C 58 % 47 % 1001,1 hPa 0,0 l/m² 11,3 km/h (2 Bft) S 178 ° 1 min 343 W/m² 14,9 °C 26,4 °C 14,5 km/h (3 Bft)
21.09.2023 14:52 24,6 °C 27,2 °C 58 % 47 % 1001,1 hPa 0,0 l/m² 8,9 km/h (2 Bft) S-SO 160 ° 1 min 339 W/m² 14,9 °C 26,8 °C 14,5 km/h (3 Bft)
21.09.2023 14:53 24,6 °C 27,2 °C 58 % 46 % 1001,2 hPa 0,0 l/m² 9,7 km/h (2 Bft) S 169 ° 1 min 345 W/m² 14,6 °C 26,6 °C 12,9 km/h (3 Bft)
21.09.2023 14:54 24,6 °C 27,2 °C 58 % 47 % 1001,2 hPa 0,0 l/m² 11,6 km/h (2 Bft) SO 132 ° 1 min 367 W/m² 14,9 °C 26,4 °C 14,5 km/h (3 Bft)
21.09.2023 14:55 24,6 °C 27,2 °C 58 % 47 % 1001,2 hPa 0,0 l/m² 11,6 km/h (2 Bft) O-SO 122 ° 1 min 373 W/m² 14,9 °C 26,4 °C 14,5 km/h (3 Bft)
21.09.2023 14:56 24,6 °C 27,2 °C 58 % 46 % 1001,1 hPa 0,0 l/m² 13,4 km/h (3 Bft) SO 144 ° 1 min 404 W/m² 14,6 °C 26,2 °C 16,1 km/h (3 Bft)
21.09.2023 14:57 24,6 °C 27,2 °C 58 % 47 % 1001,1 hPa 0,0 l/m² 8,9 km/h (2 Bft) S-SO 147 ° 1 min 492 W/m² 14,9 °C 26,8 °C 14,5 km/h (3 Bft)
21.09.2023 14:58 24,6 °C 27,2 °C 58 % 50 % 1001,1 hPa 0,0 l/m² 7,0 km/h (2 Bft) S-SO 164 ° 1 min 492 W/m² 15,9 °C 27,1 °C 9,7 km/h (2 Bft)
21.09.2023 14:59 24,6 °C 27,2 °C 58 % 46 % 1001,2 hPa 0,0 l/m² 11,7 km/h (2 Bft) S-SO 154 ° 1 min 339 W/m² 14,6 °C 26,4 °C 14,5 km/h (3 Bft)
21.09.2023 15:00 24,6 °C 27,2 °C 58 % 46 % 1001,2 hPa 0,0 l/m² 10,3 km/h (2 Bft) S-SO 167 ° 1 min 339 W/m² 14,6 °C 26,6 °C 12,9 km/h (3 Bft)
21.09.2023 15:01 24,6 °C 27,2 °C 58 % 46 % 1001,1 hPa 0,0 l/m² 8,7 km/h (2 Bft) S-SO 163 ° 1 min 348 W/m² 14,6 °C 26,8 °C 9,7 km/h (2 Bft)
21.09.2023 15:02 24,6 °C 27,2 °C 58 % 48 % 1001,0 hPa 0,0 l/m² 6,4 km/h (2 Bft) S 183 ° 1 min 394 W/m² 15,2 °C 27,2 °C 8,0 km/h (2 Bft)
21.09.2023 15:03 24,6 °C 27,2 °C 58 % 49 % 1001,2 hPa 0,0 l/m² 9,3 km/h (2 Bft) S 180 ° 1 min 360 W/m² 15,5 °C 26,7 °C 17,7 km/h (3 Bft)
21.09.2023 15:04 24,6 °C 27,2 °C 58 % 48 % 1001,1 hPa 0,0 l/m² 10,3 km/h (2 Bft) S 184 ° 1 min 387 W/m² 15,2 °C 26,6 °C 14,5 km/h (3 Bft)
21.09.2023 15:05 24,6 °C 27,2 °C 58 % 50 % 1001,1 hPa 0,0 l/m² 8,0 km/h (2 Bft) S 184 ° 1 min 367 W/m² 15,9 °C 26,9 °C 12,9 km/h (3 Bft)
21.09.2023 15:06 24,6 °C 27,2 °C 58 % 48 % 1001,2 hPa 0,0 l/m² 9,2 km/h (2 Bft) S-SO 161 ° 1 min 355 W/m² 15,2 °C 26,7 °C 11,3 km/h (2 Bft)
21.09.2023 15:07 24,6 °C 27,2 °C 58 % 46 % 1001,1 hPa 0,0 l/m² 8,1 km/h (2 Bft) S 186 ° 1 min 336 W/m² 14,6 °C 26,9 °C 9,7 km/h (2 Bft)
21.09.2023 15:08 24,6 °C 27,2 °C 58 % 51 % 1001,1 hPa 0,0 l/m² 6,3 km/h (2 Bft) S-SW 192 ° 1 min 330 W/m² 16,2 °C 27,2 °C 9,7 km/h (2 Bft)
21.09.2023 15:09 24,6 °C 27,1 °C 58 % 51 % 1001,1 hPa 0,0 l/m² 8,3 km/h (2 Bft) S-SO 159 ° 1 min 332 W/m² 16,1 °C 26,8 °C 11,3 km/h (2 Bft)
21.09.2023 15:10 24,6 °C 27,2 °C 58 % 51 % 1001,1 hPa 0,0 l/m² 7,9 km/h (2 Bft) S 173 ° 1 min 318 W/m² 16,2 °C 26,9 °C 11,3 km/h (2 Bft)
21.09.2023 15:11 24,6 °C 27,2 °C 58 % 49 % 1001,0 hPa 0,0 l/m² 8,3 km/h (2 Bft) S-SO 157 ° 1 min 313 W/m² 15,5 °C 26,9 °C 9,7 km/h (2 Bft)
21.09.2023 15:12 24,6 °C 27,1 °C 58 % 49 % 1001,1 hPa 0,0 l/m² 7,9 km/h (2 Bft) S-SO 154 ° 1 min 306 W/m² 15,4 °C 26,8 °C 11,3 km/h (2 Bft)
21.09.2023 15:13 24,6 °C 27,1 °C 58 % 48 % 1001,0 hPa 0,0 l/m² 7,8 km/h (2 Bft) SO 136 ° 1 min 311 W/m² 15,1 °C 26,8 °C 9,7 km/h (2 Bft)
21.09.2023 15:14 24,6 °C 27,1 °C 58 % 48 % 1001,1 hPa 0,0 l/m² 5,4 km/h (2 Bft) O-SO 121 ° 1 min 313 W/m² 15,1 °C 27,1 °C 8,0 km/h (2 Bft)
21.09.2023 15:15 24,6 °C 27,1 °C 58 % 48 % 1001,0 hPa 0,0 l/m² 7,8 km/h (2 Bft) O-SO 122 ° 1 min 336 W/m² 15,1 °C 26,8 °C 11,3 km/h (2 Bft)
21.09.2023 15:16 24,6 °C 27,2 °C 58 % 47 % 1001,0 hPa 0,0 l/m² 9,3 km/h (2 Bft) S 174 ° 1 min 332 W/m² 14,9 °C 26,7 °C 11,3 km/h (2 Bft)
21.09.2023 15:17 24,6 °C 27,2 °C 58 % 49 % 1000,9 hPa 0,0 l/m² 8,2 km/h (2 Bft) S 171 ° 1 min 359 W/m² 15,5 °C 26,9 °C 9,7 km/h (2 Bft)
21.09.2023 15:18 24,6 °C 27,2 °C 58 % 50 % 1000,9 hPa 0,0 l/m² 7,3 km/h (2 Bft) S-SO 168 ° 1 min 359 W/m² 15,9 °C 27,0 °C 9,7 km/h (2 Bft)
21.09.2023 15:19 24,6 °C 27,2 °C 58 % 49 % 1001,0 hPa 0,0 l/m² 5,6 km/h (2 Bft) SO 146 ° 1 min 357 W/m² 15,5 °C 27,2 °C 8,0 km/h (2 Bft)
21.09.2023 15:20 24,6 °C 27,2 °C 58 % 51 % 1001,0 hPa 0,0 l/m² 6,9 km/h (2 Bft) SO 136 ° 1 min 432 W/m² 16,2 °C 27,1 °C 9,7 km/h (2 Bft)
21.09.2023 15:21 24,6 °C 27,2 °C 58 % 50 % 1001,0 hPa 0,0 l/m² 8,0 km/h (2 Bft) O-SO 116 ° 1 min 369 W/m² 15,9 °C 26,9 °C 9,7 km/h (2 Bft)
21.09.2023 15:22 24,6 °C 27,2 °C 58 % 48 % 1000,9 hPa 0,0 l/m² 8,0 km/h (2 Bft) O-SO 117 ° 1 min 352 W/m² 15,2 °C 26,9 °C 9,7 km/h (2 Bft)
21.09.2023 15:23 24,6 °C 27,2 °C 58 % 47 % 1000,9 hPa 0,0 l/m² 4,4 km/h (1 Bft) O-SO 115 ° 1 min 371 W/m² 14,9 °C 27,2 °C 6,4 km/h (2 Bft)
21.09.2023 15:24 24,6 °C 27,2 °C 58 % 50 % 1001,0 hPa 0,0 l/m² 4,0 km/h (1 Bft) S-SO 147 ° 1 min 434 W/m² 15,9 °C 27,2 °C 4,8 km/h (1 Bft)
21.09.2023 15:25 24,6 °C 27,3 °C 58 % 49 % 1000,9 hPa 0,0 l/m² 4,3 km/h (1 Bft) SO 142 ° 1 min 434 W/m² 15,6 °C 27,3 °C 6,4 km/h (2 Bft)
21.09.2023 15:26 24,6 °C 27,3 °C 58 % 47 % 1000,9 hPa 0,0 l/m² 5,6 km/h (2 Bft) O-SO 113 ° 1 min 519 W/m² 15,0 °C 27,3 °C 8,0 km/h (2 Bft)
21.09.2023 15:27 24,6 °C 27,4 °C 58 % 53 % 1000,9 hPa 0,0 l/m² 4,3 km/h (1 Bft) O-SO 118 ° 1 min 601 W/m² 17,0 °C 27,4 °C 6,4 km/h (2 Bft)
21.09.2023 15:28 24,6 °C 27,4 °C 58 % 47 % 1000,8 hPa 0,0 l/m² 1,2 km/h (1 Bft) O-SO 119 ° 1 min 564 W/m² 15,1 °C 27,4 °C 3,2 km/h (1 Bft)
21.09.2023 15:29 24,6 °C 27,6 °C 58 % 55 % 1000,9 hPa 0,0 l/m² 0,6 km/h (0 Bft) O-SO 118 ° 1 min 571 W/m² 17,7 °C 27,6 °C 1,6 km/h (1 Bft)
21.09.2023 15:30 24,6 °C 27,7 °C 58 % 48 % 1000,8 hPa 0,0 l/m² 0,1 km/h (0 Bft) O-SO 118 ° 1 min 596 W/m² 15,7 °C 27,7 °C 1,6 km/h (1 Bft)
21.09.2023 15:31 24,7 °C 27,8 °C 58 % 48 % 1000,8 hPa 0,0 l/m² 0,0 km/h (0 Bft) O-SO 118 ° 1 min 571 W/m² 15,8 °C 27,8 °C 0,0 km/h (0 Bft)
21.09.2023 15:32 24,6 °C 27,8 °C 58 % 48 % 1000,8 hPa 0,0 l/m² 0,0 km/h (0 Bft) O-SO 118 ° 1 min 570 W/m² 15,8 °C 27,8 °C 0,0 km/h (0 Bft)
21.09.2023 15:33 24,7 °C 27,9 °C 58 % 49 % 1000,8 hPa 0,0 l/m² 2,3 km/h (1 Bft) S-SO 157 ° 1 min 596 W/m² 16,2 °C 27,9 °C 6,4 km/h (2 Bft)
21.09.2023 15:34 24,7 °C 27,9 °C 58 % 45 % 1000,7 hPa 0,0 l/m² 4,3 km/h (1 Bft) S-SO 157 ° 1 min 580 W/m² 14,8 °C 27,9 °C 8,0 km/h (2 Bft)
21.09.2023 15:35 24,7 °C 27,9 °C 58 % 47 % 1000,8 hPa 0,0 l/m² 2,9 km/h (1 Bft) S-SO 155 ° 1 min 566 W/m² 15,5 °C 27,9 °C 4,8 km/h (1 Bft)
21.09.2023 15:36 24,7 °C 27,9 °C 58 % 49 % 1000,8 hPa 0,0 l/m² 2,0 km/h (1 Bft) S-SO 156 ° 1 min 577 W/m² 16,2 °C 27,9 °C 4,8 km/h (1 Bft)
21.09.2023 15:37 24,7 °C 27,8 °C 58 % 47 % 1000,7 hPa 0,0 l/m² 6,8 km/h (2 Bft) SO 128 ° 1 min 566 W/m² 15,4 °C 27,7 °C 11,3 km/h (2 Bft)
21.09.2023 15:38 24,7 °C 27,9 °C 58 % 49 % 1000,8 hPa 0,0 l/m² 5,1 km/h (1 Bft) SO 126 ° 1 min 557 W/m² 16,2 °C 27,9 °C 11,3 km/h (2 Bft)
21.09.2023 15:39 24,7 °C 27,8 °C 58 % 48 % 1000,8 hPa 0,0 l/m² 3,5 km/h (1 Bft) SO 129 ° 1 min 536 W/m² 15,8 °C 27,8 °C 4,8 km/h (1 Bft)
21.09.2023 15:40 24,7 °C 27,8 °C 58 % 47 % 1000,7 hPa 0,0 l/m² 5,9 km/h (2 Bft) O-SO 109 ° 1 min 519 W/m² 15,4 °C 27,8 °C 8,0 km/h (2 Bft)
21.09.2023 15:41 24,7 °C 27,8 °C 58 % 47 % 1000,7 hPa 0,0 l/m² 3,9 km/h (1 Bft) O-SO 113 ° 1 min 504 W/m² 15,4 °C 27,8 °C 9,7 km/h (2 Bft)
21.09.2023 15:42 24,7 °C 27,8 °C 59 % 49 % 1000,6 hPa 0,0 l/m² 3,7 km/h (1 Bft) O-SO 102 ° 1 min 499 W/m² 16,1 °C 27,8 °C 6,4 km/h (2 Bft)
21.09.2023 15:43 24,7 °C 27,9 °C 58 % 50 % 1000,6 hPa 0,0 l/m² 4,3 km/h (1 Bft) O 101 ° 1 min 513 W/m² 16,5 °C 27,9 °C 6,4 km/h (2 Bft)
21.09.2023 15:45 24,7 °C 27,8 °C 59 % 47 % 1000,6 hPa 0,0 l/m² 4,6 km/h (1 Bft) O-SO 117 ° 2 min 513 W/m² 15,4 °C 27,8 °C 9,7 km/h (2 Bft)
21.09.2023 15:46 24,7 °C 27,8 °C 59 % 50 % 1000,7 hPa 0,0 l/m² 1,1 km/h (1 Bft) O-SO 117 ° 1 min 520 W/m² 16,4 °C 27,8 °C 3,2 km/h (1 Bft)
21.09.2023 15:47 24,7 °C 27,9 °C 58 % 51 % 1000,6 hPa 0,0 l/m² 3,1 km/h (1 Bft) SO 126 ° 1 min 534 W/m² 16,8 °C 27,9 °C 4,8 km/h (1 Bft)
21.09.2023 15:48 24,7 °C 27,9 °C 59 % 47 % 1000,6 hPa 0,0 l/m² 4,8 km/h (1 Bft) S 175 ° 1 min 545 W/m² 15,5 °C 27,9 °C 9,7 km/h (2 Bft)
21.09.2023 15:49 24,7 °C 27,9 °C 59 % 46 % 1000,6 hPa 0,0 l/m² 1,0 km/h (0 Bft) S 175 ° 1 min 564 W/m² 15,2 °C 27,9 °C 4,8 km/h (1 Bft)
21.09.2023 15:50 24,7 °C 27,9 °C 59 % 46 % 1000,6 hPa 0,0 l/m² 0,0 km/h (0 Bft) S 187 ° 1 min 575 W/m² 15,2 °C 27,9 °C 0,0 km/h (0 Bft)
21.09.2023 15:51 24,7 °C 27,9 °C 59 % 49 % 1000,5 hPa 0,0 l/m² 0,0 km/h (0 Bft) S 187 ° 1 min 582 W/m² 16,2 °C 27,9 °C 0,0 km/h (0 Bft)
21.09.2023 15:52 24,7 °C 28,0 °C 58 % 50 % 1000,5 hPa 0,0 l/m² 0,0 km/h (0 Bft) S 187 ° 1 min 591 W/m² 16,6 °C 28,0 °C 0,0 km/h (0 Bft)
21.09.2023 15:53 24,8 °C 28,1 °C 58 % 50 % 1000,5 hPa 0,0 l/m² 0,0 km/h (0 Bft) S 187 ° 1 min 596 W/m² 16,7 °C 28,1 °C 0,0 km/h (0 Bft)
21.09.2023 15:54 24,8 °C 28,1 °C 58 % 52 % 1000,5 hPa 0,0 l/m² 2,7 km/h (1 Bft) SO 143 ° 1 min 592 W/m² 17,3 °C 28,1 °C 4,8 km/h (1 Bft)
21.09.2023 15:55 24,7 °C 28,2 °C 58 % 49 % 1000,5 hPa 0,0 l/m² 3,1 km/h (1 Bft) O 100 ° 1 min 601 W/m² 16,5 °C 28,2 °C 6,4 km/h (2 Bft)
21.09.2023 15:56 24,8 °C 28,2 °C 58 % 48 % 1000,4 hPa 0,0 l/m² 5,7 km/h (2 Bft) O 89 ° 1 min 606 W/m² 16,1 °C 28,2 °C 8,0 km/h (2 Bft)
21.09.2023 15:57 24,8 °C 28,2 °C 58 % 45 % 1000,5 hPa 0,0 l/m² 2,2 km/h (1 Bft) O-SO 122 ° 1 min 615 W/m² 15,1 °C 28,2 °C 4,8 km/h (1 Bft)
21.09.2023 15:58 24,8 °C 28,2 °C 58 % 45 % 1000,5 hPa 0,0 l/m² 3,2 km/h (1 Bft) O-SO 123 ° 1 min 615 W/m² 15,1 °C 28,2 °C 4,8 km/h (1 Bft)
21.09.2023 15:59 24,8 °C 28,1 °C 58 % 48 % 1000,5 hPa 0,0 l/m² 5,1 km/h (1 Bft) O-SO 111 ° 1 min 524 W/m² 16,0 °C 28,1 °C 6,4 km/h (2 Bft)
21.09.2023 16:00 24,8 °C 28,1 °C 58 % 46 % 1000,5 hPa 0,0 l/m² 1,8 km/h (1 Bft) O-SO 111 ° 1 min 348 W/m² 15,4 °C 28,1 °C 4,8 km/h (1 Bft)
21.09.2023 16:01 24,8 °C 28,0 °C 58 % 47 % 1000,5 hPa 0,0 l/m² 5,6 km/h (2 Bft) O-SO 119 ° 1 min 320 W/m² 15,6 °C 28,0 °C 9,7 km/h (2 Bft)
21.09.2023 16:02 24,8 °C 27,9 °C 58 % 50 % 1000,4 hPa 0,0 l/m² 5,8 km/h (2 Bft) S-SO 147 ° 1 min 336 W/m² 16,5 °C 27,9 °C 9,7 km/h (2 Bft)
21.09.2023 16:03 24,8 °C 27,9 °C 58 % 50 % 1000,4 hPa 0,0 l/m² 6,4 km/h (2 Bft) O 85 ° 1 min 374 W/m² 16,5 °C 27,9 °C 12,9 km/h (3 Bft)
21.09.2023 16:04 24,7 °C 27,7 °C 58 % 49 % 1000,3 hPa 0,0 l/m² 11,0 km/h (2 Bft) O-NO 78 ° 1 min 290 W/m² 16,0 °C 27,0 °C 16,1 km/h (3 Bft)
21.09.2023 16:05 24,8 °C 27,6 °C 58 % 49 % 1000,4 hPa 0,0 l/m² 11,3 km/h (2 Bft) O 93 ° 1 min 304 W/m² 15,9 °C 26,9 °C 12,9 km/h (3 Bft)
21.09.2023 16:06 24,8 °C 27,4 °C 58 % 51 % 1000,4 hPa 0,0 l/m² 8,3 km/h (2 Bft) O-SO 111 ° 1 min 283 W/m² 16,3 °C 27,1 °C 11,3 km/h (2 Bft)
21.09.2023 16:07 24,7 °C 27,3 °C 58 % 50 % 1000,4 hPa 0,0 l/m² 5,1 km/h (1 Bft) O-SO 109 ° 1 min 248 W/m² 15,9 °C 27,3 °C 6,4 km/h (2 Bft)
21.09.2023 16:08 24,7 °C 27,3 °C 58 % 53 % 1000,3 hPa 0,0 l/m² 4,9 km/h (1 Bft) O-SO 104 ° 1 min 237 W/m² 16,9 °C 27,3 °C 6,4 km/h (2 Bft)
21.09.2023 16:09 24,7 °C 27,2 °C 58 % 54 % 1000,4 hPa 0,0 l/m² 6,8 km/h (2 Bft) O-SO 117 ° 1 min 230 W/m² 17,1 °C 27,1 °C 9,7 km/h (2 Bft)
21.09.2023 16:10 24,7 °C 27,2 °C 58 % 51 % 1000,3 hPa 0,0 l/m² 6,9 km/h (2 Bft) O-SO 105 ° 1 min 223 W/m² 16,2 °C 27,1 °C 9,7 km/h (2 Bft)
21.09.2023 16:11 24,7 °C 27,2 °C 58 % 49 % 1000,3 hPa 0,0 l/m² 7,8 km/h (2 Bft) O 98 ° 1 min 207 W/m² 15,5 °C 26,9 °C 11,3 km/h (2 Bft)
21.09.2023 16:12 24,7 °C 27,2 °C 58 % 51 % 1000,3 hPa 0,0 l/m² 10,5 km/h (2 Bft) O 101 ° 1 min 204 W/m² 16,2 °C 26,5 °C 14,5 km/h (3 Bft)
21.09.2023 16:13 24,7 °C 27,1 °C 58 % 51 % 1000,3 hPa 0,0 l/m² 10,4 km/h (2 Bft) SO 134 ° 1 min 200 W/m² 16,1 °C 26,4 °C 16,1 km/h (3 Bft)
21.09.2023 16:14 24,7 °C 27,1 °C 58 % 49 % 1000,2 hPa 0,0 l/m² 10,8 km/h (2 Bft) SO 130 ° 1 min 199 W/m² 15,4 °C 26,4 °C 14,5 km/h (3 Bft)
21.09.2023 16:15 24,7 °C 27,1 °C 58 % 50 % 1000,3 hPa 0,0 l/m² 8,9 km/h (2 Bft) O 98 ° 1 min 199 W/m² 15,8 °C 26,7 °C 12,9 km/h (3 Bft)
21.09.2023 16:16 24,7 °C 26,9 °C 58 % 52 % 1000,2 hPa 0,0 l/m² 6,7 km/h (2 Bft) O-SO 103 ° 1 min 202 W/m² 16,2 °C 26,8 °C 11,3 km/h (2 Bft)
21.09.2023 16:17 24,7 °C 26,9 °C 58 % 52 % 1000,2 hPa 0,0 l/m² 10,6 km/h (2 Bft) SO 131 ° 1 min 202 W/m² 16,2 °C 26,2 °C 12,9 km/h (3 Bft)
21.09.2023 16:18 24,7 °C 26,9 °C 58 % 50 % 1000,2 hPa 0,0 l/m² 6,7 km/h (2 Bft) O-SO 111 ° 1 min 202 W/m² 15,6 °C 26,8 °C 11,3 km/h (2 Bft)
21.09.2023 16:19 24,7 °C 26,9 °C 58 % 52 % 1000,1 hPa 0,0 l/m² 8,0 km/h (2 Bft) O-SO 106 ° 1 min 204 W/m² 16,2 °C 26,6 °C 11,3 km/h (2 Bft)
21.09.2023 16:20 24,7 °C 26,9 °C 58 % 53 % 1000,1 hPa 0,0 l/m² 6,0 km/h (2 Bft) O 97 ° 1 min 202 W/m² 16,5 °C 26,9 °C 6,4 km/h (2 Bft)
21.09.2023 16:21 24,7 °C 26,8 °C 58 % 54 % 1000,1 hPa 0,0 l/m² 7,6 km/h (2 Bft) O 94 ° 1 min 200 W/m² 16,7 °C 26,6 °C 9,7 km/h (2 Bft)
21.09.2023 16:22 24,7 °C 26,7 °C 58 % 53 % 1000,1 hPa 0,0 l/m² 7,4 km/h (2 Bft) O-SO 102 ° 1 min 199 W/m² 16,3 °C 26,5 °C 9,7 km/h (2 Bft)
21.09.2023 16:23 24,7 °C 26,7 °C 58 % 51 % 1000,1 hPa 0,0 l/m² 7,2 km/h (2 Bft) O-SO 103 ° 1 min 195 W/m² 15,7 °C 26,5 °C 9,7 km/h (2 Bft)
21.09.2023 16:24 24,7 °C 26,7 °C 58 % 53 % 1000,1 hPa 0,0 l/m² 7,5 km/h (2 Bft) O-SO 113 ° 1 min 193 W/m² 16,3 °C 26,5 °C 9,7 km/h (2 Bft)
21.09.2023 16:25 24,7 °C 26,7 °C 58 % 52 % 1000,0 hPa 0,0 l/m² 9,3 km/h (2 Bft) O 101 ° 1 min 188 W/m² 16,0 °C 26,2 °C 16,1 km/h (3 Bft)
21.09.2023 16:26 24,6 °C 26,7 °C 58 % 54 % 1000,1 hPa 0,0 l/m² 5,8 km/h (2 Bft) O 94 ° 1 min 193 W/m² 16,6 °C 26,7 °C 9,7 km/h (2 Bft)
21.09.2023 16:27 24,6 °C 26,7 °C 58 % 53 % 999,9 hPa 0,0 l/m² 6,0 km/h (2 Bft) O-SO 106 ° 1 min 185 W/m² 16,3 °C 26,7 °C 6,4 km/h (2 Bft)
21.09.2023 16:28 24,7 °C 26,6 °C 58 % 53 % 999,9 hPa 0,0 l/m² 4,9 km/h (1 Bft) O-SO 104 ° 1 min 188 W/m² 16,2 °C 26,6 °C 6,4 km/h (2 Bft)
21.09.2023 16:29 24,6 °C 26,6 °C 58 % 55 % 1000,0 hPa 0,0 l/m² 3,7 km/h (1 Bft) O-SO 118 ° 1 min 190 W/m² 16,8 °C 26,6 °C 6,4 km/h (2 Bft)
21.09.2023 16:30 24,6 °C 26,5 °C 58 % 56 % 999,9 hPa 0,0 l/m² 6,5 km/h (2 Bft) O 82 ° 1 min 193 W/m² 17,0 °C 26,5 °C 11,3 km/h (2 Bft)
21.09.2023 16:31 24,6 °C 26,6 °C 58 % 53 % 999,9 hPa 0,0 l/m² 6,2 km/h (2 Bft) O 89 ° 1 min 195 W/m² 16,2 °C 26,6 °C 9,7 km/h (2 Bft)
21.09.2023 16:32 24,6 °C 26,5 °C 58 % 53 % 999,9 hPa 0,0 l/m² 8,7 km/h (2 Bft) O 101 ° 1 min 213 W/m² 16,1 °C 26,0 °C 11,3 km/h (2 Bft)
21.09.2023 16:33 24,6 °C 26,6 °C 59 % 52 % 999,9 hPa 0,0 l/m² 8,0 km/h (2 Bft) O 89 ° 1 min 202 W/m² 15,9 °C 26,3 °C 11,3 km/h (2 Bft)
21.09.2023 16:34 24,6 °C 26,6 °C 59 % 54 % 999,9 hPa 0,0 l/m² 7,5 km/h (2 Bft) O 98 ° 1 min 221 W/m² 16,5 °C 26,4 °C 11,3 km/h (2 Bft)
21.09.2023 16:35 24,6 °C 26,6 °C 59 % 53 % 999,8 hPa 0,0 l/m² 7,4 km/h (2 Bft) O-SO 117 ° 1 min 216 W/m² 16,2 °C 26,4 °C 9,7 km/h (2 Bft)
21.09.2023 16:36 24,6 °C 26,6 °C 59 % 51 % 999,8 hPa 0,0 l/m² 4,6 km/h (1 Bft) O 87 ° 1 min 213 W/m² 15,6 °C 26,6 °C 6,4 km/h (2 Bft)
21.09.2023 16:37 24,6 °C 26,6 °C 59 % 54 % 999,9 hPa 0,0 l/m² 6,1 km/h (2 Bft) O 86 ° 1 min 211 W/m² 16,5 °C 26,6 °C 8,0 km/h (2 Bft)
21.09.2023 16:38 24,6 °C 26,6 °C 59 % 58 % 999,8 hPa 0,0 l/m² 5,2 km/h (1 Bft) O 86 ° 1 min 214 W/m² 17,6 °C 26,6 °C 6,4 km/h (2 Bft)
21.09.2023 16:39 24,6 °C 26,5 °C 59 % 56 % 999,8 hPa 0,0 l/m² 7,1 km/h (2 Bft) O 91 ° 1 min 218 W/m² 17,0 °C 26,4 °C 9,7 km/h (2 Bft)
21.09.2023 16:40 24,6 °C 26,5 °C 59 % 54 % 999,9 hPa 0,0 l/m² 6,4 km/h (2 Bft) O 92 ° 1 min 227 W/m² 16,4 °C 26,5 °C 9,7 km/h (2 Bft)
21.09.2023 16:41 24,6 °C 26,4 °C 59 % 56 % 999,8 hPa 0,0 l/m² 5,6 km/h (2 Bft) O 95 ° 1 min 229 W/m² 16,9 °C 26,4 °C 9,7 km/h (2 Bft)
21.09.2023 16:42 24,6 °C 26,4 °C 59 % 56 % 999,8 hPa 0,0 l/m² 6,0 km/h (2 Bft) O 88 ° 1 min 223 W/m² 16,9 °C 26,4 °C 11,3 km/h (2 Bft)
21.09.2023 16:43 24,6 °C 26,4 °C 59 % 55 % 999,8 hPa 0,0 l/m² 6,1 km/h (2 Bft) O 84 ° 1 min 234 W/m² 16,6 °C 26,4 °C 11,3 km/h (2 Bft)
21.09.2023 16:44 24,6 °C 26,4 °C 59 % 54 % 999,8 hPa 0,0 l/m² 7,0 km/h (2 Bft) O 98 ° 1 min 244 W/m² 16,3 °C 26,3 °C 9,7 km/h (2 Bft)
21.09.2023 16:45 24,6 °C 26,5 °C 59 % 56 % 999,8 hPa 0,0 l/m² 5,2 km/h (1 Bft) O-NO 67 ° 1 min 244 W/m² 17,0 °C 26,5 °C 6,4 km/h (2 Bft)
21.09.2023 16:46 24,6 °C 26,6 °C 59 % 55 % 999,8 hPa 0,0 l/m² 5,1 km/h (1 Bft) O-NO 75 ° 1 min 267 W/m² 16,8 °C 26,6 °C 8,0 km/h (2 Bft)
21.09.2023 16:47 24,6 °C 26,7 °C 59 % 54 % 999,8 hPa 0,0 l/m² 4,4 km/h (1 Bft) O 92 ° 1 min 274 W/m² 16,6 °C 26,7 °C 6,4 km/h (2 Bft)
21.09.2023 16:48 24,6 °C 26,8 °C 59 % 56 % 999,7 hPa 0,0 l/m² 5,6 km/h (2 Bft) O-SO 102 ° 1 min 220 W/m² 17,3 °C 26,8 °C 6,4 km/h (2 Bft)
21.09.2023 16:49 24,6 °C 26,8 °C 59 % 54 % 999,8 hPa 0,0 l/m² 7,3 km/h (2 Bft) O 101 ° 1 min 213 W/m² 16,7 °C 26,6 °C 11,3 km/h (2 Bft)
21.09.2023 16:50 24,6 °C 26,8 °C 59 % 51 % 999,7 hPa 0,0 l/m² 7,6 km/h (2 Bft) O 93 ° 1 min 213 W/m² 15,8 °C 26,6 °C 11,3 km/h (2 Bft)
21.09.2023 16:51 24,6 °C 26,9 °C 59 % 52 % 999,8 hPa 0,0 l/m² 7,1 km/h (2 Bft) O-SO 123 ° 1 min 211 W/m² 16,2 °C 26,8 °C 12,9 km/h (3 Bft)
21.09.2023 16:52 24,6 °C 26,9 °C 59 % 50 % 999,8 hPa 0,0 l/m² 6,2 km/h (2 Bft) O-SO 115 ° 1 min 214 W/m² 15,6 °C 26,9 °C 6,4 km/h (2 Bft)
21.09.2023 16:53 24,6 °C 26,9 °C 59 % 51 % 999,8 hPa 0,0 l/m² 7,1 km/h (2 Bft) O-SO 112 ° 1 min 216 W/m² 15,9 °C 26,8 °C 9,7 km/h (2 Bft)
21.09.2023 16:54 24,6 °C 26,9 °C 59 % 52 % 999,8 hPa 0,0 l/m² 8,5 km/h (2 Bft) O-SO 109 ° 1 min 216 W/m² 16,2 °C 26,5 °C 11,3 km/h (2 Bft)
21.09.2023 16:55 24,5 °C 26,9 °C 59 % 52 % 999,8 hPa 0,0 l/m² 6,4 km/h (2 Bft) O-SO 104 ° 1 min 213 W/m² 16,2 °C 26,9 °C 6,4 km/h (2 Bft)
21.09.2023 16:56 24,6 °C 26,8 °C 59 % 54 % 999,7 hPa 0,0 l/m² 4,7 km/h (1 Bft) SO 130 ° 1 min 211 W/m² 16,7 °C 26,8 °C 9,7 km/h (2 Bft)
21.09.2023 16:57 24,6 °C 26,8 °C 59 % 51 % 999,8 hPa 0,0 l/m² 6,3 km/h (2 Bft) O-SO 115 ° 1 min 213 W/m² 15,8 °C 26,8 °C 9,7 km/h (2 Bft)
21.09.2023 16:58 24,6 °C 26,8 °C 59 % 52 % 999,7 hPa 0,0 l/m² 5,8 km/h (2 Bft) O 98 ° 1 min 213 W/m² 16,1 °C 26,8 °C 6,4 km/h (2 Bft)
21.09.2023 16:59 24,6 °C 26,8 °C 59 % 54 % 999,7 hPa 0,0 l/m² 4,7 km/h (1 Bft) O-SO 113 ° 1 min 211 W/m² 16,7 °C 26,8 °C 6,4 km/h (2 Bft)
21.09.2023 17:00 24,5 °C 26,7 °C 59 % 54 % 999,7 hPa 0,0 l/m² 6,4 km/h (2 Bft) O-SO 107 ° 1 min 207 W/m² 16,6 °C 26,7 °C 9,7 km/h (2 Bft)
21.09.2023 17:01 24,5 °C 26,7 °C 59 % 53 % 999,7 hPa 0,0 l/m² 8,7 km/h (2 Bft) O-SO 120 ° 1 min 204 W/m² 16,3 °C 26,3 °C 12,9 km/h (3 Bft)
21.09.2023 17:02 24,6 °C 26,7 °C 59 % 51 % 999,7 hPa 0,0 l/m² 10,2 km/h (2 Bft) O 99 ° 1 min 197 W/m² 15,7 °C 26,0 °C 12,9 km/h (3 Bft)
21.09.2023 17:03 24,5 °C 26,7 °C 59 % 51 % 999,6 hPa 0,0 l/m² 8,9 km/h (2 Bft) O-SO 107 ° 1 min 193 W/m² 15,7 °C 26,2 °C 11,3 km/h (2 Bft)
21.09.2023 17:04 24,6 °C 26,7 °C 59 % 51 % 999,6 hPa 0,0 l/m² 8,0 km/h (2 Bft) O 98 ° 1 min 192 W/m² 15,7 °C 26,4 °C 11,3 km/h (2 Bft)
21.09.2023 17:05 24,5 °C 26,7 °C 59 % 51 % 999,6 hPa 0,0 l/m² 8,9 km/h (2 Bft) O-SO 104 ° 1 min 197 W/m² 15,7 °C 26,2 °C 12,9 km/h (3 Bft)
21.09.2023 17:06 24,5 °C 26,6 °C 59 % 52 % 999,6 hPa 0,0 l/m² 8,0 km/h (2 Bft) O 98 ° 1 min 186 W/m² 15,9 °C 26,3 °C 12,9 km/h (3 Bft)
21.09.2023 17:07 24,5 °C 26,6 °C 59 % 53 % 999,6 hPa 0,0 l/m² 7,0 km/h (2 Bft) O 90 ° 1 min 185 W/m² 16,2 °C 26,5 °C 9,7 km/h (2 Bft)
21.09.2023 17:08 24,5 °C 26,5 °C 59 % 53 % 999,6 hPa 0,0 l/m² 9,7 km/h (2 Bft) O 84 ° 1 min 183 W/m² 16,1 °C 25,9 °C 11,3 km/h (2 Bft)
21.09.2023 17:09 24,5 °C 26,4 °C 59 % 54 % 999,6 hPa 0,0 l/m² 6,6 km/h (2 Bft) O 101 ° 1 min 199 W/m² 16,3 °C 26,4 °C 11,3 km/h (2 Bft)
21.09.2023 17:10 24,5 °C 26,4 °C 59 % 52 % 999,6 hPa 0,0 l/m² 9,1 km/h (2 Bft) O 89 ° 1 min 193 W/m² 15,7 °C 25,9 °C 16,1 km/h (3 Bft)
21.09.2023 17:11 24,5 °C 26,4 °C 59 % 52 % 999,6 hPa 0,0 l/m² 12,9 km/h (3 Bft) O-SO 105 ° 1 min 211 W/m² 15,7 °C 25,3 °C 14,5 km/h (3 Bft)
21.09.2023 17:12 24,4 °C 26,5 °C 59 % 51 % 999,6 hPa 0,0 l/m² 11,1 km/h (2 Bft) O 90 ° 1 min 214 W/m² 15,5 °C 25,6 °C 14,5 km/h (3 Bft)
21.09.2023 17:13 24,4 °C 26,5 °C 59 % 50 % 999,6 hPa 0,0 l/m² 11,6 km/h (2 Bft) O-SO 103 ° 1 min 221 W/m² 15,2 °C 25,6 °C 14,5 km/h (3 Bft)
21.09.2023 17:14 24,4 °C 26,6 °C 59 % 52 % 999,5 hPa 0,0 l/m² 10,1 km/h (2 Bft) O 84 ° 1 min 221 W/m² 15,9 °C 25,9 °C 14,5 km/h (3 Bft)
21.09.2023 17:15 24,5 °C 26,7 °C 59 % 52 % 999,6 hPa 0,0 l/m² 11,8 km/h (2 Bft) O 92 ° 1 min 362 W/m² 16,0 °C 25,8 °C 14,5 km/h (3 Bft)
21.09.2023 17:16 24,4 °C 26,7 °C 58 % 52 % 999,5 hPa 0,0 l/m² 13,7 km/h (3 Bft) O 99 ° 1 min 352 W/m² 16,0 °C 25,5 °C 17,7 km/h (3 Bft)
21.09.2023 17:17 24,4 °C 26,8 °C 58 % 51 % 999,5 hPa 0,0 l/m² 11,7 km/h (2 Bft) O 86 ° 1 min 338 W/m² 15,8 °C 25,9 °C 16,1 km/h (3 Bft)
21.09.2023 17:18 24,4 °C 26,8 °C 59 % 50 % 999,5 hPa 0,0 l/m² 12,5 km/h (2 Bft) O 98 ° 1 min 330 W/m² 15,5 °C 25,8 °C 14,5 km/h (3 Bft)
21.09.2023 17:19 24,5 °C 26,8 °C 59 % 51 % 999,5 hPa 0,0 l/m² 12,1 km/h (2 Bft) O 81 ° 1 min 316 W/m² 15,8 °C 25,8 °C 16,1 km/h (3 Bft)
21.09.2023 17:20 24,5 °C 26,8 °C 58 % 50 % 999,6 hPa 0,0 l/m² 12,4 km/h (2 Bft) O 90 ° 1 min 311 W/m² 15,5 °C 25,8 °C 16,1 km/h (3 Bft)
21.09.2023 17:21 24,4 °C 26,8 °C 58 % 52 % 999,4 hPa 0,0 l/m² 12,8 km/h (3 Bft) O 84 ° 1 min 297 W/m² 16,1 °C 25,8 °C 14,5 km/h (3 Bft)
21.09.2023 17:22 24,4 °C 26,8 °C 58 % 51 % 999,5 hPa 0,0 l/m² 10,5 km/h (2 Bft) O 86 ° 1 min 292 W/m² 15,8 °C 26,1 °C 14,5 km/h (3 Bft)
21.09.2023 17:23 24,5 °C 26,8 °C 58 % 51 % 999,5 hPa 0,0 l/m² 10,8 km/h (2 Bft) O 92 ° 1 min 283 W/m² 15,8 °C 26,0 °C 16,1 km/h (3 Bft)
21.09.2023 17:24 24,4 °C 26,8 °C 58 % 53 % 999,4 hPa 0,0 l/m² 6,0 km/h (2 Bft) O 93 ° 1 min 276 W/m² 16,4 °C 26,8 °C 9,7 km/h (2 Bft)
21.09.2023 17:25 24,4 °C 26,7 °C 58 % 52 % 999,5 hPa 0,0 l/m² 10,0 km/h (2 Bft) O 92 ° 1 min 229 W/m² 16,0 °C 26,0 °C 12,9 km/h (3 Bft)
21.09.2023 17:26 24,4 °C 26,7 °C 58 % 52 % 999,5 hPa 0,0 l/m² 8,0 km/h (2 Bft) O 82 ° 1 min 183 W/m² 16,0 °C 26,4 °C 12,9 km/h (3 Bft)
21.09.2023 17:27 24,4 °C 26,7 °C 58 % 53 % 999,5 hPa 0,0 l/m² 8,5 km/h (2 Bft) O 89 ° 1 min 227 W/m² 16,3 °C 26,3 °C 11,3 km/h (2 Bft)
21.09.2023 17:28 24,5 °C 26,6 °C 58 % 53 % 999,5 hPa 0,0 l/m² 10,5 km/h (2 Bft) O-NO 62 ° 1 min 220 W/m² 16,2 °C 25,9 °C 14,5 km/h (3 Bft)
21.09.2023 17:29 24,4 °C 26,5 °C 58 % 53 % 999,5 hPa 0,0 l/m² 8,9 km/h (2 Bft) O 89 ° 1 min 213 W/m² 16,1 °C 26,0 °C 12,9 km/h (3 Bft)
21.09.2023 17:30 24,4 °C 26,5 °C 58 % 52 % 999,4 hPa 0,0 l/m² 10,4 km/h (2 Bft) O 89 ° 1 min 202 W/m² 15,8 °C 25,8 °C 14,5 km/h (3 Bft)
21.09.2023 17:31 24,4 °C 26,5 °C 58 % 51 % 999,4 hPa 0,0 l/m² 10,8 km/h (2 Bft) O 89 ° 1 min 200 W/m² 15,5 °C 25,7 °C 12,9 km/h (3 Bft)
21.09.2023 17:32 24,4 °C 26,5 °C 58 % 54 % 999,4 hPa 0,0 l/m² 9,2 km/h (2 Bft) O 93 ° 1 min 190 W/m² 16,4 °C 26,0 °C 11,3 km/h (2 Bft)
21.09.2023 17:33 24,4 °C 26,4 °C 58 % 54 % 999,4 hPa 0,0 l/m² 9,1 km/h (2 Bft) O-SO 104 ° 1 min 156 W/m² 16,3 °C 25,9 °C 11,3 km/h (2 Bft)
21.09.2023 17:34 24,4 °C 26,4 °C 58 % 53 % 999,4 hPa 0,0 l/m² 8,7 km/h (2 Bft) O 90 ° 1 min 139 W/m² 16,0 °C 25,9 °C 11,3 km/h (2 Bft)
21.09.2023 17:35 24,4 °C 26,3 °C 58 % 52 % 999,3 hPa 0,0 l/m² 8,9 km/h (2 Bft) O 86 ° 1 min 130 W/m² 15,6 °C 25,8 °C 12,9 km/h (3 Bft)
21.09.2023 17:36 24,4 °C 26,3 °C 58 % 53 % 999,3 hPa 0,0 l/m² 9,5 km/h (2 Bft) O 89 ° 1 min 120 W/m² 15,9 °C 25,7 °C 12,9 km/h (3 Bft)
21.09.2023 17:37 24,4 °C 26,3 °C 58 % 52 % 999,3 hPa 0,0 l/m² 7,3 km/h (2 Bft) O 84 ° 1 min 139 W/m² 15,6 °C 26,1 °C 11,3 km/h (2 Bft)
21.09.2023 17:38 24,4 °C 26,2 °C 58 % 55 % 999,4 hPa 0,0 l/m² 6,5 km/h (2 Bft) O-NO 78 ° 1 min 144 W/m² 16,4 °C 26,2 °C 8,0 km/h (2 Bft)
21.09.2023 17:39 24,4 °C 26,2 °C 58 % 53 % 999,3 hPa 0,0 l/m² 6,4 km/h (2 Bft) O 83 ° 1 min 83 W/m² 15,8 °C 26,2 °C 8,0 km/h (2 Bft)
21.09.2023 17:40 24,4 °C 26,1 °C 58 % 54 % 999,3 hPa 0,0 l/m² 5,9 km/h (2 Bft) O 80 ° 1 min 72 W/m² 16,0 °C 26,1 °C 8,0 km/h (2 Bft)
21.09.2023 17:41 24,4 °C 26,0 °C 58 % 55 % 999,3 hPa 0,0 l/m² 6,7 km/h (2 Bft) O 80 ° 1 min 67 W/m² 16,2 °C 25,9 °C 8,0 km/h (2 Bft)
21.09.2023 17:42 24,4 °C 25,9 °C 58 % 53 % 999,2 hPa 0,0 l/m² 10,0 km/h (2 Bft) O 86 ° 1 min 63 W/m² 15,6 °C 25,2 °C 14,5 km/h (3 Bft)
21.09.2023 17:43 24,4 °C 25,8 °C 58 % 54 % 999,2 hPa 0,0 l/m² 9,0 km/h (2 Bft) O 82 ° 1 min 62 W/m² 15,8 °C 25,2 °C 12,9 km/h (3 Bft)
21.09.2023 17:44 24,4 °C 25,8 °C 58 % 55 % 999,2 hPa 0,0 l/m² 10,7 km/h (2 Bft) O 96 ° 1 min 67 W/m² 16,1 °C 24,9 °C 12,9 km/h (3 Bft)
21.09.2023 17:45 24,4 °C 25,6 °C 58 % 55 % 999,2 hPa 0,0 l/m² 8,5 km/h (2 Bft) O 92 ° 1 min 77 W/m² 15,9 °C 25,1 °C 11,3 km/h (2 Bft)
21.09.2023 17:46 24,4 °C 25,6 °C 58 % 55 % 999,2 hPa 0,0 l/m² 6,9 km/h (2 Bft) O 86 ° 1 min 142 W/m² 15,9 °C 25,5 °C 8,0 km/h (2 Bft)
21.09.2023 17:47 24,4 °C 25,4 °C 58 % 55 % 999,2 hPa 0,0 l/m² 8,8 km/h (2 Bft) O 82 ° 1 min 142 W/m² 15,7 °C 24,8 °C 11,3 km/h (2 Bft)
21.09.2023 17:48 24,4 °C 25,4 °C 58 % 57 % 999,1 hPa 0,0 l/m² 5,6 km/h (2 Bft) O 89 ° 1 min 107 W/m² 16,2 °C 25,4 °C 6,4 km/h (2 Bft)
21.09.2023 17:49 24,3 °C 25,4 °C 58 % 56 % 999,2 hPa 0,0 l/m² 6,1 km/h (2 Bft) O 82 ° 1 min 105 W/m² 16,0 °C 25,4 °C 8,0 km/h (2 Bft)
21.09.2023 17:50 24,3 °C 25,4 °C 58 % 56 % 999,1 hPa 0,0 l/m² 6,4 km/h (2 Bft) O 85 ° 1 min 56 W/m² 16,0 °C 25,4 °C 8,0 km/h (2 Bft)
21.09.2023 17:51 24,4 °C 25,4 °C 58 % 56 % 999,1 hPa 0,0 l/m² 6,1 km/h (2 Bft) O-NO 73 ° 0 min 44 W/m² 16,0 °C 25,4 °C 9,7 km/h (2 Bft)
21.09.2023 17:52 24,4 °C 25,3 °C 58 % 57 % 999,1 hPa 0,0 l/m² 5,6 km/h (2 Bft) O 87 ° 0 min 42 W/m² 16,2 °C 25,3 °C 6,4 km/h (2 Bft)
21.09.2023 17:53 24,3 °C 25,3 °C 58 % 57 % 999,1 hPa 0,0 l/m² 5,1 km/h (1 Bft) O 81 ° 0 min 39 W/m² 16,2 °C 25,3 °C 6,4 km/h (2 Bft)
21.09.2023 17:54 24,3 °C 25,2 °C 58 % 57 % 999,1 hPa 0,0 l/m² 4,9 km/h (1 Bft) O 84 ° 0 min 35 W/m² 16,1 °C 25,2 °C 6,4 km/h (2 Bft)
21.09.2023 17:55 24,3 °C 25,1 °C 58 % 57 % 999,2 hPa 0,0 l/m² 3,6 km/h (1 Bft) O 84 ° 0 min 35 W/m² 16,0 °C 25,1 °C 4,8 km/h (1 Bft)
21.09.2023 17:56 24,3 °C 25,0 °C 58 % 57 % 999,2 hPa 0,0 l/m² 4,9 km/h (1 Bft) O 85 ° 0 min 49 W/m² 15,9 °C 25,0 °C 6,4 km/h (2 Bft)
21.09.2023 17:57 24,3 °C 24,9 °C 58 % 58 % 999,1 hPa 0,0 l/m² 4,7 km/h (1 Bft) O 84 ° 0 min 40 W/m² 16,1 °C 24,9 °C 4,8 km/h (1 Bft)
21.09.2023 17:58 24,3 °C 24,8 °C 58 % 57 % 999,1 hPa 0,0 l/m² 5,2 km/h (1 Bft) O 82 ° 0 min 30 W/m² 15,7 °C 24,8 °C 6,4 km/h (2 Bft)
21.09.2023 17:59 24,3 °C 24,8 °C 58 % 57 % 999,1 hPa 0,0 l/m² 5,5 km/h (2 Bft) O 80 ° 0 min 30 W/m² 15,7 °C 24,8 °C 6,4 km/h (2 Bft)
21.09.2023 18:00 24,3 °C 24,7 °C 58 % 57 % 999,1 hPa 0,0 l/m² 5,1 km/h (1 Bft) O-NO 77 ° 0 min 28 W/m² 15,6 °C 24,7 °C 6,4 km/h (2 Bft)
21.09.2023 18:01 24,3 °C 24,7 °C 58 % 57 % 999,0 hPa 0,0 l/m² 5,8 km/h (2 Bft) O-NO 78 ° 0 min 26 W/m² 15,6 °C 24,7 °C 8,0 km/h (2 Bft)
21.09.2023 18:02 24,3 °C 24,7 °C 58 % 57 % 999,0 hPa 0,0 l/m² 5,0 km/h (1 Bft) O-NO 74 ° 0 min 25 W/m² 15,6 °C 24,7 °C 8,0 km/h (2 Bft)
21.09.2023 18:03 24,3 °C 24,6 °C 58 % 58 % 998,9 hPa 0,0 l/m² 3,8 km/h (1 Bft) O-NO 73 ° 0 min 23 W/m² 15,8 °C 24,6 °C 4,8 km/h (1 Bft)
21.09.2023 18:04 24,3 °C 24,6 °C 58 % 58 % 998,9 hPa 0,0 l/m² 3,5 km/h (1 Bft) O-NO 69 ° 0 min 21 W/m² 15,8 °C 24,6 °C 4,8 km/h (1 Bft)
21.09.2023 18:05 24,3 °C 24,6 °C 58 % 58 % 999,0 hPa 0,0 l/m² 4,4 km/h (1 Bft) O-NO 69 ° 0 min 21 W/m² 15,8 °C 24,6 °C 4,8 km/h (1 Bft)
21.09.2023 18:06 24,3 °C 24,4 °C 58 % 58 % 999,0 hPa 0,0 l/m² 3,0 km/h (1 Bft) O-NO 69 ° 0 min 21 W/m² 15,6 °C 24,4 °C 4,8 km/h (1 Bft)
21.09.2023 18:07 24,3 °C 24,4 °C 58 % 59 % 999,0 hPa 0,0 l/m² 3,6 km/h (1 Bft) O-NO 71 ° 0 min 21 W/m² 15,9 °C 24,4 °C 4,8 km/h (1 Bft)
21.09.2023 18:08 24,3 °C 24,3 °C 58 % 59 % 998,9 hPa 0,0 l/m² 2,9 km/h (1 Bft) O-NO 71 ° 0 min 21 W/m² 15,8 °C 24,3 °C 4,8 km/h (1 Bft)
21.09.2023 18:09 24,3 °C 24,2 °C 58 % 59 % 998,8 hPa 0,0 l/m² 3,7 km/h (1 Bft) O-NO 77 ° 0 min 21 W/m² 15,7 °C 24,2 °C 4,8 km/h (1 Bft)
21.09.2023 18:10 24,3 °C 24,1 °C 58 % 59 % 998,9 hPa 0,0 l/m² 3,9 km/h (1 Bft) O-NO 61 ° 0 min 21 W/m² 15,6 °C 24,1 °C 4,8 km/h (1 Bft)
21.09.2023 18:11 24,3 °C 24,1 °C 58 % 60 % 998,8 hPa 0,0 l/m² 3,9 km/h (1 Bft) O-NO 64 ° 0 min 21 W/m² 15,8 °C 24,1 °C 6,4 km/h (2 Bft)
21.09.2023 18:12 24,3 °C 23,9 °C 58 % 60 % 998,9 hPa 0,0 l/m² 3,4 km/h (1 Bft) O-NO 62 ° 0 min 19 W/m² 15,7 °C 23,9 °C 4,8 km/h (1 Bft)
21.09.2023 18:13 24,3 °C 23,9 °C 58 % 60 % 998,8 hPa 0,0 l/m² 3,6 km/h (1 Bft) O-NO 75 ° 0 min 21 W/m² 15,7 °C 23,9 °C 6,4 km/h (2 Bft)
21.09.2023 18:14 24,3 °C 23,8 °C 58 % 60 % 998,8 hPa 0,0 l/m² 4,1 km/h (1 Bft) O-NO 72 ° 0 min 21 W/m² 15,6 °C 23,8 °C 6,4 km/h (2 Bft)
21.09.2023 18:15 24,3 °C 23,8 °C 58 % 60 % 998,8 hPa 0,0 l/m² 2,8 km/h (1 Bft) O-NO 74 ° 0 min 21 W/m² 15,6 °C 23,8 °C 4,8 km/h (1 Bft)
21.09.2023 18:16 24,3 °C 23,7 °C 58 % 61 % 998,8 hPa 0,0 l/m² 3,8 km/h (1 Bft) O-NO 65 ° 0 min 21 W/m² 15,7 °C 23,7 °C 6,4 km/h (2 Bft)
21.09.2023 18:17 24,3 °C 23,6 °C 58 % 63 % 998,8 hPa 0,0 l/m² 3,1 km/h (1 Bft) O-NO 65 ° 0 min 21 W/m² 16,1 °C 23,6 °C 4,8 km/h (1 Bft)
21.09.2023 18:18 24,3 °C 23,5 °C 58 % 63 % 998,8 hPa 0,0 l/m² 1,9 km/h (1 Bft) O-NO 65 ° 0 min 21 W/m² 16,0 °C 23,5 °C 3,2 km/h (1 Bft)
21.09.2023 18:19 24,2 °C 23,4 °C 58 % 63 % 998,8 hPa 0,0 l/m² 3,0 km/h (1 Bft) O-NO 65 ° 0 min 23 W/m² 15,9 °C 23,4 °C 4,8 km/h (1 Bft)
21.09.2023 18:20 24,3 °C 23,3 °C 58 % 62 % 998,8 hPa 0,0 l/m² 3,1 km/h (1 Bft) O-NO 63 ° 0 min 23 W/m² 15,6 °C 23,3 °C 4,8 km/h (1 Bft)
21.09.2023 18:21 24,2 °C 23,2 °C 58 % 63 % 998,8 hPa 0,0 l/m² 1,9 km/h (1 Bft) O-NO 63 ° 0 min 25 W/m² 15,8 °C 23,2 °C 3,2 km/h (1 Bft)
21.09.2023 18:22 24,2 °C 23,2 °C 58 % 63 % 998,7 hPa 0,0 l/m² 4,1 km/h (1 Bft) O-NO 63 ° 0 min 25 W/m² 15,8 °C 23,2 °C 8,0 km/h (2 Bft)
21.09.2023 18:23 24,2 °C 23,3 °C 58 % 62 % 998,7 hPa 0,0 l/m² 2,7 km/h (1 Bft) O-NO 65 ° 0 min 26 W/m² 15,6 °C 23,3 °C 6,4 km/h (2 Bft)
21.09.2023 18:24 24,2 °C 23,3 °C 58 % 62 % 998,7 hPa 0,0 l/m² 3,1 km/h (1 Bft) O-NO 65 ° 0 min 26 W/m² 15,6 °C 23,3 °C 4,8 km/h (1 Bft)
21.09.2023 18:25 24,2 °C 23,3 °C 58 % 61 % 998,7 hPa 0,0 l/m² 2,3 km/h (1 Bft) O-NO 65 ° 0 min 28 W/m² 15,3 °C 23,3 °C 3,2 km/h (1 Bft)
21.09.2023 18:26 24,2 °C 23,3 °C 58 % 62 % 998,7 hPa 0,0 l/m² 2,6 km/h (1 Bft) O-NO 65 ° 0 min 28 W/m² 15,6 °C 23,3 °C 3,2 km/h (1 Bft)
21.09.2023 18:27 24,2 °C 23,3 °C 58 % 62 % 998,7 hPa 0,0 l/m² 1,7 km/h (1 Bft) O-NO 65 ° 0 min 28 W/m² 15,6 °C 23,3 °C 3,2 km/h (1 Bft)
21.09.2023 18:28 24,2 °C 23,3 °C 58 % 63 % 998,7 hPa 0,0 l/m² 1,9 km/h (1 Bft) O-NO 65 ° 0 min 28 W/m² 15,9 °C 23,3 °C 3,2 km/h (1 Bft)
21.09.2023 18:29 24,2 °C 23,2 °C 58 % 64 % 998,7 hPa 0,0 l/m² 2,2 km/h (1 Bft) O-NO 65 ° 0 min 26 W/m² 16,0 °C 23,2 °C 3,2 km/h (1 Bft)
21.09.2023 18:30 24,2 °C 23,1 °C 58 % 63 % 998,6 hPa 0,0 l/m² 1,9 km/h (1 Bft) O-NO 65 ° 0 min 26 W/m² 15,7 °C 23,1 °C 3,2 km/h (1 Bft)
21.09.2023 18:31 24,2 °C 23,1 °C 58 % 63 % 998,7 hPa 0,0 l/m² 2,7 km/h (1 Bft) O-NO 65 ° 0 min 26 W/m² 15,7 °C 23,1 °C 3,2 km/h (1 Bft)
21.09.2023 18:32 24,2 °C 23,1 °C 58 % 62 % 998,7 hPa 0,0 l/m² 2,5 km/h (1 Bft) O-NO 65 ° 0 min 26 W/m² 15,4 °C 23,1 °C 3,2 km/h (1 Bft)
21.09.2023 18:33 24,2 °C 23,1 °C 58 % 62 % 998,7 hPa 0,0 l/m² 1,8 km/h (1 Bft) O-NO 65 ° 0 min 26 W/m² 15,4 °C 23,1 °C 3,2 km/h (1 Bft)
21.09.2023 18:34 24,2 °C 23,1 °C 57 % 61 % 998,7 hPa 0,0 l/m² 0,8 km/h (0 Bft) O-NO 65 ° 0 min 26 W/m² 15,2 °C 23,1 °C 1,6 km/h (1 Bft)
21.09.2023 18:35 24,2 °C 23,2 °C 57 % 61 % 998,7 hPa 0,0 l/m² 0,1 km/h (0 Bft) O-NO 65 ° 0 min 25 W/m² 15,3 °C 23,2 °C 1,6 km/h (1 Bft)
21.09.2023 18:36 24,2 °C 23,2 °C 57 % 61 % 998,7 hPa 0,0 l/m² 0,0 km/h (0 Bft) O-NO 65 ° 0 min 25 W/m² 15,3 °C 23,2 °C 0,0 km/h (0 Bft)
21.09.2023 18:37 24,2 °C 23,2 °C 57 % 61 % 998,8 hPa 0,0 l/m² 0,0 km/h (0 Bft) O-NO 65 ° 0 min 25 W/m² 15,3 °C 23,2 °C 0,0 km/h (0 Bft)
21.09.2023 18:38 24,2 °C 23,2 °C 57 % 62 % 998,7 hPa 0,0 l/m² 0,0 km/h (0 Bft) O-NO 65 ° 0 min 23 W/m² 15,5 °C 23,2 °C 0,0 km/h (0 Bft)
21.09.2023 18:39 24,2 °C 23,1 °C 57 % 62 % 998,7 hPa 0,0 l/m² 0,0 km/h (0 Bft) O-NO 65 ° 0 min 23 W/m² 15,4 °C 23,1 °C 0,0 km/h (0 Bft)
21.09.2023 18:40 24,2 °C 23,0 °C 57 % 64 % 998,7 hPa 0,0 l/m² 0,0 km/h (0 Bft) O-NO 65 ° 0 min 23 W/m² 15,8 °C 23,0 °C 0,0 km/h (0 Bft)
21.09.2023 18:41 24,2 °C 22,8 °C 58 % 65 % 998,7 hPa 0,0 l/m² 0,0 km/h (0 Bft) O-NO 65 ° 0 min 23 W/m² 15,9 °C 22,8 °C 0,0 km/h (0 Bft)
21.09.2023 18:42 24,2 °C 22,7 °C 57 % 66 % 998,7 hPa 0,0 l/m² 0,0 km/h (0 Bft) O-NO 65 ° 0 min 23 W/m² 16,0 °C 22,7 °C 0,0 km/h (0 Bft)
21.09.2023 18:43 24,2 °C 22,6 °C 58 % 67 % 998,7 hPa 0,0 l/m² 0,0 km/h (0 Bft) O-NO 65 ° 0 min 21 W/m² 16,2 °C 22,6 °C 0,0 km/h (0 Bft)
21.09.2023 18:45 24,2 °C 22,3 °C 58 % 69 % 998,6 hPa 0,0 l/m² 0,0 km/h (0 Bft) O-NO 65 ° 0 min 21 W/m² 16,3 °C 22,3 °C 0,0 km/h (0 Bft)
21.09.2023 18:46 24,2 °C 22,3 °C 58 % 70 % 998,7 hPa 0,0 l/m² 0,0 km/h (0 Bft) O-NO 65 ° 0 min 19 W/m² 16,6 °C 22,3 °C 0,0 km/h (0 Bft)
21.09.2023 18:47 24,2 °C 22,2 °C 58 % 69 % 998,7 hPa 0,0 l/m² 0,0 km/h (0 Bft) O-NO 65 ° 0 min 19 W/m² 16,2 °C 22,2 °C 0,0 km/h (0 Bft)
21.09.2023 18:48 24,2 °C 22,1 °C 58 % 69 % 998,7 hPa 0,0 l/m² 0,0 km/h (0 Bft) O-NO 65 ° 0 min 19 W/m² 16,1 °C 22,1 °C 0,0 km/h (0 Bft)
21.09.2023 18:49 24,2 °C 22,0 °C 58 % 69 % 998,6 hPa 0,0 l/m² 0,0 km/h (0 Bft) O-NO 65 ° 0 min 18 W/m² 16,0 °C 22,0 °C 0,0 km/h (0 Bft)
21.09.2023 18:50 24,2 °C 21,9 °C 58 % 69 % 998,6 hPa 0,0 l/m² 0,0 km/h (0 Bft) O-NO 65 ° 0 min 16 W/m² 15,9 °C 21,9 °C 0,0 km/h (0 Bft)
21.09.2023 18:51 24,2 °C 21,9 °C 58 % 69 % 998,6 hPa 0,0 l/m² 0,0 km/h (0 Bft) O-NO 65 ° 0 min 16 W/m² 15,9 °C 21,9 °C 0,0 km/h (0 Bft)
21.09.2023 18:52 24,2 °C 21,9 °C 58 % 69 % 998,7 hPa 0,0 l/m² 0,0 km/h (0 Bft) O-NO 65 ° 0 min 16 W/m² 15,9 °C 21,9 °C 0,0 km/h (0 Bft)
21.09.2023 18:53 24,2 °C 21,8 °C 58 % 69 % 998,6 hPa 0,0 l/m² 0,0 km/h (0 Bft) O-NO 65 ° 0 min 14 W/m² 15,9 °C 21,8 °C 0,0 km/h (0 Bft)
21.09.2023 18:54 24,2 °C 21,8 °C 58 % 69 % 998,6 hPa 0,0 l/m² 0,0 km/h (0 Bft) O-NO 65 ° 0 min 14 W/m² 15,9 °C 21,8 °C 0,0 km/h (0 Bft)
21.09.2023 18:55 24,2 °C 21,8 °C 58 % 69 % 998,6 hPa 0,0 l/m² 0,0 km/h (0 Bft) O-NO 65 ° 0 min 12 W/m² 15,9 °C 21,8 °C 0,0 km/h (0 Bft)
21.09.2023 18:56 24,2 °C 21,8 °C 58 % 69 % 998,6 hPa 0,0 l/m² 0,0 km/h (0 Bft) O-NO 65 ° 0 min 12 W/m² 15,9 °C 21,8 °C 0,0 km/h (0 Bft)
21.09.2023 18:57 24,2 °C 21,8 °C 58 % 70 % 998,5 hPa 0,0 l/m² 0,0 km/h (0 Bft) O-NO 65 ° 0 min 11 W/m² 16,1 °C 21,8 °C 0,0 km/h (0 Bft)
21.09.2023 18:58 24,2 °C 21,7 °C 58 % 70 % 998,6 hPa 0,0 l/m² 0,0 km/h (0 Bft) O-NO 65 ° 0 min 11 W/m² 16,0 °C 21,7 °C 0,0 km/h (0 Bft)
21.09.2023 18:59 24,2 °C 21,7 °C 58 % 69 % 998,7 hPa 0,0 l/m² 0,0 km/h (0 Bft) O-NO 65 ° 0 min 11 W/m² 15,8 °C 21,7 °C 0,0 km/h (0 Bft)
21.09.2023 19:00 24,2 °C 21,7 °C 58 % 70 % 998,5 hPa 0,0 l/m² 0,0 km/h (0 Bft) O-NO 65 ° 0 min 9 W/m² 16,0 °C 21,7 °C 0,0 km/h (0 Bft)
21.09.2023 19:01 24,2 °C 21,7 °C 58 % 70 % 998,6 hPa 0,0 l/m² 0,0 km/h (0 Bft) O-NO 65 ° 0 min 7 W/m² 16,0 °C 21,7 °C 0,0 km/h (0 Bft)
21.09.2023 19:02 24,2 °C 21,6 °C 58 % 70 % 998,6 hPa 0,0 l/m² 0,0 km/h (0 Bft) O-NO 65 ° 0 min 7 W/m² 15,9 °C 21,6 °C 0,0 km/h (0 Bft)
21.09.2023 19:03 24,2 °C 21,5 °C 58 % 71 % 998,5 hPa 0,0 l/m² 0,0 km/h (0 Bft) O-NO 65 ° 0 min 7 W/m² 16,0 °C 21,5 °C 0,0 km/h (0 Bft)
21.09.2023 19:04 24,2 °C 21,4 °C 58 % 72 % 998,5 hPa 0,0 l/m² 0,0 km/h (0 Bft) O-NO 65 ° 0 min 5 W/m² 16,1 °C 21,4 °C 0,0 km/h (0 Bft)
21.09.2023 19:05 24,2 °C 21,2 °C 58 % 73 % 998,5 hPa 0,0 l/m² 0,0 km/h (0 Bft) O-NO 65 ° 0 min 5 W/m² 16,2 °C 21,2 °C 0,0 km/h (0 Bft)
21.09.2023 19:06 24,2 °C 21,1 °C 58 % 73 % 998,5 hPa 0,0 l/m² 0,0 km/h (0 Bft) O-NO 65 ° 0 min 5 W/m² 16,1 °C 21,1 °C 0,0 km/h (0 Bft)
21.09.2023 19:07 24,2 °C 21,1 °C 58 % 73 % 998,6 hPa 0,0 l/m² 0,0 km/h (0 Bft) O-NO 65 ° 0 min 0 W/m² 16,1 °C 21,1 °C 0,0 km/h (0 Bft)
21.09.2023 19:08 24,2 °C 20,9 °C 58 % 73 % 998,5 hPa 0,0 l/m² 0,1 km/h (0 Bft) O-NO 65 ° 0 min 0 W/m² 15,9 °C 20,9 °C 1,6 km/h (1 Bft)
21.09.2023 19:09 24,2 °C 20,8 °C 58 % 73 % 998,5 hPa 0,0 l/m² 2,1 km/h (1 Bft) O-NO 65 ° 0 min 0 W/m² 15,8 °C 20,8 °C 3,2 km/h (1 Bft)
21.09.2023 19:10 24,2 °C 20,8 °C 58 % 73 % 998,6 hPa 0,0 l/m² 0,1 km/h (0 Bft) O-NO 65 ° 0 min 0 W/m² 15,8 °C 20,8 °C 1,6 km/h (1 Bft)
21.09.2023 19:11 24,2 °C 20,7 °C 58 % 74 % 998,5 hPa 0,0 l/m² 0,2 km/h (0 Bft) O-NO 65 ° 0 min 0 W/m² 15,9 °C 20,7 °C 1,6 km/h (1 Bft)
21.09.2023 19:12 24,1 °C 20,6 °C 58 % 75 % 998,5 hPa 0,0 l/m² 1,1 km/h (1 Bft) O-NO 65 ° 0 min 0 W/m² 16,0 °C 20,6 °C 3,2 km/h (1 Bft)
21.09.2023 19:13 24,1 °C 20,5 °C 58 % 74 % 998,5 hPa 0,0 l/m² 1,1 km/h (1 Bft) O-NO 65 ° 0 min 0 W/m² 15,7 °C 20,5 °C 3,2 km/h (1 Bft)
21.09.2023 19:14 24,2 °C 20,4 °C 58 % 74 % 998,6 hPa 0,0 l/m² 4,1 km/h (1 Bft) O-NO 66 ° 0 min 0 W/m² 15,6 °C 20,4 °C 4,8 km/h (1 Bft)
21.09.2023 19:15 24,1 °C 20,5 °C 58 % 73 % 998,5 hPa 0,0 l/m² 1,9 km/h (1 Bft) O-NO 66 ° 0 min 0 W/m² 15,5 °C 20,5 °C 3,2 km/h (1 Bft)
21.09.2023 19:16 24,1 °C 20,5 °C 58 % 74 % 998,4 hPa 0,0 l/m² 3,1 km/h (1 Bft) O-NO 66 ° 0 min 0 W/m² 15,7 °C 20,5 °C 4,8 km/h (1 Bft)
21.09.2023 19:17 24,1 °C 20,4 °C 58 % 74 % 998,5 hPa 0,0 l/m² 2,7 km/h (1 Bft) O-NO 66 ° 0 min 0 W/m² 15,6 °C 20,4 °C 4,8 km/h (1 Bft)
21.09.2023 19:18 24,1 °C 20,5 °C 58 % 73 % 998,5 hPa 0,0 l/m² 3,8 km/h (1 Bft) O-NO 66 ° 0 min 0 W/m² 15,5 °C 20,5 °C 4,8 km/h (1 Bft)
21.09.2023 19:19 24,1 °C 20,5 °C 58 % 73 % 998,5 hPa 0,0 l/m² 3,3 km/h (1 Bft) O-NO 66 ° 0 min 0 W/m² 15,5 °C 20,5 °C 4,8 km/h (1 Bft)
21.09.2023 19:20 24,1 °C 20,6 °C 58 % 72 % 998,5 hPa 0,0 l/m² 4,2 km/h (1 Bft) O-NO 66 ° 0 min 0 W/m² 15,4 °C 20,6 °C 6,4 km/h (2 Bft)
21.09.2023 19:21 24,1 °C 20,6 °C 58 % 72 % 998,5 hPa 0,0 l/m² 3,1 km/h (1 Bft) O-NO 66 ° 0 min 0 W/m² 15,4 °C 20,6 °C 4,8 km/h (1 Bft)
21.09.2023 19:22 24,1 °C 20,6 °C 58 % 72 % 998,5 hPa 0,0 l/m² 3,1 km/h (1 Bft) O-NO 66 ° 0 min 0 W/m² 15,4 °C 20,6 °C 6,4 km/h (2 Bft)
21.09.2023 19:23 24,1 °C 20,6 °C 58 % 73 % 998,6 hPa 0,0 l/m² 3,7 km/h (1 Bft) O-NO 70 ° 0 min 0 W/m² 15,6 °C 20,6 °C 4,8 km/h (1 Bft)
21.09.2023 19:24 24,1 °C 20,5 °C 58 % 73 % 998,5 hPa 0,0 l/m² 3,7 km/h (1 Bft) O-NO 70 ° 0 min 0 W/m² 15,5 °C 20,5 °C 4,8 km/h (1 Bft)
21.09.2023 19:25 24,1 °C 20,4 °C 58 % 73 % 998,6 hPa 0,0 l/m² 6,7 km/h (2 Bft) O-NO 78 ° 0 min 0 W/m² 15,4 °C 20,3 °C 12,9 km/h (3 Bft)
21.09.2023 19:26 24,1 °C 20,4 °C 58 % 73 % 998,5 hPa 0,0 l/m² 5,5 km/h (2 Bft) O-NO 78 ° 0 min 0 W/m² 15,4 °C 20,4 °C 6,4 km/h (2 Bft)
21.09.2023 19:27 24,1 °C 20,4 °C 58 % 73 % 998,5 hPa 0,0 l/m² 5,9 km/h (2 Bft) O-NO 78 ° 0 min 0 W/m² 15,4 °C 20,4 °C 9,7 km/h (2 Bft)
21.09.2023 19:28 24,1 °C 20,4 °C 58 % 74 % 998,5 hPa 0,0 l/m² 6,0 km/h (2 Bft) O 80 ° 0 min 0 W/m² 15,6 °C 20,4 °C 8,0 km/h (2 Bft)
21.09.2023 19:29 24,1 °C 20,4 °C 58 % 73 % 998,4 hPa 0,0 l/m² 4,7 km/h (1 Bft) O 80 ° 0 min 0 W/m² 15,4 °C 20,4 °C 6,4 km/h (2 Bft)
21.09.2023 19:30 24,1 °C 20,4 °C 58 % 73 % 998,5 hPa 0,0 l/m² 6,3 km/h (2 Bft) O-NO 78 ° 0 min 0 W/m² 15,4 °C 20,4 °C 8,0 km/h (2 Bft)
21.09.2023 19:31 24,1 °C 20,6 °C 58 % 73 % 998,4 hPa 0,0 l/m² 6,3 km/h (2 Bft) O-NO 64 ° 0 min 0 W/m² 15,6 °C 20,6 °C 8,0 km/h (2 Bft)
21.09.2023 19:32 24,1 °C 20,6 °C 59 % 73 % 998,4 hPa 0,0 l/m² 5,0 km/h (1 Bft) O-NO 65 ° 0 min 0 W/m² 15,6 °C 20,6 °C 6,4 km/h (2 Bft)
21.09.2023 19:33 24,1 °C 20,7 °C 59 % 73 % 998,4 hPa 0,0 l/m² 7,3 km/h (2 Bft) O-NO 69 ° 0 min 0 W/m² 15,7 °C 20,4 °C 12,9 km/h (3 Bft)
21.09.2023 19:34 24,1 °C 20,8 °C 59 % 73 % 998,4 hPa 0,0 l/m² 6,8 km/h (2 Bft) O-NO 78 ° 0 min 0 W/m² 15,8 °C 20,7 °C 8,0 km/h (2 Bft)
21.09.2023 19:35 24,1 °C 20,8 °C 59 % 73 % 998,4 hPa 0,0 l/m² 7,2 km/h (2 Bft) O-NO 70 ° 0 min 0 W/m² 15,8 °C 20,5 °C 11,3 km/h (2 Bft)
21.09.2023 19:36 24,1 °C 20,8 °C 59 % 73 % 998,4 hPa 0,0 l/m² 6,0 km/h (2 Bft) O 84 ° 0 min 0 W/m² 15,8 °C 20,8 °C 8,0 km/h (2 Bft)
21.09.2023 19:37 24,1 °C 20,9 °C 59 % 73 % 998,4 hPa 0,0 l/m² 5,1 km/h (1 Bft) O-NO 71 ° 0 min 0 W/m² 15,9 °C 20,9 °C 6,4 km/h (2 Bft)
21.09.2023 19:38 24,1 °C 20,8 °C 59 % 73 % 998,4 hPa 0,0 l/m² 4,5 km/h (1 Bft) O-NO 71 ° 0 min 0 W/m² 15,8 °C 20,8 °C 6,4 km/h (2 Bft)
21.09.2023 19:39 24,1 °C 20,8 °C 59 % 73 % 998,4 hPa 0,0 l/m² 4,0 km/h (1 Bft) O-NO 72 ° 0 min 0 W/m² 15,8 °C 20,8 °C 4,8 km/h (1 Bft)
21.09.2023 19:40 24,1 °C 20,7 °C 59 % 73 % 998,4 hPa 0,0 l/m² 5,5 km/h (2 Bft) O 81 ° 0 min 0 W/m² 15,7 °C 20,7 °C 11,3 km/h (2 Bft)
21.09.2023 19:41 24,1 °C 20,7 °C 59 % 74 % 998,4 hPa 0,0 l/m² 6,4 km/h (2 Bft) O-NO 76 ° 0 min 0 W/m² 15,9 °C 20,7 °C 11,3 km/h (2 Bft)
21.09.2023 19:42 24,1 °C 20,7 °C 59 % 74 % 998,4 hPa 0,0 l/m² 6,1 km/h (2 Bft) O-NO 75 ° 0 min 0 W/m² 15,9 °C 20,7 °C 8,0 km/h (2 Bft)
21.09.2023 19:43 24,1 °C 20,7 °C 59 % 74 % 998,3 hPa 0,0 l/m² 6,0 km/h (2 Bft) O 90 ° 0 min 0 W/m² 15,9 °C 20,7 °C 14,5 km/h (3 Bft)
21.09.2023 19:44 24,1 °C 20,8 °C 59 % 74 % 998,3 hPa 0,0 l/m² 7,5 km/h (2 Bft) O-NO 59 ° 0 min 0 W/m² 16,0 °C 20,4 °C 12,9 km/h (3 Bft)
21.09.2023 19:45 24,1 °C 20,9 °C 59 % 75 % 998,3 hPa 0,0 l/m² 6,3 km/h (2 Bft) O 79 ° 0 min 0 W/m² 16,3 °C 20,9 °C 11,3 km/h (2 Bft)
21.09.2023 19:46 24,1 °C 21,0 °C 59 % 75 % 998,3 hPa 0,0 l/m² 5,7 km/h (2 Bft) O-NO 66 ° 0 min 0 W/m² 16,4 °C 21,0 °C 8,0 km/h (2 Bft)
21.09.2023 19:47 24,1 °C 21,1 °C 59 % 75 % 998,3 hPa 0,0 l/m² 6,0 km/h (2 Bft) NO 53 ° 0 min 0 W/m² 16,5 °C 21,1 °C 11,3 km/h (2 Bft)
21.09.2023 19:48 24,1 °C 21,1 °C 59 % 75 % 998,3 hPa 0,0 l/m² 9,8 km/h (2 Bft) O-NO 70 ° 0 min 0 W/m² 16,5 °C 19,9 °C 14,5 km/h (3 Bft)
21.09.2023 19:49 24,1 °C 21,2 °C 59 % 75 % 998,3 hPa 0,0 l/m² 8,0 km/h (2 Bft) O-NO 72 ° 0 min 0 W/m² 16,6 °C 20,6 °C 12,9 km/h (3 Bft)
21.09.2023 19:50 24,1 °C 21,3 °C 59 % 74 % 998,2 hPa 0,0 l/m² 7,2 km/h (2 Bft) NO 49 ° 0 min 0 W/m² 16,5 °C 21,0 °C 16,1 km/h (3 Bft)
21.09.2023 19:51 24,1 °C 21,3 °C 59 % 74 % 998,2 hPa 0,0 l/m² 8,4 km/h (2 Bft) NO 49 ° 0 min 0 W/m² 16,5 °C 20,6 °C 14,5 km/h (3 Bft)
21.09.2023 19:52 24,1 °C 21,4 °C 59 % 74 % 998,2 hPa 0,0 l/m² 8,4 km/h (2 Bft) O-NO 74 ° 0 min 0 W/m² 16,6 °C 20,7 °C 16,1 km/h (3 Bft)
21.09.2023 19:53 24,1 °C 21,5 °C 59 % 74 % 998,2 hPa 0,0 l/m² 6,0 km/h (2 Bft) O-NO 57 ° 0 min 0 W/m² 16,7 °C 21,5 °C 8,0 km/h (2 Bft)
21.09.2023 19:54 24,1 °C 21,6 °C 59 % 74 % 998,2 hPa 0,0 l/m² 9,2 km/h (2 Bft) O-NO 59 ° 0 min 0 W/m² 16,8 °C 20,6 °C 16,1 km/h (3 Bft)
21.09.2023 19:55 24,1 °C 21,6 °C 59 % 74 % 998,2 hPa 0,0 l/m² 10,4 km/h (2 Bft) O-NO 78 ° 0 min 0 W/m² 16,8 °C 20,3 °C 16,1 km/h (3 Bft)
21.09.2023 19:56 24,1 °C 21,7 °C 59 % 74 % 998,2 hPa 0,0 l/m² 9,1 km/h (2 Bft) O 82 ° 0 min 0 W/m² 16,9 °C 20,8 °C 12,9 km/h (3 Bft)
21.09.2023 19:57 24,1 °C 21,7 °C 59 % 73 % 998,3 hPa 0,0 l/m² 7,4 km/h (2 Bft) O 88 ° 0 min 0 W/m² 16,6 °C 21,3 °C 11,3 km/h (2 Bft)
21.09.2023 19:58 24,1 °C 21,8 °C 59 % 73 % 998,2 hPa 0,0 l/m² 8,4 km/h (2 Bft) O-NO 59 ° 0 min 0 W/m² 16,7 °C 21,1 °C 11,3 km/h (2 Bft)
21.09.2023 19:59 24,2 °C 21,8 °C 59 % 73 % 998,3 hPa 0,0 l/m² 8,7 km/h (2 Bft) O-NO 76 ° 0 min 0 W/m² 16,7 °C 21,0 °C 14,5 km/h (3 Bft)
21.09.2023 20:00 24,1 °C 21,8 °C 59 % 73 % 998,2 hPa 0,0 l/m² 7,7 km/h (2 Bft) O-NO 78 ° 0 min 0 W/m² 16,7 °C 21,3 °C 11,3 km/h (2 Bft)
21.09.2023 20:02 24,1 °C 21,7 °C 59 % 73 % 998,2 hPa 0,0 l/m² 6,3 km/h (2 Bft) O-NO 78 ° 0 min 0 W/m² 16,6 °C 21,7 °C 12,9 km/h (3 Bft)
21.09.2023 20:03 24,1 °C 21,7 °C 59 % 74 % 998,2 hPa 0,0 l/m² 7,2 km/h (2 Bft) O 84 ° 0 min 0 W/m² 16,9 °C 21,4 °C 11,3 km/h (2 Bft)
21.09.2023 20:04 24,1 °C 21,7 °C 59 % 74 % 998,2 hPa 0,0 l/m² 8,0 km/h (2 Bft) O-NO 74 ° 0 min 0 W/m² 16,9 °C 21,1 °C 12,9 km/h (3 Bft)
21.09.2023 20:05 24,1 °C 21,7 °C 59 % 74 % 998,2 hPa 0,0 l/m² 6,0 km/h (2 Bft) O-NO 75 ° 0 min 0 W/m² 16,9 °C 21,7 °C 8,0 km/h (2 Bft)
21.09.2023 20:06 24,1 °C 21,7 °C 59 % 74 % 998,2 hPa 0,0 l/m² 6,8 km/h (2 Bft) O 80 ° 0 min 0 W/m² 16,9 °C 21,6 °C 11,3 km/h (2 Bft)
21.09.2023 20:07 24,2 °C 21,7 °C 59 % 74 % 998,2 hPa 0,0 l/m² 7,6 km/h (2 Bft) O 80 ° 0 min 0 W/m² 16,9 °C 21,3 °C 12,9 km/h (3 Bft)
21.09.2023 20:08 24,2 °C 21,6 °C 59 % 74 % 998,2 hPa 0,0 l/m² 8,4 km/h (2 Bft) O-NO 66 ° 0 min 0 W/m² 16,8 °C 20,9 °C 12,9 km/h (3 Bft)
21.09.2023 20:09 24,1 °C 21,6 °C 59 % 74 % 998,2 hPa 0,0 l/m² 5,3 km/h (1 Bft) NO 53 ° 0 min 0 W/m² 16,8 °C 21,6 °C 8,0 km/h (2 Bft)
21.09.2023 20:10 24,2 °C 21,6 °C 59 % 74 % 998,2 hPa 0,0 l/m² 7,7 km/h (2 Bft) NO 46 ° 0 min 0 W/m² 16,8 °C 21,1 °C 12,9 km/h (3 Bft)
21.09.2023 20:11 24,2 °C 21,6 °C 59 % 74 % 998,2 hPa 0,0 l/m² 6,8 km/h (2 Bft) NO 56 ° 0 min 0 W/m² 16,8 °C 21,5 °C 12,9 km/h (3 Bft)
21.09.2023 20:12 24,1 °C 21,6 °C 59 % 74 % 998,3 hPa 0,0 l/m² 6,7 km/h (2 Bft) O-NO 72 ° 0 min 0 W/m² 16,8 °C 21,5 °C 8,0 km/h (2 Bft)
21.09.2023 20:13 24,2 °C 21,6 °C 59 % 74 % 998,2 hPa 0,0 l/m² 5,1 km/h (1 Bft) O-NO 70 ° 0 min 0 W/m² 16,8 °C 21,6 °C 8,0 km/h (2 Bft)
21.09.2023 20:14 24,2 °C 21,5 °C 59 % 74 % 998,2 hPa 0,0 l/m² 6,8 km/h (2 Bft) O 84 ° 0 min 0 W/m² 16,7 °C 21,4 °C 9,7 km/h (2 Bft)
21.09.2023 20:15 24,1 °C 21,4 °C 59 % 75 % 998,2 hPa 0,0 l/m² 5,7 km/h (2 Bft) O-NO 73 ° 0 min 0 W/m² 16,8 °C 21,4 °C 8,0 km/h (2 Bft)
21.09.2023 20:16 24,2 °C 21,4 °C 59 % 75 % 998,3 hPa 0,0 l/m² 4,8 km/h (1 Bft) O-NO 63 ° 0 min 0 W/m² 16,8 °C 21,4 °C 6,4 km/h (2 Bft)
21.09.2023 20:17 24,2 °C 21,4 °C 59 % 75 % 998,3 hPa 0,0 l/m² 4,3 km/h (1 Bft) O 80 ° 0 min 0 W/m² 16,8 °C 21,4 °C 6,4 km/h (2 Bft)
21.09.2023 20:18 24,2 °C 21,4 °C 59 % 75 % 998,2 hPa 0,0 l/m² 5,3 km/h (1 Bft) NO 51 ° 0 min 0 W/m² 16,8 °C 21,4 °C 8,0 km/h (2 Bft)
21.09.2023 20:19 24,2 °C 21,3 °C 59 % 75 % 998,2 hPa 0,0 l/m² 4,5 km/h (1 Bft) O-NO 75 ° 0 min 0 W/m² 16,7 °C 21,3 °C 6,4 km/h (2 Bft)
21.09.2023 20:20 24,1 °C 21,3 °C 59 % 75 % 998,2 hPa 0,0 l/m² 3,5 km/h (1 Bft) O-NO 65 ° 0 min 0 W/m² 16,7 °C 21,3 °C 6,4 km/h (2 Bft)
21.09.2023 20:21 24,1 °C 21,3 °C 59 % 75 % 998,2 hPa 0,0 l/m² 4,7 km/h (1 Bft) O-NO 78 ° 0 min 0 W/m² 16,7 °C 21,3 °C 6,4 km/h (2 Bft)
21.09.2023 20:22 24,2 °C 21,3 °C 59 % 75 % 998,3 hPa 0,0 l/m² 4,8 km/h (1 Bft) O 82 ° 0 min 0 W/m² 16,7 °C 21,3 °C 6,4 km/h (2 Bft)
21.09.2023 20:23 24,1 °C 21,3 °C 59 % 75 % 998,2 hPa 0,0 l/m² 4,7 km/h (1 Bft) O-NO 74 ° 0 min 0 W/m² 16,7 °C 21,3 °C 8,0 km/h (2 Bft)
21.09.2023 20:24 24,1 °C 21,3 °C 59 % 75 % 998,2 hPa 0,0 l/m² 5,4 km/h (2 Bft) O-NO 67 ° 0 min 0 W/m² 16,7 °C 21,3 °C 8,0 km/h (2 Bft)
21.09.2023 20:25 24,1 °C 21,2 °C 59 % 75 % 998,2 hPa 0,0 l/m² 4,5 km/h (1 Bft) O-NO 73 ° 0 min 0 W/m² 16,6 °C 21,2 °C 8,0 km/h (2 Bft)
21.09.2023 20:26 24,1 °C 21,2 °C 59 % 76 % 998,2 hPa 0,0 l/m² 5,5 km/h (2 Bft) O-NO 59 ° 0 min 0 W/m² 16,8 °C 21,2 °C 11,3 km/h (2 Bft)
21.09.2023 20:27 24,1 °C 21,2 °C 59 % 76 % 998,2 hPa 0,0 l/m² 4,8 km/h (1 Bft) O 84 ° 0 min 0 W/m² 16,8 °C 21,2 °C 8,0 km/h (2 Bft)
21.09.2023 20:28 24,1 °C 21,2 °C 59 % 76 % 998,2 hPa 0,0 l/m² 5,4 km/h (2 Bft) O 80 ° 0 min 0 W/m² 16,8 °C 21,2 °C 8,0 km/h (2 Bft)
21.09.2023 20:29 24,1 °C 21,2 °C 59 % 76 % 998,2 hPa 0,0 l/m² 4,2 km/h (1 Bft) O 82 ° 0 min 0 W/m² 16,8 °C 21,2 °C 6,4 km/h (2 Bft)
21.09.2023 20:30 24,1 °C 21,2 °C 59 % 76 % 998,2 hPa 0,0 l/m² 4,7 km/h (1 Bft) O-NO 69 ° 0 min 0 W/m² 16,8 °C 21,2 °C 8,0 km/h (2 Bft)
21.09.2023 20:31 24,1 °C 21,2 °C 59 % 76 % 998,2 hPa 0,0 l/m² 4,2 km/h (1 Bft) O 80 ° 0 min 0 W/m² 16,8 °C 21,2 °C 6,4 km/h (2 Bft)
21.09.2023 20:32 24,1 °C 21,1 °C 59 % 76 % 998,2 hPa 0,0 l/m² 4,8 km/h (1 Bft) O-NO 61 ° 0 min 0 W/m² 16,7 °C 21,1 °C 6,4 km/h (2 Bft)
21.09.2023 20:33 24,1 °C 21,1 °C 59 % 76 % 998,2 hPa 0,0 l/m² 3,7 km/h (1 Bft) O-NO 78 ° 0 min 0 W/m² 16,7 °C 21,1 °C 6,4 km/h (2 Bft)
21.09.2023 20:34 24,1 °C 21,0 °C 59 % 76 % 998,1 hPa 0,0 l/m² 5,1 km/h (1 Bft) O-NO 76 ° 0 min 0 W/m² 16,6 °C 21,0 °C 8,0 km/h (2 Bft)
21.09.2023 20:35 24,1 °C 20,9 °C 59 % 77 % 998,2 hPa 0,0 l/m² 4,7 km/h (1 Bft) NO 52 ° 0 min 0 W/m² 16,7 °C 20,9 °C 6,4 km/h (2 Bft)
21.09.2023 20:36 24,1 °C 20,8 °C 59 % 77 % 998,2 hPa 0,0 l/m² 4,5 km/h (1 Bft) O 83 ° 0 min 0 W/m² 16,6 °C 20,8 °C 6,4 km/h (2 Bft)
21.09.2023 20:37 24,1 °C 20,8 °C 59 % 77 % 998,3 hPa 0,0 l/m² 4,8 km/h (1 Bft) O-NO 74 ° 0 min 0 W/m² 16,6 °C 20,8 °C 6,4 km/h (2 Bft)
21.09.2023 20:38 24,1 °C 20,7 °C 59 % 78 % 998,2 hPa 0,0 l/m² 4,6 km/h (1 Bft) O-NO 73 ° 0 min 0 W/m² 16,7 °C 20,7 °C 6,4 km/h (2 Bft)
21.09.2023 20:39 24,1 °C 20,6 °C 59 % 78 % 998,3 hPa 0,0 l/m² 3,3 km/h (1 Bft) O-NO 78 ° 0 min 0 W/m² 16,6 °C 20,6 °C 4,8 km/h (1 Bft)
21.09.2023 20:40 24,1 °C 20,5 °C 59 % 78 % 998,2 hPa 0,0 l/m² 4,1 km/h (1 Bft) O 79 ° 0 min 0 W/m² 16,5 °C 20,5 °C 6,4 km/h (2 Bft)
21.09.2023 20:41 24,1 °C 20,4 °C 59 % 78 % 998,1 hPa 0,0 l/m² 3,6 km/h (1 Bft) O-NO 78 ° 0 min 0 W/m² 16,4 °C 20,4 °C 4,8 km/h (1 Bft)
21.09.2023 20:42 24,1 °C 20,4 °C 59 % 79 % 998,2 hPa 0,0 l/m² 3,6 km/h (1 Bft) O-NO 61 ° 0 min 0 W/m² 16,6 °C 20,4 °C 6,4 km/h (2 Bft)
21.09.2023 20:43 24,1 °C 20,3 °C 59 % 79 % 998,2 hPa 0,0 l/m² 4,1 km/h (1 Bft) O 80 ° 0 min 0 W/m² 16,5 °C 20,3 °C 4,8 km/h (1 Bft)
21.09.2023 20:44 24,1 °C 20,4 °C 59 % 79 % 998,2 hPa 0,0 l/m² 4,5 km/h (1 Bft) O-NO 72 ° 0 min 0 W/m² 16,6 °C 20,4 °C 6,4 km/h (2 Bft)
21.09.2023 20:45 24,1 °C 20,4 °C 59 % 79 % 998,3 hPa 0,0 l/m² 4,8 km/h (1 Bft) O 79 ° 0 min 0 W/m² 16,6 °C 20,4 °C 8,0 km/h (2 Bft)
21.09.2023 20:46 24,1 °C 20,4 °C 59 % 79 % 998,2 hPa 0,0 l/m² 4,8 km/h (1 Bft) O-NO 77 ° 0 min 0 W/m² 16,6 °C 20,4 °C 6,4 km/h (2 Bft)
21.09.2023 20:47 24,1 °C 20,4 °C 59 % 79 % 998,1 hPa 0,0 l/m² 4,1 km/h (1 Bft) O-NO 77 ° 0 min 0 W/m² 16,6 °C 20,4 °C 6,4 km/h (2 Bft)
21.09.2023 20:48 24,1 °C 20,4 °C 59 % 79 % 998,1 hPa 0,0 l/m² 4,0 km/h (1 Bft) O-NO 74 ° 0 min 0 W/m² 16,6 °C 20,4 °C 6,4 km/h (2 Bft)
21.09.2023 20:49 24,1 °C 20,3 °C 59 % 79 % 998,1 hPa 0,0 l/m² 4,1 km/h (1 Bft) O-NO 68 ° 0 min 0 W/m² 16,5 °C 20,3 °C 6,4 km/h (2 Bft)
21.09.2023 20:50 24,1 °C 20,2 °C 59 % 79 % 998,2 hPa 0,0 l/m² 4,6 km/h (1 Bft) O-NO 73 ° 0 min 0 W/m² 16,4 °C 20,2 °C 6,4 km/h (2 Bft)
21.09.2023 20:51 24,1 °C 20,2 °C 59 % 79 % 998,1 hPa 0,0 l/m² 2,9 km/h (1 Bft) O 79 ° 0 min 0 W/m² 16,4 °C 20,2 °C 4,8 km/h (1 Bft)
21.09.2023 20:52 24,1 °C 20,1 °C 59 % 79 % 998,1 hPa 0,0 l/m² 4,5 km/h (1 Bft) O-NO 78 ° 0 min 0 W/m² 16,3 °C 20,1 °C 4,8 km/h (1 Bft)
21.09.2023 20:53 24,1 °C 20,1 °C 59 % 80 % 998,1 hPa 0,0 l/m² 4,6 km/h (1 Bft) O 79 ° 0 min 0 W/m² 16,5 °C 20,1 °C 4,8 km/h (1 Bft)
21.09.2023 20:54 24,1 °C 19,9 °C 59 % 80 % 998,1 hPa 0,0 l/m² 4,2 km/h (1 Bft) O-NO 76 ° 0 min 0 W/m² 16,3 °C 19,9 °C 8,0 km/h (2 Bft)
21.09.2023 20:55 24,1 °C 19,9 °C 59 % 80 % 998,1 hPa 0,0 l/m² 4,4 km/h (1 Bft) O-NO 78 ° 0 min 0 W/m² 16,3 °C 19,9 °C 6,4 km/h (2 Bft)
21.09.2023 20:56 24,1 °C 19,8 °C 59 % 80 % 998,1 hPa 0,0 l/m² 4,0 km/h (1 Bft) O 96 ° 0 min 0 W/m² 16,2 °C 19,8 °C 6,4 km/h (2 Bft)
21.09.2023 20:57 24,1 °C 19,8 °C 59 % 80 % 998,0 hPa 0,0 l/m² 4,7 km/h (1 Bft) O-NO 76 ° 0 min 0 W/m² 16,2 °C 19,8 °C 6,4 km/h (2 Bft)
21.09.2023 20:58 24,1 °C 19,7 °C 59 % 81 % 998,0 hPa 0,0 l/m² 4,5 km/h (1 Bft) O 83 ° 0 min 0 W/m² 16,3 °C 19,7 °C 8,0 km/h (2 Bft)
21.09.2023 20:59 24,1 °C 19,7 °C 59 % 81 % 997,9 hPa 0,0 l/m² 5,1 km/h (1 Bft) O 82 ° 0 min 0 W/m² 16,3 °C 19,7 °C 8,0 km/h (2 Bft)
21.09.2023 21:00 24,1 °C 19,7 °C 60 % 81 % 998,0 hPa 0,0 l/m² 5,4 km/h (2 Bft) O-NO 66 ° 0 min 0 W/m² 16,3 °C 19,7 °C 8,0 km/h (2 Bft)
21.09.2023 21:01 24,1 °C 19,7 °C 60 % 81 % 998,0 hPa 0,0 l/m² 5,6 km/h (2 Bft) O-NO 76 ° 0 min 0 W/m² 16,3 °C 19,7 °C 8,0 km/h (2 Bft)
21.09.2023 21:02 24,1 °C 19,7 °C 60 % 81 % 998,0 hPa 0,0 l/m² 6,4 km/h (2 Bft) O-NO 69 ° 0 min 0 W/m² 16,3 °C 19,7 °C 8,0 km/h (2 Bft)
21.09.2023 21:03 24,1 °C 19,6 °C 60 % 81 % 998,0 hPa 0,0 l/m² 6,2 km/h (2 Bft) O 92 ° 0 min 0 W/m² 16,2 °C 19,6 °C 8,0 km/h (2 Bft)
21.09.2023 21:04 24,1 °C 19,6 °C 60 % 81 % 998,0 hPa 0,0 l/m² 6,4 km/h (2 Bft) O-NO 74 ° 0 min 0 W/m² 16,2 °C 19,6 °C 8,0 km/h (2 Bft)
21.09.2023 21:05 24,1 °C 19,6 °C 60 % 81 % 997,9 hPa 0,0 l/m² 5,5 km/h (2 Bft) O 82 ° 0 min 0 W/m² 16,2 °C 19,6 °C 8,0 km/h (2 Bft)
21.09.2023 21:06 24,1 °C 19,5 °C 60 % 82 % 997,9 hPa 0,0 l/m² 5,5 km/h (2 Bft) O-NO 78 ° 0 min 0 W/m² 16,3 °C 19,5 °C 8,0 km/h (2 Bft)
21.09.2023 21:07 24,1 °C 19,5 °C 60 % 81 % 998,0 hPa 0,0 l/m² 5,8 km/h (2 Bft) O 81 ° 0 min 0 W/m² 16,1 °C 19,5 °C 8,0 km/h (2 Bft)
21.09.2023 21:08 24,1 °C 19,5 °C 60 % 81 % 998,0 hPa 0,0 l/m² 5,2 km/h (1 Bft) O-NO 76 ° 0 min 0 W/m² 16,1 °C 19,5 °C 6,4 km/h (2 Bft)
21.09.2023 21:09 24,1 °C 19,5 °C 60 % 82 % 998,0 hPa 0,0 l/m² 5,8 km/h (2 Bft) O 80 ° 0 min 0 W/m² 16,3 °C 19,5 °C 8,0 km/h (2 Bft)
21.09.2023 21:10 24,1 °C 19,4 °C 60 % 82 % 997,9 hPa 0,0 l/m² 4,7 km/h (1 Bft) O 80 ° 0 min 0 W/m² 16,2 °C 19,4 °C 6,4 km/h (2 Bft)
21.09.2023 21:11 24,1 °C 19,4 °C 60 % 82 % 998,0 hPa 0,0 l/m² 5,8 km/h (2 Bft) O 80 ° 0 min 0 W/m² 16,2 °C 19,4 °C 6,4 km/h (2 Bft)
21.09.2023 21:12 24,1 °C 19,4 °C 60 % 82 % 998,0 hPa 0,0 l/m² 6,4 km/h (2 Bft) O 80 ° 0 min 0 W/m² 16,2 °C 19,4 °C 8,0 km/h (2 Bft)
21.09.2023 21:13 24,1 °C 19,3 °C 60 % 82 % 998,0 hPa 0,0 l/m² 5,3 km/h (1 Bft) O-NO 71 ° 0 min 0 W/m² 16,1 °C 19,3 °C 6,4 km/h (2 Bft)
21.09.2023 21:14 24,1 °C 19,3 °C 60 % 82 % 998,0 hPa 0,0 l/m² 4,9 km/h (1 Bft) O-NO 69 ° 0 min 0 W/m² 16,1 °C 19,3 °C 6,4 km/h (2 Bft)
21.09.2023 21:15 24,1 °C 19,3 °C 60 % 82 % 998,0 hPa 0,0 l/m² 4,5 km/h (1 Bft) O-NO 61 ° 0 min 0 W/m² 16,1 °C 19,3 °C 6,4 km/h (2 Bft)
21.09.2023 21:16 24,1 °C 19,3 °C 60 % 82 % 997,9 hPa 0,0 l/m² 3,5 km/h (1 Bft) O-NO 78 ° 0 min 0 W/m² 16,1 °C 19,3 °C 6,4 km/h (2 Bft)
21.09.2023 21:17 24,1 °C 19,3 °C 60 % 82 % 998,0 hPa 0,0 l/m² 3,4 km/h (1 Bft) O-NO 78 ° 0 min 0 W/m² 16,1 °C 19,3 °C 4,8 km/h (1 Bft)
21.09.2023 21:18 24,1 °C 19,3 °C 60 % 82 % 998,0 hPa 0,0 l/m² 4,3 km/h (1 Bft) O 79 ° 0 min 0 W/m² 16,1 °C 19,3 °C 4,8 km/h (1 Bft)
21.09.2023 21:19 24,1 °C 19,3 °C 60 % 83 % 998,0 hPa 0,0 l/m² 5,2 km/h (1 Bft) O 80 ° 0 min 0 W/m² 16,3 °C 19,3 °C 6,4 km/h (2 Bft)
21.09.2023 21:20 24,1 °C 19,2 °C 60 % 83 % 997,9 hPa 0,0 l/m² 4,0 km/h (1 Bft) O-NO 78 ° 0 min 0 W/m² 16,2 °C 19,2 °C 6,4 km/h (2 Bft)
21.09.2023 21:21 24,1 °C 19,2 °C 60 % 83 % 997,9 hPa 0,0 l/m² 4,5 km/h (1 Bft) O-NO 74 ° 0 min 0 W/m² 16,2 °C 19,2 °C 6,4 km/h (2 Bft)
21.09.2023 21:22 24,1 °C 19,2 °C 60 % 83 % 997,9 hPa 0,0 l/m² 5,1 km/h (1 Bft) O 80 ° 0 min 0 W/m² 16,2 °C 19,2 °C 6,4 km/h (2 Bft)
21.09.2023 21:23 24,1 °C 19,2 °C 60 % 83 % 998,0 hPa 0,0 l/m² 4,0 km/h (1 Bft) NO 40 ° 0 min 0 W/m² 16,2 °C 19,2 °C 6,4 km/h (2 Bft)
21.09.2023 21:24 24,1 °C 19,2 °C 60 % 83 % 997,9 hPa 0,0 l/m² 5,4 km/h (2 Bft) O 82 ° 0 min 0 W/m² 16,2 °C 19,2 °C 6,4 km/h (2 Bft)
21.09.2023 21:25 24,1 °C 19,1 °C 60 % 83 % 997,8 hPa 0,0 l/m² 5,6 km/h (2 Bft) O-NO 77 ° 0 min 0 W/m² 16,1 °C 19,1 °C 6,4 km/h (2 Bft)
21.09.2023 21:26 24,1 °C 19,1 °C 60 % 83 % 997,8 hPa 0,0 l/m² 4,7 km/h (1 Bft) O 82 ° 0 min 0 W/m² 16,1 °C 19,1 °C 6,4 km/h (2 Bft)
21.09.2023 21:27 24,1 °C 19,1 °C 60 % 83 % 997,8 hPa 0,0 l/m² 5,1 km/h (1 Bft) O 84 ° 0 min 0 W/m² 16,1 °C 19,1 °C 6,4 km/h (2 Bft)
21.09.2023 21:28 24,1 °C 19,1 °C 60 % 83 % 997,8 hPa 0,0 l/m² 4,6 km/h (1 Bft) O 83 ° 0 min 0 W/m² 16,1 °C 19,1 °C 6,4 km/h (2 Bft)
21.09.2023 21:29 24,1 °C 19,0 °C 60 % 83 % 997,8 hPa 0,0 l/m² 5,6 km/h (2 Bft) O 86 ° 0 min 0 W/m² 16,0 °C 19,0 °C 6,4 km/h (2 Bft)
21.09.2023 21:30 24,1 °C 18,9 °C 60 % 84 % 997,8 hPa 0,0 l/m² 6,1 km/h (2 Bft) O 90 ° 0 min 0 W/m² 16,1 °C 18,9 °C 9,7 km/h (2 Bft)
21.09.2023 21:31 24,1 °C 18,9 °C 60 % 84 % 997,9 hPa 0,0 l/m² 4,8 km/h (1 Bft) O 96 ° 0 min 0 W/m² 16,1 °C 18,9 °C 6,4 km/h (2 Bft)
21.09.2023 21:32 24,1 °C 18,8 °C 60 % 84 % 997,8 hPa 0,0 l/m² 4,7 km/h (1 Bft) O-SO 103 ° 0 min 0 W/m² 16,0 °C 18,8 °C 4,8 km/h (1 Bft)
21.09.2023 21:33 24,1 °C 18,8 °C 60 % 84 % 997,8 hPa 0,0 l/m² 4,8 km/h (1 Bft) O-SO 103 ° 0 min 0 W/m² 16,0 °C 18,8 °C 6,4 km/h (2 Bft)
21.09.2023 21:34 24,1 °C 18,8 °C 60 % 84 % 997,8 hPa 0,0 l/m² 6,1 km/h (2 Bft) O 101 ° 0 min 0 W/m² 16,0 °C 18,8 °C 9,7 km/h (2 Bft)
21.09.2023 21:35 24,1 °C 18,8 °C 60 % 85 % 997,8 hPa 0,0 l/m² 5,3 km/h (1 Bft) O 96 ° 0 min 0 W/m² 16,2 °C 18,8 °C 9,7 km/h (2 Bft)
21.09.2023 21:36 24,1 °C 18,8 °C 60 % 85 % 997,8 hPa 0,0 l/m² 6,7 km/h (2 Bft) O 89 ° 0 min 0 W/m² 16,2 °C 18,7 °C 9,7 km/h (2 Bft)
21.09.2023 21:37 24,1 °C 18,8 °C 60 % 85 % 997,8 hPa 0,0 l/m² 8,1 km/h (2 Bft) O 92 ° 0 min 0 W/m² 16,2 °C 18,0 °C 11,3 km/h (2 Bft)
21.09.2023 21:38 24,1 °C 18,8 °C 60 % 85 % 997,7 hPa 0,0 l/m² 8,3 km/h (2 Bft) O 91 ° 0 min 0 W/m² 16,2 °C 18,0 °C 11,3 km/h (2 Bft)
21.09.2023 21:39 24,1 °C 18,8 °C 60 % 85 % 997,7 hPa 0,0 l/m² 7,9 km/h (2 Bft) O 90 ° 0 min 0 W/m² 16,2 °C 18,1 °C 11,3 km/h (2 Bft)
21.09.2023 21:40 24,1 °C 18,9 °C 60 % 85 % 997,8 hPa 0,0 l/m² 10,3 km/h (2 Bft) O 91 ° 0 min 0 W/m² 16,3 °C 17,3 °C 12,9 km/h (3 Bft)
21.09.2023 21:41 24,1 °C 18,9 °C 60 % 84 % 997,7 hPa 0,0 l/m² 10,2 km/h (2 Bft) O 100 ° 0 min 0 W/m² 16,1 °C 17,4 °C 14,5 km/h (3 Bft)
21.09.2023 21:42 24,1 °C 18,9 °C 60 % 85 % 997,7 hPa 0,0 l/m² 8,9 km/h (2 Bft) O 89 ° 0 min 0 W/m² 16,3 °C 17,8 °C 11,3 km/h (2 Bft)
21.09.2023 21:43 24,1 °C 19,1 °C 60 % 84 % 997,7 hPa 0,0 l/m² 8,0 km/h (2 Bft) O 97 ° 0 min 0 W/m² 16,3 °C 18,4 °C 11,3 km/h (2 Bft)
21.09.2023 21:44 24,1 °C 19,1 °C 60 % 84 % 997,7 hPa 0,0 l/m² 9,6 km/h (2 Bft) O 100 ° 0 min 0 W/m² 16,3 °C 17,8 °C 14,5 km/h (3 Bft)
21.09.2023 21:46 24,1 °C 19,2 °C 60 % 84 % 997,7 hPa 0,0 l/m² 6,5 km/h (2 Bft) O-SO 103 ° 0 min 0 W/m² 16,4 °C 19,2 °C 9,7 km/h (2 Bft)
21.09.2023 21:47 24,1 °C 19,3 °C 60 % 84 % 997,7 hPa 0,0 l/m² 7,7 km/h (2 Bft) O 87 ° 0 min 0 W/m² 16,5 °C 18,7 °C 9,7 km/h (2 Bft)
21.09.2023 21:48 24,1 °C 19,3 °C 60 % 83 % 997,7 hPa 0,0 l/m² 8,0 km/h (2 Bft) O 88 ° 0 min 0 W/m² 16,3 °C 18,6 °C 12,9 km/h (3 Bft)
21.09.2023 21:49 24,1 °C 19,3 °C 60 % 83 % 997,7 hPa 0,0 l/m² 8,4 km/h (2 Bft) O 98 ° 0 min 0 W/m² 16,3 °C 18,5 °C 11,3 km/h (2 Bft)
21.09.2023 21:50 24,1 °C 19,3 °C 60 % 83 % 997,7 hPa 0,0 l/m² 8,0 km/h (2 Bft) O 96 ° 0 min 0 W/m² 16,3 °C 18,6 °C 11,3 km/h (2 Bft)
21.09.2023 21:51 24,1 °C 19,4 °C 60 % 83 % 997,8 hPa 0,0 l/m² 6,6 km/h (2 Bft) O 86 ° 0 min 0 W/m² 16,4 °C 19,3 °C 9,7 km/h (2 Bft)
21.09.2023 21:52 24,1 °C 19,4 °C 60 % 83 % 997,7 hPa 0,0 l/m² 6,1 km/h (2 Bft) O-SO 104 ° 0 min 0 W/m² 16,4 °C 19,4 °C 9,7 km/h (2 Bft)
21.09.2023 21:53 24,1 °C 19,5 °C 60 % 82 % 997,7 hPa 0,0 l/m² 5,4 km/h (2 Bft) O-SO 107 ° 0 min 0 W/m² 16,3 °C 19,5 °C 9,7 km/h (2 Bft)
21.09.2023 21:54 24,1 °C 19,5 °C 60 % 82 % 997,7 hPa 0,0 l/m² 5,1 km/h (1 Bft) O-SO 111 ° 0 min 0 W/m² 16,3 °C 19,5 °C 6,4 km/h (2 Bft)
21.09.2023 21:55 24,1 °C 19,6 °C 60 % 82 % 997,7 hPa 0,0 l/m² 2,3 km/h (1 Bft) O-SO 113 ° 0 min 0 W/m² 16,4 °C 19,6 °C 4,8 km/h (1 Bft)
21.09.2023 21:56 24,1 °C 19,6 °C 60 % 82 % 997,7 hPa 0,0 l/m² 3,0 km/h (1 Bft) O-SO 112 ° 0 min 0 W/m² 16,4 °C 19,6 °C 3,2 km/h (1 Bft)
21.09.2023 21:57 24,1 °C 19,6 °C 60 % 82 % 997,7 hPa 0,0 l/m² 1,8 km/h (1 Bft) O-SO 112 ° 0 min 0 W/m² 16,4 °C 19,6 °C 4,8 km/h (1 Bft)
21.09.2023 21:58 24,1 °C 19,6 °C 60 % 82 % 997,7 hPa 0,0 l/m² 0,2 km/h (0 Bft) O-SO 112 ° 0 min 0 W/m² 16,4 °C 19,6 °C 1,6 km/h (1 Bft)
21.09.2023 21:59 24,1 °C 19,6 °C 60 % 82 % 997,7 hPa 0,0 l/m² 0,3 km/h (0 Bft) O-SO 112 ° 0 min 0 W/m² 16,4 °C 19,6 °C 1,6 km/h (1 Bft)
21.09.2023 22:00 24,1 °C 19,5 °C 60 % 82 % 997,7 hPa 0,0 l/m² 0,0 km/h (0 Bft) O-SO 112 ° 0 min 0 W/m² 16,3 °C 19,5 °C 0,0 km/h (0 Bft)
21.09.2023 22:01 24,1 °C 19,4 °C 60 % 82 % 997,8 hPa 0,0 l/m² 0,1 km/h (0 Bft) O-SO 112 ° 0 min 0 W/m² 16,2 °C 19,4 °C 1,6 km/h (1 Bft)
21.09.2023 22:02 24,1 °C 19,4 °C 60 % 82 % 997,7 hPa 0,0 l/m² 0,1 km/h (0 Bft) O-SO 112 ° 0 min 0 W/m² 16,2 °C 19,4 °C 1,6 km/h (1 Bft)
21.09.2023 22:03 24,1 °C 19,4 °C 60 % 82 % 997,8 hPa 0,0 l/m² 0,0 km/h (0 Bft) O-SO 112 ° 0 min 0 W/m² 16,2 °C 19,4 °C 0,0 km/h (0 Bft)
21.09.2023 22:04 24,1 °C 19,4 °C 60 % 82 % 997,8 hPa 0,0 l/m² 0,0 km/h (0 Bft) O-SO 112 ° 0 min 0 W/m² 16,2 °C 19,4 °C 0,0 km/h (0 Bft)
21.09.2023 22:05 24,1 °C 19,3 °C 60 % 82 % 997,7 hPa 0,0 l/m² 0,0 km/h (0 Bft) O-SO 112 ° 0 min 0 W/m² 16,1 °C 19,3 °C 0,0 km/h (0 Bft)
21.09.2023 22:06 24,1 °C 19,3 °C 60 % 82 % 997,6 hPa 0,0 l/m² 0,0 km/h (0 Bft) O-SO 112 ° 0 min 0 W/m² 16,1 °C 19,3 °C 0,0 km/h (0 Bft)
21.09.2023 22:07 24,1 °C 19,3 °C 60 % 82 % 997,7 hPa 0,0 l/m² 1,6 km/h (1 Bft) O 97 ° 0 min 0 W/m² 16,1 °C 19,3 °C 3,2 km/h (1 Bft)
21.09.2023 22:08 24,1 °C 19,3 °C 60 % 82 % 997,6 hPa 0,0 l/m² 3,1 km/h (1 Bft) O 96 ° 0 min 0 W/m² 16,1 °C 19,3 °C 3,2 km/h (1 Bft)
21.09.2023 22:09 24,1 °C 19,3 °C 60 % 82 % 997,6 hPa 0,0 l/m² 4,3 km/h (1 Bft) O 96 ° 0 min 0 W/m² 16,1 °C 19,3 °C 4,8 km/h (1 Bft)
21.09.2023 22:10 24,1 °C 19,3 °C 60 % 82 % 997,6 hPa 0,0 l/m² 4,2 km/h (1 Bft) O-SO 106 ° 0 min 0 W/m² 16,1 °C 19,3 °C 4,8 km/h (1 Bft)
21.09.2023 22:11 24,1 °C 19,3 °C 60 % 82 % 997,6 hPa 0,0 l/m² 5,0 km/h (1 Bft) O 94 ° 0 min 0 W/m² 16,1 °C 19,3 °C 6,4 km/h (2 Bft)
21.09.2023 22:12 24,1 °C 19,3 °C 60 % 81 % 997,6 hPa 0,0 l/m² 4,3 km/h (1 Bft) O 88 ° 0 min 0 W/m² 16,0 °C 19,3 °C 6,4 km/h (2 Bft)
21.09.2023 22:13 24,1 °C 19,3 °C 60 % 81 % 997,5 hPa 0,0 l/m² 5,1 km/h (1 Bft) O 97 ° 0 min 0 W/m² 16,0 °C 19,3 °C 6,4 km/h (2 Bft)
21.09.2023 22:14 24,1 °C 19,4 °C 60 % 81 % 997,5 hPa 0,0 l/m² 5,1 km/h (1 Bft) O 96 ° 0 min 0 W/m² 16,1 °C 19,4 °C 9,7 km/h (2 Bft)
21.09.2023 22:15 24,1 °C 19,4 °C 60 % 81 % 997,5 hPa 0,0 l/m² 5,1 km/h (1 Bft) O 94 ° 0 min 0 W/m² 16,1 °C 19,4 °C 6,4 km/h (2 Bft)
21.09.2023 22:16 24,1 °C 19,4 °C 60 % 81 % 997,5 hPa 0,0 l/m² 5,2 km/h (1 Bft) O 90 ° 0 min 0 W/m² 16,1 °C 19,4 °C 6,4 km/h (2 Bft)
21.09.2023 22:17 24,1 °C 19,3 °C 60 % 81 % 997,5 hPa 0,0 l/m² 4,5 km/h (1 Bft) O 94 ° 0 min 0 W/m² 16,0 °C 19,3 °C 6,4 km/h (2 Bft)
21.09.2023 22:18 24,1 °C 19,3 °C 60 % 81 % 997,6 hPa 0,0 l/m² 5,1 km/h (1 Bft) O 97 ° 0 min 0 W/m² 16,0 °C 19,3 °C 6,4 km/h (2 Bft)
21.09.2023 22:19 24,1 °C 19,3 °C 60 % 81 % 997,5 hPa 0,0 l/m² 5,0 km/h (1 Bft) O 86 ° 0 min 0 W/m² 16,0 °C 19,3 °C 6,4 km/h (2 Bft)
21.09.2023 22:20 24,1 °C 19,3 °C 60 % 81 % 997,5 hPa 0,0 l/m² 5,4 km/h (2 Bft) O 98 ° 0 min 0 W/m² 16,0 °C 19,3 °C 6,4 km/h (2 Bft)
21.09.2023 22:21 24,1 °C 19,3 °C 60 % 81 % 997,5 hPa 0,0 l/m² 5,6 km/h (2 Bft) O 91 ° 0 min 0 W/m² 16,0 °C 19,3 °C 6,4 km/h (2 Bft)
21.09.2023 22:22 24,1 °C 19,3 °C 60 % 81 % 997,4 hPa 0,0 l/m² 6,6 km/h (2 Bft) O 87 ° 0 min 0 W/m² 16,0 °C 19,2 °C 9,7 km/h (2 Bft)
21.09.2023 22:23 24,1 °C 19,4 °C 60 % 81 % 997,3 hPa 0,0 l/m² 6,0 km/h (2 Bft) O 92 ° 0 min 0 W/m² 16,1 °C 19,4 °C 6,4 km/h (2 Bft)
21.09.2023 22:24 24,1 °C 19,4 °C 60 % 81 % 997,3 hPa 0,0 l/m² 6,1 km/h (2 Bft) O 90 ° 0 min 0 W/m² 16,1 °C 19,4 °C 9,7 km/h (2 Bft)
21.09.2023 22:25 24,1 °C 19,4 °C 60 % 81 % 997,3 hPa 0,0 l/m² 7,6 km/h (2 Bft) O 96 ° 0 min 0 W/m² 16,1 °C 18,9 °C 11,3 km/h (2 Bft)
21.09.2023 22:26 24,1 °C 19,4 °C 60 % 81 % 997,3 hPa 0,0 l/m² 7,6 km/h (2 Bft) O 90 ° 0 min 0 W/m² 16,1 °C 18,9 °C 9,7 km/h (2 Bft)
21.09.2023 22:27 24,1 °C 19,5 °C 60 % 81 % 997,3 hPa 0,0 l/m² 9,0 km/h (2 Bft) O 94 ° 0 min 0 W/m² 16,1 °C 18,4 °C 11,3 km/h (2 Bft)
21.09.2023 22:28 24,1 °C 19,5 °C 60 % 80 % 997,3 hPa 0,0 l/m² 8,5 km/h (2 Bft) O 96 ° 0 min 0 W/m² 16,0 °C 18,6 °C 11,3 km/h (2 Bft)
21.09.2023 22:29 24,1 °C 19,6 °C 60 % 80 % 997,3 hPa 0,0 l/m² 6,5 km/h (2 Bft) O 98 ° 0 min 0 W/m² 16,1 °C 19,6 °C 9,7 km/h (2 Bft)
21.09.2023 22:30 24,1 °C 19,6 °C 60 % 80 % 997,4 hPa 0,0 l/m² 7,1 km/h (2 Bft) O 95 ° 0 min 0 W/m² 16,1 °C 19,3 °C 9,7 km/h (2 Bft)
21.09.2023 22:31 24,1 °C 19,6 °C 60 % 80 % 997,3 hPa 0,0 l/m² 7,6 km/h (2 Bft) O 86 ° 0 min 0 W/m² 16,1 °C 19,1 °C 9,7 km/h (2 Bft)
21.09.2023 22:32 24,1 °C 19,6 °C 60 % 80 % 997,3 hPa 0,0 l/m² 6,7 km/h (2 Bft) O 98 ° 0 min 0 W/m² 16,1 °C 19,5 °C 9,7 km/h (2 Bft)
21.09.2023 22:33 24,1 °C 19,7 °C 60 % 80 % 997,3 hPa 0,0 l/m² 6,4 km/h (2 Bft) O 94 ° 0 min 0 W/m² 16,1 °C 19,7 °C 6,4 km/h (2 Bft)
21.09.2023 22:34 24,1 °C 19,7 °C 60 % 80 % 997,3 hPa 0,0 l/m² 5,4 km/h (2 Bft) O 96 ° 0 min 0 W/m² 16,1 °C 19,7 °C 6,4 km/h (2 Bft)
21.09.2023 22:35 24,1 °C 19,7 °C 60 % 80 % 997,3 hPa 0,0 l/m² 6,4 km/h (2 Bft) O 88 ° 0 min 0 W/m² 16,1 °C 19,7 °C 9,7 km/h (2 Bft)
21.09.2023 22:36 24,1 °C 19,7 °C 60 % 80 % 997,3 hPa 0,0 l/m² 5,0 km/h (1 Bft) O 86 ° 0 min 0 W/m² 16,1 °C 19,7 °C 6,4 km/h (2 Bft)
21.09.2023 22:37 24,1 °C 19,7 °C 60 % 80 % 997,2 hPa 0,0 l/m² 6,8 km/h (2 Bft) O 80 ° 0 min 0 W/m² 16,1 °C 19,5 °C 8,0 km/h (2 Bft)
21.09.2023 22:38 24,1 °C 19,7 °C 60 % 79 % 997,2 hPa 0,0 l/m² 10,4 km/h (2 Bft) O 96 ° 0 min 0 W/m² 16,0 °C 18,2 °C 14,5 km/h (3 Bft)
21.09.2023 22:39 24,1 °C 19,7 °C 60 % 79 % 997,2 hPa 0,0 l/m² 8,0 km/h (2 Bft) O 88 ° 0 min 0 W/m² 16,0 °C 19,0 °C 9,7 km/h (2 Bft)
21.09.2023 22:40 24,1 °C 19,8 °C 60 % 79 % 997,1 hPa 0,0 l/m² 6,0 km/h (2 Bft) O-NO 78 ° 0 min 0 W/m² 16,0 °C 19,8 °C 9,7 km/h (2 Bft)
21.09.2023 22:41 24,1 °C 19,8 °C 60 % 79 % 997,3 hPa 0,0 l/m² 8,3 km/h (2 Bft) O 83 ° 0 min 0 W/m² 16,0 °C 19,0 °C 12,9 km/h (3 Bft)
21.09.2023 22:42 24,1 °C 19,9 °C 60 % 79 % 997,2 hPa 0,0 l/m² 7,9 km/h (2 Bft) O 98 ° 0 min 0 W/m² 16,1 °C 19,3 °C 11,3 km/h (2 Bft)
21.09.2023 22:43 24,1 °C 19,9 °C 60 % 79 % 997,3 hPa 0,0 l/m² 7,7 km/h (2 Bft) O 89 ° 0 min 0 W/m² 16,1 °C 19,4 °C 11,3 km/h (2 Bft)
21.09.2023 22:44 24,1 °C 19,9 °C 60 % 78 % 997,3 hPa 0,0 l/m² 7,2 km/h (2 Bft) O 80 ° 0 min 0 W/m² 15,9 °C 19,6 °C 9,7 km/h (2 Bft)
21.09.2023 22:45 24,1 °C 19,9 °C 60 % 78 % 997,3 hPa 0,0 l/m² 6,7 km/h (2 Bft) O 92 ° 0 min 0 W/m² 15,9 °C 19,8 °C 9,7 km/h (2 Bft)
21.09.2023 22:46 24,1 °C 20,1 °C 60 % 78 % 997,3 hPa 0,0 l/m² 6,3 km/h (2 Bft) O 94 ° 0 min 0 W/m² 16,1 °C 20,1 °C 8,0 km/h (2 Bft)
21.09.2023 22:47 24,1 °C 20,1 °C 60 % 78 % 997,3 hPa 0,0 l/m² 6,8 km/h (2 Bft) O-SO 103 ° 0 min 0 W/m² 16,1 °C 19,9 °C 9,7 km/h (2 Bft)
21.09.2023 22:48 24,1 °C 20,1 °C 60 % 78 % 997,3 hPa 0,0 l/m² 5,9 km/h (2 Bft) O-SO 103 ° 0 min 0 W/m² 16,1 °C 20,1 °C 9,7 km/h (2 Bft)
21.09.2023 22:49 24,1 °C 20,1 °C 60 % 78 % 997,3 hPa 0,0 l/m² 4,5 km/h (1 Bft) O-SO 107 ° 0 min 0 W/m² 16,1 °C 20,1 °C 6,4 km/h (2 Bft)
21.09.2023 22:50 24,1 °C 20,2 °C 60 % 78 % 997,3 hPa 0,0 l/m² 3,9 km/h (1 Bft) O-SO 110 ° 0 min 0 W/m² 16,2 °C 20,2 °C 4,8 km/h (1 Bft)
21.09.2023 22:51 24,1 °C 20,1 °C 60 % 78 % 997,3 hPa 0,0 l/m² 4,0 km/h (1 Bft) O-SO 113 ° 0 min 0 W/m² 16,1 °C 20,1 °C 4,8 km/h (1 Bft)
21.09.2023 22:52 24,1 °C 20,2 °C 60 % 78 % 997,3 hPa 0,0 l/m² 3,6 km/h (1 Bft) O-SO 114 ° 0 min 0 W/m² 16,2 °C 20,2 °C 4,8 km/h (1 Bft)
21.09.2023 22:53 24,1 °C 20,1 °C 60 % 77 % 997,3 hPa 0,0 l/m² 1,3 km/h (1 Bft) O-SO 114 ° 0 min 0 W/m² 15,9 °C 20,1 °C 3,2 km/h (1 Bft)
21.09.2023 22:54 24,1 °C 20,1 °C 60 % 77 % 997,3 hPa 0,0 l/m² 1,0 km/h (0 Bft) O-SO 114 ° 0 min 0 W/m² 15,9 °C 20,1 °C 3,2 km/h (1 Bft)
21.09.2023 22:55 24,1 °C 20,1 °C 60 % 77 % 997,3 hPa 0,0 l/m² 0,1 km/h (0 Bft) O-SO 114 ° 0 min 0 W/m² 15,9 °C 20,1 °C 1,6 km/h (1 Bft)
21.09.2023 22:56 24,1 °C 20,1 °C 60 % 77 % 997,3 hPa 0,0 l/m² 0,0 km/h (0 Bft) O-SO 114 ° 0 min 0 W/m² 15,9 °C 20,1 °C 0,0 km/h (0 Bft)
21.09.2023 22:57 24,1 °C 20,1 °C 60 % 77 % 997,3 hPa 0,0 l/m² 0,3 km/h (0 Bft) O-SO 115 ° 0 min 0 W/m² 15,9 °C 20,1 °C 1,6 km/h (1 Bft)
21.09.2023 22:58 24,1 °C 20,1 °C 60 % 77 % 997,3 hPa 0,0 l/m² 0,0 km/h (0 Bft) O-SO 115 ° 0 min 0 W/m² 15,9 °C 20,1 °C 0,0 km/h (0 Bft)
21.09.2023 22:59 24,1 °C 20,0 °C 60 % 77 % 997,2 hPa 0,0 l/m² 1,3 km/h (1 Bft) SO 126 ° 0 min 0 W/m² 15,8 °C 20,0 °C 3,2 km/h (1 Bft)
21.09.2023 23:00 24,1 °C 20,0 °C 60 % 77 % 997,3 hPa 0,0 l/m² 0,5 km/h (0 Bft) SO 126 ° 0 min 0 W/m² 15,8 °C 20,0 °C 1,6 km/h (1 Bft)
21.09.2023 23:01 24,1 °C 20,1 °C 60 % 77 % 997,2 hPa 0,0 l/m² 0,1 km/h (0 Bft) SO 126 ° 0 min 0 W/m² 15,9 °C 20,1 °C 1,6 km/h (1 Bft)
21.09.2023 23:02 24,1 °C 20,1 °C 60 % 77 % 997,2 hPa 0,0 l/m² 1,5 km/h (1 Bft) SO 130 ° 0 min 0 W/m² 15,9 °C 20,1 °C 3,2 km/h (1 Bft)
21.09.2023 23:03 24,1 °C 20,1 °C 60 % 77 % 997,2 hPa 0,0 l/m² 2,5 km/h (1 Bft) SO 128 ° 0 min 0 W/m² 15,9 °C 20,1 °C 4,8 km/h (1 Bft)
21.09.2023 23:04 24,1 °C 20,0 °C 60 % 77 % 997,2 hPa 0,0 l/m² 2,6 km/h (1 Bft) O-SO 110 ° 0 min 0 W/m² 15,8 °C 20,0 °C 4,8 km/h (1 Bft)
21.09.2023 23:05 24,1 °C 20,0 °C 60 % 77 % 997,1 hPa 0,0 l/m² 2,8 km/h (1 Bft) O-SO 111 ° 0 min 0 W/m² 15,8 °C 20,0 °C 4,8 km/h (1 Bft)
21.09.2023 23:06 24,1 °C 20,0 °C 60 % 77 % 997,1 hPa 0,0 l/m² 3,4 km/h (1 Bft) O 90 ° 0 min 0 W/m² 15,8 °C 20,0 °C 4,8 km/h (1 Bft)
21.09.2023 23:07 24,1 °C 19,9 °C 60 % 77 % 997,1 hPa 0,0 l/m² 4,6 km/h (1 Bft) O 96 ° 0 min 0 W/m² 15,7 °C 19,9 °C 6,4 km/h (2 Bft)
21.09.2023 23:08 24,1 °C 19,9 °C 60 % 77 % 996,9 hPa 0,0 l/m² 4,3 km/h (1 Bft) O 97 ° 0 min 0 W/m² 15,7 °C 19,9 °C 6,4 km/h (2 Bft)
21.09.2023 23:09 24,1 °C 19,9 °C 60 % 77 % 997,0 hPa 0,0 l/m² 4,4 km/h (1 Bft) O 84 ° 0 min 0 W/m² 15,7 °C 19,9 °C 4,8 km/h (1 Bft)
21.09.2023 23:10 24,1 °C 19,9 °C 60 % 77 % 997,0 hPa 0,0 l/m² 4,7 km/h (1 Bft) O 86 ° 0 min 0 W/m² 15,7 °C 19,9 °C 6,4 km/h (2 Bft)
21.09.2023 23:11 24,1 °C 19,9 °C 60 % 77 % 997,1 hPa 0,0 l/m² 4,5 km/h (1 Bft) O 95 ° 0 min 0 W/m² 15,7 °C 19,9 °C 6,4 km/h (2 Bft)
21.09.2023 23:12 24,1 °C 19,9 °C 60 % 77 % 997,0 hPa 0,0 l/m² 3,7 km/h (1 Bft) O 92 ° 0 min 0 W/m² 15,7 °C 19,9 °C 4,8 km/h (1 Bft)
21.09.2023 23:13 24,1 °C 19,9 °C 60 % 77 % 997,0 hPa 0,0 l/m² 3,3 km/h (1 Bft) O 92 ° 0 min 0 W/m² 15,7 °C 19,9 °C 4,8 km/h (1 Bft)
21.09.2023 23:14 24,1 °C 19,9 °C 60 % 78 % 997,1 hPa 0,0 l/m² 4,2 km/h (1 Bft) O 97 ° 0 min 0 W/m² 15,9 °C 19,9 °C 4,8 km/h (1 Bft)
21.09.2023 23:15 24,1 °C 19,8 °C 60 % 78 % 997,0 hPa 0,0 l/m² 4,5 km/h (1 Bft) O-SO 109 ° 0 min 0 W/m² 15,8 °C 19,8 °C 6,4 km/h (2 Bft)
21.09.2023 23:16 24,1 °C 19,8 °C 60 % 78 % 997,0 hPa 0,0 l/m² 4,8 km/h (1 Bft) O-SO 112 ° 0 min 0 W/m² 15,8 °C 19,8 °C 4,8 km/h (1 Bft)
21.09.2023 23:17 24,1 °C 19,8 °C 60 % 78 % 997,1 hPa 0,0 l/m² 3,2 km/h (1 Bft) O-SO 112 ° 0 min 0 W/m² 15,8 °C 19,8 °C 4,8 km/h (1 Bft)
21.09.2023 23:23 24,1 °C 19,7 °C 60 % 78 % 997,1 hPa 0,0 l/m² 1,4 km/h (1 Bft) O-SO 108 ° 0 min 0 W/m² 15,8 °C 19,7 °C 1,6 km/h (1 Bft)
21.09.2023 23:25 24,0 °C 19,6 °C 60 % 78 % 997,1 hPa 0,0 l/m² 1,6 km/h (1 Bft) O-SO 108 ° 0 min 0 W/m² 15,7 °C 19,6 °C 3,2 km/h (1 Bft)
21.09.2023 23:27 24,1 °C 19,6 °C 60 % 79 % 997,1 hPa 0,0 l/m² 3,5 km/h (1 Bft) O 97 ° 0 min 0 W/m² 15,9 °C 19,6 °C 4,8 km/h (1 Bft)
21.09.2023 23:29 24,1 °C 19,6 °C 60 % 79 % 997,1 hPa 0,0 l/m² 3,3 km/h (1 Bft) O 98 ° 0 min 0 W/m² 15,9 °C 19,6 °C 4,8 km/h (1 Bft)
21.09.2023 23:30 24,0 °C 19,6 °C 60 % 79 % 997,0 hPa 0,0 l/m² 3,2 km/h (1 Bft) O-SO 115 ° 0 min 0 W/m² 15,9 °C 19,6 °C 4,8 km/h (1 Bft)
21.09.2023 23:31 24,0 °C 19,6 °C 60 % 79 % 997,0 hPa 0,0 l/m² 3,8 km/h (1 Bft) O 100 ° 0 min 0 W/m² 15,9 °C 19,6 °C 4,8 km/h (1 Bft)
21.09.2023 23:32 24,0 °C 19,6 °C 60 % 78 % 997,0 hPa 0,0 l/m² 4,5 km/h (1 Bft) O 89 ° 0 min 0 W/m² 15,7 °C 19,6 °C 4,8 km/h (1 Bft)
21.09.2023 23:33 24,0 °C 19,7 °C 60 % 78 % 997,0 hPa 0,0 l/m² 4,5 km/h (1 Bft) O 83 ° 0 min 0 W/m² 15,8 °C 19,7 °C 6,4 km/h (2 Bft)
21.09.2023 23:34 24,0 °C 19,7 °C 60 % 78 % 996,9 hPa 0,0 l/m² 5,1 km/h (1 Bft) O 92 ° 0 min 0 W/m² 15,8 °C 19,7 °C 6,4 km/h (2 Bft)
21.09.2023 23:36 24,0 °C 19,7 °C 60 % 78 % 997,0 hPa 0,0 l/m² 4,2 km/h (1 Bft) O 98 ° 0 min 0 W/m² 15,8 °C 19,7 °C 6,4 km/h (2 Bft)
21.09.2023 23:38 24,0 °C 19,7 °C 60 % 78 % 996,9 hPa 0,0 l/m² 3,7 km/h (1 Bft) O 100 ° 0 min 0 W/m² 15,8 °C 19,7 °C 4,8 km/h (1 Bft)
21.09.2023 23:40 24,0 °C 19,7 °C 60 % 78 % 996,9 hPa 0,0 l/m² 2,4 km/h (1 Bft) O 101 ° 0 min 0 W/m² 15,8 °C 19,7 °C 3,2 km/h (1 Bft)
21.09.2023 23:41 24,0 °C 19,7 °C 60 % 79 % 997,0 hPa 0,0 l/m² 1,7 km/h (1 Bft) O 101 ° 0 min 0 W/m² 16,0 °C 19,7 °C 3,2 km/h (1 Bft)
21.09.2023 23:42 24,0 °C 19,6 °C 60 % 79 % 997,0 hPa 0,0 l/m² 2,0 km/h (1 Bft) O 100 ° 0 min 0 W/m² 15,9 °C 19,6 °C 3,2 km/h (1 Bft)
21.09.2023 23:44 24,0 °C 19,6 °C 60 % 79 % 996,9 hPa 0,0 l/m² 2,5 km/h (1 Bft) O 101 ° 0 min 0 W/m² 15,9 °C 19,6 °C 4,8 km/h (1 Bft)
21.09.2023 23:45 24,0 °C 19,6 °C 60 % 80 % 997,0 hPa 0,0 l/m² 1,1 km/h (1 Bft) O 101 ° 0 min 0 W/m² 16,1 °C 19,6 °C 3,2 km/h (1 Bft)
21.09.2023 23:47 24,0 °C 19,4 °C 60 % 80 % 997,0 hPa 0,0 l/m² 2,2 km/h (1 Bft) O 101 ° 0 min 0 W/m² 15,9 °C 19,4 °C 3,2 km/h (1 Bft)
21.09.2023 23:49 24,0 °C 19,4 °C 60 % 79 % 997,1 hPa 0,0 l/m² 2,1 km/h (1 Bft) O-SO 112 ° 0 min 0 W/m² 15,7 °C 19,4 °C 3,2 km/h (1 Bft)
21.09.2023 23:50 24,0 °C 19,4 °C 60 % 80 % 997,1 hPa 0,0 l/m² 1,7 km/h (1 Bft) O-SO 112 ° 0 min 0 W/m² 15,9 °C 19,4 °C 3,2 km/h (1 Bft)
21.09.2023 23:51 24,0 °C 19,3 °C 60 % 80 % 997,2 hPa 0,0 l/m² 1,0 km/h (0 Bft) O-SO 112 ° 0 min 0 W/m² 15,8 °C 19,3 °C 1,6 km/h (1 Bft)
21.09.2023 23:52 24,0 °C 19,3 °C 60 % 80 % 997,2 hPa 0,0 l/m² 0,4 km/h (0 Bft) O-SO 112 ° 0 min 0 W/m² 15,8 °C 19,3 °C 1,6 km/h (1 Bft)
21.09.2023 23:54 24,0 °C 19,3 °C 60 % 80 % 997,2 hPa 0,0 l/m² 3,0 km/h (1 Bft) O-SO 116 ° 0 min 0 W/m² 15,8 °C 19,3 °C 4,8 km/h (1 Bft)
21.09.2023 23:55 24,0 °C 19,4 °C 60 % 80 % 997,1 hPa 0,0 l/m² 2,3 km/h (1 Bft) SO 125 ° 0 min 0 W/m² 15,9 °C 19,4 °C 4,8 km/h (1 Bft)
21.09.2023 23:57 24,0 °C 19,4 °C 60 % 80 % 997,2 hPa 0,0 l/m² 3,0 km/h (1 Bft) O-SO 114 ° 0 min 0 W/m² 15,9 °C 19,4 °C 4,8 km/h (1 Bft)
21.09.2023 23:59 24,0 °C 19,4 °C 60 % 80 % 997,1 hPa 0,0 l/m² 3,8 km/h (1 Bft) O-SO 113 ° 0 min 0 W/m² 15,9 °C 19,4 °C 6,4 km/h (2 Bft)
_ Min-Zeit 08:59 07:03 18:42 15:58 23:44 - 22:58 - - - - 07:03 07:03 22:58
Minimum _ 23,2 °C 11,4 °C 57 % 45 % 996,9 hPa - 0,0 km/h (0 Bft) - - - - 10,5 °C 11,4 °C 0,0 km/h (0 Bft)
_ Max-Zeit 13:45 15:58 06:40 08:01 00:43 23:59 17:16 - - 15:45 13:16 13:36 15:58 17:16
Maximum _ 24,9 °C 28,2 °C 61 % 95 % 1007,6 hPa 0,0 l/m² 13,7 km/h
O (3 Bft)
- - 2 min 888 W/m² 19,2 °C 28,2 °C 17,7 km/h
O (3 Bft)
Durchschnitt _ 24,0 °C 19,3 °C 59 % 77 % 1002,6 hPa #0,0 l/m² 3,9 km/h (1 Bft) O-NO - #10:10 h 173 W/m² 14,7 °C 19,2 °C 5,8 km/h (2 Bft)
© 2009 Mathias Hoßbach